Time,TemperatureF,DewpointF,PressureIn,WindDirection,WindDirectionDegrees,WindSpeedMPH,WindSpeedGustMPH,Humidity,HourlyPrecipIn,Conditions,Clouds,dailyrainin,SoftwareType,DateUTC
2013-02-05 00:00:00,65.8,63.1,29.84,SSE,159,2.0,4.0,91,0.00,,---,0.00,VWS V14.01,2013-02-05 06:00:00,
2013-02-05 00:01:00,65.7,63.0,29.84,SSE,160,2.0,3.0,91,0.00,,---,0.00,VWS V14.01,2013-02-05 06:01:00,
2013-02-05 00:02:00,65.7,63.0,29.84,SSE,160,2.0,2.0,91,0.00,,---,0.00,VWS V14.01,2013-02-05 06:02:00,
2013-02-05 00:03:00,65.7,63.0,29.84,SSE,160,2.0,2.0,91,0.00,,---,0.00,VWS V14.01,2013-02-05 06:03:00,
2013-02-05 00:04:00,65.6,62.9,29.84,South,172,5.0,6.0,91,0.00,,---,0.00,VWS V14.01,2013-02-05 06:04:00,
2013-02-05 00:05:00,65.6,62.9,29.84,SSE,167,5.0,6.0,91,0.00,,---,0.00,VWS V14.01,2013-02-05 06:05:00,
2013-02-05 00:06:00,65.6,62.9,29.84,South,170,4.0,6.0,91,0.00,,---,0.00,VWS V14.01,2013-02-05 06:06:00,
2013-02-05 00:07:00,65.5,62.8,29.84,South,172,0.0,4.0,91,0.00,,---,0.00,VWS V14.01,2013-02-05 06:07:00,
2013-02-05 00:08:00,65.5,62.8,29.84,South,169,3.0,9.0,91,0.00,,---,0.00,VWS V14.01,2013-02-05 06:08:00,
2013-02-05 00:09:00,65.5,62.8,29.84,South,175,4.0,8.0,91,0.00,,---,0.00,VWS V14.01,2013-02-05 06:09:00,
2013-02-05 00:10:00,65.5,62.8,29.84,South,174,3.0,4.0,91,0.00,,---,0.00,VWS V14.01,2013-02-05 06:10:00,
2013-02-05 00:11:00,65.4,62.7,29.84,South,173,4.0,5.0,91,0.00,,---,0.00,VWS V14.01,2013-02-05 06:11:00,
2013-02-05 00:12:00,65.4,62.7,29.84,SSE,165,4.0,6.0,91,0.00,,---,0.00,VWS V14.01,2013-02-05 06:12:00,
2013-02-05 00:13:00,65.4,62.7,29.84,SSE,157,5.0,6.0,91,0.00,,---,0.00,VWS V14.01,2013-02-05 06:13:00,
2013-02-05 00:14:00,65.4,62.7,29.84,SSE,167,4.0,6.0,91,0.00,,---,0.00,VWS V14.01,2013-02-05 06:14:00,
2013-02-05 00:15:00,65.4,62.7,29.84,SSE,168,6.0,6.0,91,0.00,,---,0.00,VWS V14.01,2013-02-05 06:15:00,
2013-02-05 00:16:00,65.4,62.7,29.84,SSE,168,3.0,5.0,91,0.00,,---,0.00,VWS V14.01,2013-02-05 06:16:00,
2013-02-05 00:17:00,65.4,62.7,29.84,South,169,3.0,5.0,91,0.00,,---,0.00,VWS V14.01,2013-02-05 06:17:00,
2013-02-05 00:18:00,65.3,62.6,29.84,South,169,4.0,4.0,91,0.00,,---,0.00,VWS V14.01,2013-02-05 06:18:00,
2013-02-05 00:19:00,65.3,62.6,29.84,SSE,150,4.0,6.0,91,0.00,,---,0.00,VWS V14.01,2013-02-05 06:19:00,
2013-02-05 00:20:00,65.3,62.6,29.84,SSE,155,2.0,4.0,91,0.00,,---,0.00,VWS V14.01,2013-02-05 06:20:00,
2013-02-05 00:21:00,65.3,62.6,29.83,SSE,158,1.0,6.0,91,0.00,,---,0.00,VWS V14.01,2013-02-05 06:21:00,
2013-02-05 00:22:00,65.2,62.5,29.83,SE,144,2.0,7.0,91,0.00,,---,0.00,VWS V14.01,2013-02-05 06:22:00,
2013-02-05 00:23:00,65.2,62.5,29.83,SSE,150,3.0,5.0,91,0.00,,---,0.00,VWS V14.01,2013-02-05 06:23:00,
2013-02-05 00:24:00,65.2,62.5,29.83,SSE,150,3.0,4.0,91,0.00,,---,0.00,VWS V14.01,2013-02-05 06:24:00,
2013-02-05 00:25:00,65.2,62.5,29.83,SSE,150,2.0,3.0,91,0.00,,---,0.00,VWS V14.01,2013-02-05 06:25:00,
2013-02-05 00:26:00,65.2,62.5,29.83,SSE,150,2.0,2.0,91,0.00,,---,0.00,VWS V14.01,2013-02-05 06:26:00,
2013-02-05 00:27:00,65.1,62.4,29.83,SSE,148,5.0,5.0,91,0.00,,---,0.00,VWS V14.01,2013-02-05 06:27:00,
2013-02-05 00:28:00,65.1,62.4,29.83,SSE,149,2.0,5.0,91,0.00,,---,0.00,VWS V14.01,2013-02-05 06:28:00,
2013-02-05 00:29:00,65.0,62.6,29.83,SSE,149,2.0,3.0,92,0.00,,---,0.00,VWS V14.01,2013-02-05 06:29:00,
2013-02-05 00:30:00,65.0,62.6,29.83,SSE,149,3.0,4.0,92,0.00,,---,0.00,VWS V14.01,2013-02-05 06:30:00,
2013-02-05 00:31:00,64.9,62.2,29.83,SSE,152,3.0,4.0,91,0.00,,---,0.00,VWS V14.01,2013-02-05 06:31:00,
2013-02-05 00:32:00,64.9,62.2,29.83,SSE,152,3.0,3.0,91,0.00,,---,0.00,VWS V14.01,2013-02-05 06:32:00,
2013-02-05 00:33:00,64.9,62.2,29.83,SSE,153,2.0,3.0,91,0.00,,---,0.00,VWS V14.01,2013-02-05 06:33:00,
2013-02-05 00:34:00,64.8,62.1,29.83,SSE,153,1.0,2.0,91,0.00,,---,0.00,VWS V14.01,2013-02-05 06:34:00,
2013-02-05 00:35:00,64.9,62.2,29.83,SSE,153,4.0,4.0,91,0.00,,---,0.00,VWS V14.01,2013-02-05 06:35:00,
2013-02-05 00:36:00,64.8,62.1,29.83,SSE,153,2.0,5.0,91,0.00,,---,0.00,VWS V14.01,2013-02-05 06:36:00,
2013-02-05 00:37:00,64.7,62.0,29.83,SSE,153,4.0,4.0,91,0.00,,---,0.00,VWS V14.01,2013-02-05 06:37:00,
2013-02-05 00:38:00,64.7,62.0,29.83,SSE,153,3.0,4.0,91,0.00,,---,0.00,VWS V14.01,2013-02-05 06:38:00,
2013-02-05 00:39:00,64.7,62.0,29.83,SSE,155,1.0,4.0,91,0.00,,---,0.00,VWS V14.01,2013-02-05 06:39:00,
2013-02-05 00:40:00,64.7,62.0,29.83,SSE,155,2.0,3.0,91,0.00,,---,0.00,VWS V14.01,2013-02-05 06:40:00,
2013-02-05 00:41:00,64.6,61.9,29.83,SSE,155,2.0,5.0,91,0.00,,---,0.00,VWS V14.01,2013-02-05 06:41:00,
2013-02-05 00:42:00,64.6,61.9,29.83,SSE,157,1.0,4.0,91,0.00,,---,0.00,VWS V14.01,2013-02-05 06:42:00,
2013-02-05 00:43:00,64.5,62.1,29.83,SSE,157,1.0,4.0,92,0.00,,---,0.00,VWS V14.01,2013-02-05 06:43:00,
2013-02-05 00:44:00,64.5,62.1,29.83,SSE,159,3.0,3.0,92,0.00,,---,0.00,VWS V14.01,2013-02-05 06:44:00,
2013-02-05 00:45:00,64.5,62.1,29.83,SSE,159,1.0,3.0,92,0.00,,---,0.00,VWS V14.01,2013-02-05 06:45:00,
2013-02-05 00:46:00,64.5,62.1,29.83,SSE,159,2.0,3.0,92,0.00,,---,0.00,VWS V14.01,2013-02-05 06:46:00,
2013-02-05 00:47:00,64.5,62.1,29.83,SSE,159,2.0,3.0,92,0.00,,---,0.00,VWS V14.01,2013-02-05 06:47:00,
2013-02-05 00:48:00,64.4,62.0,29.83,SSE,160,0.0,3.0,92,0.00,,---,0.00,VWS V14.01,2013-02-05 06:48:00,
2013-02-05 00:49:00,64.5,62.1,29.83,SSE,160,0.0,2.0,92,0.00,,---,0.00,VWS V14.01,2013-02-05 06:49:00,
2013-02-05 00:50:00,64.4,62.0,29.83,SSE,160,1.0,1.0,92,0.00,,---,0.00,VWS V14.01,2013-02-05 06:50:00,
2013-02-05 00:51:00,64.4,62.0,29.83,SSE,160,0.0,2.0,92,0.00,,---,0.00,VWS V14.01,2013-02-05 06:51:00,
2013-02-05 00:52:00,64.4,62.0,29.83,SSE,161,1.0,2.0,92,0.00,,---,0.00,VWS V14.01,2013-02-05 06:52:00,
2013-02-05 00:53:00,64.3,61.9,29.83,SSE,161,2.0,2.0,92,0.00,,---,0.00,VWS V14.01,2013-02-05 06:53:00,
2013-02-05 00:54:00,64.4,62.0,29.83,SSE,161,1.0,3.0,92,0.00,,---,0.00,VWS V14.01,2013-02-05 06:54:00,
2013-02-05 00:55:00,64.3,61.9,29.83,SSE,161,2.0,2.0,92,0.00,,---,0.00,VWS V14.01,2013-02-05 06:55:00,
2013-02-05 00:56:00,64.3,61.9,29.83,SSE,160,3.0,3.0,92,0.00,,---,0.00,VWS V14.01,2013-02-05 06:56:00,
2013-02-05 00:57:00,64.3,61.9,29.83,SSE,161,2.0,3.0,92,0.00,,---,0.00,VWS V14.01,2013-02-05 06:57:00,
2013-02-05 00:58:00,64.3,61.9,29.83,SSE,161,2.0,3.0,92,0.00,,---,0.00,VWS V14.01,2013-02-05 06:58:00,
2013-02-05 00:59:00,64.2,61.8,29.83,SSE,161,1.0,3.0,92,0.00,,---,0.00,VWS V14.01,2013-02-05 06:59:00,
2013-02-05 01:00:00,64.3,61.9,29.83,SSE,161,3.0,3.0,92,0.00,,---,0.00,VWS V14.01,2013-02-05 07:00:00,
2013-02-05 01:01:00,64.2,61.8,29.83,SSE,162,0.0,2.0,92,0.00,,---,0.00,VWS V14.01,2013-02-05 07:01:00,
2013-02-05 01:02:00,64.2,61.8,29.83,SSE,161,2.0,3.0,92,0.00,,---,0.00,VWS V14.01,2013-02-05 07:02:00,
2013-02-05 01:03:00,64.2,61.8,29.83,SSE,161,2.0,2.0,92,0.00,,---,0.00,VWS V14.01,2013-02-05 07:03:00,
2013-02-05 01:04:00,64.2,61.8,29.83,SSE,161,0.0,2.0,92,0.00,,---,0.00,VWS V14.01,2013-02-05 07:04:00,
2013-02-05 01:05:00,64.2,61.8,29.83,SSE,162,0.0,0.0,92,0.00,,---,0.00,VWS V14.01,2013-02-05 07:05:00,
2013-02-05 01:06:00,64.2,61.8,29.83,SSE,161,0.0,0.0,92,0.00,,---,0.00,VWS V14.01,2013-02-05 07:06:00,
2013-02-05 01:07:00,64.1,61.7,29.83,SSE,162,0.0,0.0,92,0.00,,---,0.00,VWS V14.01,2013-02-05 07:07:00,
2013-02-05 01:08:00,64.1,61.7,29.83,SSE,162,0.0,2.0,92,0.00,,---,0.00,VWS V14.01,2013-02-05 07:08:00,
2013-02-05 01:09:00,64.1,61.7,29.83,SSE,161,0.0,0.0,92,0.00,,---,0.00,VWS V14.01,2013-02-05 07:09:00,
2013-02-05 01:10:00,64.1,61.7,29.83,SSE,161,0.0,0.0,92,0.00,,---,0.00,VWS V14.01,2013-02-05 07:10:00,
2013-02-05 01:11:00,64.1,61.7,29.83,SSE,162,0.0,0.0,92,0.00,,---,0.00,VWS V14.01,2013-02-05 07:11:00,
2013-02-05 01:12:00,64.1,61.7,29.83,SSE,161,0.0,2.0,92,0.00,,---,0.00,VWS V14.01,2013-02-05 07:12:00,
2013-02-05 01:13:00,64.0,61.6,29.83,SSE,162,2.0,3.0,92,0.00,,---,0.00,VWS V14.01,2013-02-05 07:13:00,
2013-02-05 01:14:00,64.0,61.6,29.83,SSE,162,0.0,2.0,92,0.00,,---,0.00,VWS V14.01,2013-02-05 07:14:00,
2013-02-05 01:15:00,64.0,61.6,29.83,SSE,161,0.0,0.0,92,0.00,,---,0.00,VWS V14.01,2013-02-05 07:15:00,
2013-02-05 01:16:00,64.0,61.6,29.83,SSE,161,0.0,2.0,92,0.00,,---,0.00,VWS V14.01,2013-02-05 07:16:00,
2013-02-05 01:17:00,64.0,61.6,29.83,SSE,161,2.0,3.0,92,0.00,,---,0.00,VWS V14.01,2013-02-05 07:17:00,
2013-02-05 01:18:00,63.9,61.5,29.83,SSE,161,2.0,3.0,92,0.00,,---,0.00,VWS V14.01,2013-02-05 07:18:00,
2013-02-05 01:19:00,63.9,61.5,29.83,SSE,161,1.0,2.0,92,0.00,,---,0.00,VWS V14.01,2013-02-05 07:19:00,
2013-02-05 01:20:00,63.9,61.5,29.83,SSE,162,1.0,1.0,92,0.00,,---,0.00,VWS V14.01,2013-02-05 07:20:00,
2013-02-05 01:21:00,63.9,61.5,29.83,SSE,163,3.0,3.0,92,0.00,,---,0.00,VWS V14.01,2013-02-05 07:21:00,
2013-02-05 01:22:00,63.9,61.5,29.83,SSE,163,3.0,3.0,92,0.00,,---,0.00,VWS V14.01,2013-02-05 07:22:00,
2013-02-05 01:23:00,63.8,61.4,29.83,SSE,162,2.0,3.0,92,0.00,,---,0.00,VWS V14.01,2013-02-05 07:23:00,
2013-02-05 01:24:00,63.8,61.4,29.83,SSE,161,0.0,2.0,92,0.00,,---,0.00,VWS V14.01,2013-02-05 07:24:00,
2013-02-05 01:25:00,63.8,61.4,29.83,SSE,162,0.0,0.0,92,0.00,,---,0.00,VWS V14.01,2013-02-05 07:25:00,
2013-02-05 01:26:00,63.8,61.4,29.83,SSE,162,0.0,0.0,92,0.00,,---,0.00,VWS V14.01,2013-02-05 07:26:00,
2013-02-05 01:27:00,63.8,61.4,29.83,SSE,162,0.0,3.0,92,0.00,,---,0.00,VWS V14.01,2013-02-05 07:27:00,
2013-02-05 01:28:00,63.8,61.4,29.83,SSE,162,0.0,1.0,92,0.00,,---,0.00,VWS V14.01,2013-02-05 07:28:00,
2013-02-05 01:29:00,63.7,61.3,29.83,SSE,161,2.0,2.0,92,0.00,,---,0.00,VWS V14.01,2013-02-05 07:29:00,
2013-02-05 01:30:00,63.7,61.3,29.83,SSE,162,2.0,2.0,92,0.00,,---,0.00,VWS V14.01,2013-02-05 07:30:00,
2013-02-05 01:31:00,63.7,61.3,29.83,SSE,161,3.0,3.0,92,0.00,,---,0.00,VWS V14.01,2013-02-05 07:31:00,
2013-02-05 01:32:00,63.7,61.3,29.83,SSE,161,2.0,3.0,92,0.00,,---,0.00,VWS V14.01,2013-02-05 07:32:00,
2013-02-05 01:33:00,63.6,61.2,29.83,SSE,162,1.0,2.0,92,0.00,,---,0.00,VWS V14.01,2013-02-05 07:33:00,
2013-02-05 01:34:00,63.7,61.3,29.83,SSE,162,1.0,2.0,92,0.00,,---,0.00,VWS V14.01,2013-02-05 07:34:00,
2013-02-05 01:35:00,63.7,61.3,29.83,SSE,161,1.0,1.0,92,0.00,,---,0.00,VWS V14.01,2013-02-05 07:35:00,
2013-02-05 01:36:00,63.6,61.2,29.83,SSE,162,0.0,2.0,92,0.00,,---,0.00,VWS V14.01,2013-02-05 07:36:00,
2013-02-05 01:37:00,63.6,61.2,29.83,SSE,161,1.0,1.0,92,0.00,,---,0.00,VWS V14.01,2013-02-05 07:37:00,
2013-02-05 01:38:00,63.6,61.2,29.83,SSE,161,1.0,1.0,92,0.00,,---,0.00,VWS V14.01,2013-02-05 07:38:00,
2013-02-05 01:39:00,63.6,61.2,29.83,SSE,162,0.0,1.0,92,0.00,,---,0.00,VWS V14.01,2013-02-05 07:39:00,
2013-02-05 01:40:00,63.6,61.2,29.83,SSE,161,1.0,1.0,92,0.00,,---,0.00,VWS V14.01,2013-02-05 07:40:00,
2013-02-05 01:41:00,63.6,61.2,29.83,SSE,162,0.0,1.0,92,0.00,,---,0.00,VWS V14.01,2013-02-05 07:41:00,
2013-02-05 01:42:00,63.6,61.2,29.83,SSE,161,0.0,1.0,92,0.00,,---,0.00,VWS V14.01,2013-02-05 07:42:00,
2013-02-05 01:43:00,63.6,61.2,29.83,SSE,162,0.0,0.0,92,0.00,,---,0.00,VWS V14.01,2013-02-05 07:43:00,
2013-02-05 01:44:00,63.6,61.2,29.83,SSE,162,0.0,1.0,92,0.00,,---,0.00,VWS V14.01,2013-02-05 07:44:00,
2013-02-05 01:45:00,63.5,61.1,29.83,SSE,162,0.0,0.0,92,0.00,,---,0.00,VWS V14.01,2013-02-05 07:45:00,
2013-02-05 01:46:00,63.5,61.1,29.83,SSE,161,1.0,1.0,92,0.00,,---,0.00,VWS V14.01,2013-02-05 07:46:00,
2013-02-05 01:47:00,63.5,61.1,29.83,SSE,161,0.0,1.0,92,0.00,,---,0.00,VWS V14.01,2013-02-05 07:47:00,
2013-02-05 01:48:00,63.5,61.1,29.83,SSE,162,0.0,0.0,92,0.00,,---,0.00,VWS V14.01,2013-02-05 07:48:00,
2013-02-05 01:49:00,63.5,61.1,29.83,SSE,162,0.0,0.0,92,0.00,,---,0.00,VWS V14.01,2013-02-05 07:49:00,
2013-02-05 01:50:00,63.5,61.1,29.83,SSE,162,0.0,0.0,92,0.00,,---,0.00,VWS V14.01,2013-02-05 07:50:00,
2013-02-05 01:51:00,63.5,61.1,29.83,SSE,162,0.0,0.0,92,0.00,,---,0.00,VWS V14.01,2013-02-05 07:51:00,
2013-02-05 01:52:00,63.5,61.1,29.83,SSE,161,0.0,0.0,92,0.00,,---,0.00,VWS V14.01,2013-02-05 07:52:00,
2013-02-05 01:53:00,63.5,61.1,29.83,SSE,162,0.0,0.0,92,0.00,,---,0.00,VWS V14.01,2013-02-05 07:53:00,
2013-02-05 01:54:00,63.4,61.0,29.82,SSE,162,0.0,0.0,92,0.00,,---,0.00,VWS V14.01,2013-02-05 07:54:00,
2013-02-05 01:55:00,63.4,61.0,29.83,SSE,161,0.0,0.0,92,0.00,,---,0.00,VWS V14.01,2013-02-05 07:55:00,
2013-02-05 01:56:00,63.4,61.0,29.83,SSE,162,0.0,0.0,92,0.00,,---,0.00,VWS V14.01,2013-02-05 07:56:00,
2013-02-05 01:57:00,63.4,61.0,29.82,SSE,162,0.0,0.0,92,0.00,,---,0.00,VWS V14.01,2013-02-05 07:57:00,
2013-02-05 01:58:00,63.4,61.0,29.82,SSE,161,0.0,0.0,92,0.00,,---,0.00,VWS V14.01,2013-02-05 07:58:00,
2013-02-05 01:59:00,63.4,61.3,29.82,SSE,162,0.0,0.0,93,0.00,,---,0.00,VWS V14.01,2013-02-05 07:59:00,
2013-02-05 02:00:00,63.4,61.3,29.82,SSE,162,0.0,0.0,93,0.00,,---,0.00,VWS V14.01,2013-02-05 08:00:00,
2013-02-05 02:01:00,63.3,61.2,29.82,SSE,162,0.0,1.0,93,0.00,,---,0.00,VWS V14.01,2013-02-05 08:01:00,
2013-02-05 02:02:00,63.3,61.2,29.82,SSE,162,0.0,0.0,93,0.00,,---,0.00,VWS V14.01,2013-02-05 08:02:00,
2013-02-05 02:03:00,63.3,61.2,29.83,SSE,162,0.0,0.0,93,0.00,,---,0.00,VWS V14.01,2013-02-05 08:03:00,
2013-02-05 02:04:00,63.3,61.2,29.83,SSE,161,0.0,0.0,93,0.00,,---,0.00,VWS V14.01,2013-02-05 08:04:00,
2013-02-05 02:05:00,63.3,61.2,29.83,SSE,162,0.0,0.0,93,0.00,,---,0.00,VWS V14.01,2013-02-05 08:05:00,
2013-02-05 02:06:00,63.2,60.8,29.83,SSE,161,0.0,0.0,92,0.00,,---,0.00,VWS V14.01,2013-02-05 08:06:00,
2013-02-05 02:07:00,63.2,60.8,29.83,SSE,162,0.0,0.0,92,0.00,,---,0.00,VWS V14.01,2013-02-05 08:07:00,
2013-02-05 02:08:00,63.2,60.8,29.83,SSE,162,0.0,0.0,92,0.00,,---,0.00,VWS V14.01,2013-02-05 08:08:00,
2013-02-05 02:09:00,63.2,61.2,29.82,SSE,162,0.0,0.0,93,0.00,,---,0.00,VWS V14.01,2013-02-05 08:09:00,
2013-02-05 02:10:00,63.2,61.2,29.82,SSE,162,0.0,0.0,93,0.00,,---,0.00,VWS V14.01,2013-02-05 08:10:00,
2013-02-05 02:11:00,63.1,61.0,29.82,SSE,162,0.0,0.0,93,0.00,,---,0.00,VWS V14.01,2013-02-05 08:11:00,
2013-02-05 02:12:00,63.1,61.0,29.82,SSE,161,0.0,0.0,93,0.00,,---,0.00,VWS V14.01,2013-02-05 08:12:00,
2013-02-05 02:13:00,63.1,61.0,29.82,SSE,162,0.0,0.0,93,0.00,,---,0.00,VWS V14.01,2013-02-05 08:13:00,
2013-02-05 02:14:00,63.1,61.0,29.82,SSE,162,0.0,0.0,93,0.00,,---,0.00,VWS V14.01,2013-02-05 08:14:00,
2013-02-05 02:15:00,63.1,61.0,29.82,SSE,162,0.0,0.0,93,0.00,,---,0.00,VWS V14.01,2013-02-05 08:15:00,
2013-02-05 02:16:00,63.1,61.0,29.82,SSE,161,0.0,0.0,93,0.00,,---,0.00,VWS V14.01,2013-02-05 08:16:00,
2013-02-05 02:17:00,63.1,61.0,29.82,SSE,162,0.0,0.0,93,0.00,,---,0.00,VWS V14.01,2013-02-05 08:17:00,
2013-02-05 02:18:00,63.1,61.0,29.82,SSE,162,0.0,0.0,93,0.00,,---,0.00,VWS V14.01,2013-02-05 08:18:00,
2013-02-05 02:19:00,63.1,61.0,29.82,SSE,161,0.0,0.0,93,0.00,,---,0.00,VWS V14.01,2013-02-05 08:19:00,
2013-02-05 02:20:00,63.1,61.0,29.82,SSE,161,0.0,0.0,93,0.00,,---,0.00,VWS V14.01,2013-02-05 08:20:00,
2013-02-05 02:21:00,63.1,61.0,29.82,SSE,162,0.0,0.0,93,0.00,,---,0.00,VWS V14.01,2013-02-05 08:21:00,
2013-02-05 02:22:00,63.1,61.0,29.82,SSE,162,0.0,0.0,93,0.00,,---,0.00,VWS V14.01,2013-02-05 08:22:00,
2013-02-05 02:23:00,63.1,61.0,29.82,SSE,162,0.0,0.0,93,0.00,,---,0.00,VWS V14.01,2013-02-05 08:23:00,
2013-02-05 02:24:00,63.1,61.0,29.82,SSE,162,0.0,0.0,93,0.00,,---,0.00,VWS V14.01,2013-02-05 08:24:00,
2013-02-05 02:25:00,63.1,61.0,29.82,SSE,162,0.0,0.0,93,0.00,,---,0.00,VWS V14.01,2013-02-05 08:25:00,
2013-02-05 02:26:00,63.1,61.0,29.82,SSE,162,0.0,0.0,93,0.00,,---,0.00,VWS V14.01,2013-02-05 08:26:00,
2013-02-05 02:27:00,63.1,61.0,29.82,SSE,162,0.0,0.0,93,0.00,,---,0.00,VWS V14.01,2013-02-05 08:27:00,
2013-02-05 02:28:00,63.1,61.0,29.82,SSE,161,0.0,0.0,93,0.00,,---,0.00,VWS V14.01,2013-02-05 08:28:00,
2013-02-05 02:29:00,63.1,61.0,29.82,SSE,161,0.0,0.0,93,0.00,,---,0.00,VWS V14.01,2013-02-05 08:29:00,
2013-02-05 02:30:00,63.1,61.0,29.82,SSE,161,0.0,0.0,93,0.00,,---,0.00,VWS V14.01,2013-02-05 08:30:00,
2013-02-05 02:31:00,63.1,61.0,29.82,SSE,162,0.0,0.0,93,0.00,,---,0.00,VWS V14.01,2013-02-05 08:31:00,
2013-02-05 02:32:00,63.0,61.0,29.82,SSE,162,0.0,0.0,93,0.00,,---,0.00,VWS V14.01,2013-02-05 08:32:00,
2013-02-05 02:33:00,63.0,61.0,29.82,SSE,161,0.0,0.0,93,0.00,,---,0.00,VWS V14.01,2013-02-05 08:33:00,
2013-02-05 02:34:00,63.0,61.0,29.82,SSE,161,0.0,0.0,93,0.00,,---,0.00,VWS V14.01,2013-02-05 08:34:00,
2013-02-05 02:35:00,63.0,61.0,29.82,SSE,161,0.0,0.0,93,0.00,,---,0.00,VWS V14.01,2013-02-05 08:35:00,
2013-02-05 02:36:00,63.0,61.0,29.83,SSE,162,0.0,0.0,93,0.00,,---,0.00,VWS V14.01,2013-02-05 08:36:00,
2013-02-05 02:37:00,63.0,61.0,29.83,SSE,162,0.0,0.0,93,0.00,,---,0.00,VWS V14.01,2013-02-05 08:37:00,
2013-02-05 02:38:00,62.9,60.8,29.83,SSE,162,0.0,0.0,93,0.00,,---,0.00,VWS V14.01,2013-02-05 08:38:00,
2013-02-05 02:39:00,62.9,60.8,29.83,SSE,162,0.0,0.0,93,0.00,,---,0.00,VWS V14.01,2013-02-05 08:39:00,
2013-02-05 02:40:00,62.9,60.8,29.82,SSE,162,0.0,0.0,93,0.00,,---,0.00,VWS V14.01,2013-02-05 08:40:00,
2013-02-05 02:41:00,62.9,60.8,29.82,SSE,161,0.0,0.0,93,0.00,,---,0.00,VWS V14.01,2013-02-05 08:41:00,
2013-02-05 02:42:00,62.9,60.8,29.82,SSE,162,0.0,0.0,93,0.00,,---,0.00,VWS V14.01,2013-02-05 08:42:00,
2013-02-05 02:43:00,62.9,60.8,29.83,SSE,162,0.0,0.0,93,0.00,,---,0.00,VWS V14.01,2013-02-05 08:43:00,
2013-02-05 02:44:00,62.9,60.8,29.83,SSE,162,0.0,0.0,93,0.00,,---,0.00,VWS V14.01,2013-02-05 08:44:00,
2013-02-05 02:45:00,62.9,60.8,29.83,SSE,162,0.0,0.0,93,0.00,,---,0.00,VWS V14.01,2013-02-05 08:45:00,
2013-02-05 02:46:00,62.9,60.8,29.83,SSE,161,0.0,0.0,93,0.00,,---,0.00,VWS V14.01,2013-02-05 08:46:00,
2013-02-05 02:47:00,62.9,60.8,29.83,SSE,161,0.0,0.0,93,0.00,,---,0.00,VWS V14.01,2013-02-05 08:47:00,
2013-02-05 02:48:00,62.8,60.8,29.83,SSE,161,0.0,0.0,93,0.00,,---,0.00,VWS V14.01,2013-02-05 08:48:00,
2013-02-05 02:49:00,62.8,60.8,29.83,SSE,162,0.0,0.0,93,0.00,,---,0.00,VWS V14.01,2013-02-05 08:49:00,
2013-02-05 02:50:00,62.8,60.8,29.83,SSE,162,0.0,0.0,93,0.00,,---,0.00,VWS V14.01,2013-02-05 08:50:00,
2013-02-05 02:51:00,62.8,60.8,29.82,SSE,162,0.0,0.0,93,0.00,,---,0.00,VWS V14.01,2013-02-05 08:51:00,
2013-02-05 02:52:00,62.8,60.8,29.82,SSE,162,0.0,0.0,93,0.00,,---,0.00,VWS V14.01,2013-02-05 08:52:00,
2013-02-05 02:53:00,62.8,60.8,29.82,SSE,161,0.0,0.0,93,0.00,,---,0.00,VWS V14.01,2013-02-05 08:53:00,
2013-02-05 02:54:00,62.8,60.8,29.82,SSE,162,0.0,0.0,93,0.00,,---,0.00,VWS V14.01,2013-02-05 08:54:00,
2013-02-05 02:55:00,62.8,60.8,29.82,SSE,162,0.0,0.0,93,0.00,,---,0.00,VWS V14.01,2013-02-05 08:55:00,
2013-02-05 02:56:00,62.9,60.8,29.82,SSE,162,0.0,0.0,93,0.00,,---,0.00,VWS V14.01,2013-02-05 08:56:00,
2013-02-05 02:57:00,62.9,60.8,29.82,SSE,162,0.0,0.0,93,0.00,,---,0.00,VWS V14.01,2013-02-05 08:57:00,
2013-02-05 02:58:00,62.9,60.8,29.82,SSE,161,0.0,0.0,93,0.00,,---,0.00,VWS V14.01,2013-02-05 08:58:00,
2013-02-05 02:59:00,62.9,60.8,29.83,SSE,162,0.0,0.0,93,0.00,,---,0.00,VWS V14.01,2013-02-05 08:59:00,
2013-02-05 03:00:00,62.9,60.8,29.83,SSE,162,0.0,0.0,93,0.00,,---,0.00,VWS V14.01,2013-02-05 09:00:00,
2013-02-05 03:01:00,62.9,60.8,29.83,SSE,162,0.0,0.0,93,0.00,,---,0.00,VWS V14.01,2013-02-05 09:01:00,
2013-02-05 03:02:00,62.9,60.8,29.83,SSE,162,0.0,0.0,93,0.00,,---,0.00,VWS V14.01,2013-02-05 09:02:00,
2013-02-05 03:03:00,62.9,60.8,29.83,SSE,162,0.0,0.0,93,0.00,,---,0.00,VWS V14.01,2013-02-05 09:03:00,
2013-02-05 03:04:00,62.9,60.8,29.83,SSE,162,0.0,0.0,93,0.00,,---,0.00,VWS V14.01,2013-02-05 09:04:00,
2013-02-05 03:05:00,62.9,60.8,29.83,SSE,162,0.0,0.0,93,0.00,,---,0.00,VWS V14.01,2013-02-05 09:05:00,
2013-02-05 03:06:00,62.9,60.8,29.82,SSE,162,0.0,0.0,93,0.00,,---,0.00,VWS V14.01,2013-02-05 09:06:00,
2013-02-05 03:07:00,62.9,60.8,29.82,SSE,161,0.0,0.0,93,0.00,,---,0.00,VWS V14.01,2013-02-05 09:07:00,
2013-02-05 03:08:00,62.8,60.8,29.82,SSE,161,0.0,0.0,93,0.00,,---,0.00,VWS V14.01,2013-02-05 09:08:00,
2013-02-05 03:09:00,62.9,60.8,29.82,SSE,161,0.0,0.0,93,0.00,,---,0.00,VWS V14.01,2013-02-05 09:09:00,
2013-02-05 03:10:00,62.9,60.8,29.82,SSE,161,0.0,0.0,93,0.00,,---,0.00,VWS V14.01,2013-02-05 09:10:00,
2013-02-05 03:11:00,62.9,60.8,29.82,SSE,162,0.0,0.0,93,0.00,,---,0.00,VWS V14.01,2013-02-05 09:11:00,
2013-02-05 03:12:00,62.8,60.8,29.82,SSE,161,0.0,0.0,93,0.00,,---,0.00,VWS V14.01,2013-02-05 09:12:00,
2013-02-05 03:13:00,62.8,60.8,29.82,SSE,161,0.0,0.0,93,0.00,,---,0.00,VWS V14.01,2013-02-05 09:13:00,
2013-02-05 03:14:00,62.8,60.8,29.82,SSE,162,0.0,0.0,93,0.00,,---,0.00,VWS V14.01,2013-02-05 09:14:00,
2013-02-05 03:15:00,62.8,60.8,29.82,SSE,161,0.0,0.0,93,0.00,,---,0.00,VWS V14.01,2013-02-05 09:15:00,
2013-02-05 03:16:00,62.8,60.8,29.82,SSE,163,0.0,0.0,93,0.00,,---,0.00,VWS V14.01,2013-02-05 09:16:00,
2013-02-05 03:17:00,62.7,60.7,29.83,SSE,163,0.0,0.0,93,0.00,,---,0.00,VWS V14.01,2013-02-05 09:17:00,
2013-02-05 03:18:00,62.7,60.7,29.83,SSE,163,0.0,0.0,93,0.00,,---,0.00,VWS V14.01,2013-02-05 09:18:00,
2013-02-05 03:19:00,62.7,60.7,29.83,SSE,163,0.0,0.0,93,0.00,,---,0.00,VWS V14.01,2013-02-05 09:19:00,
2013-02-05 03:20:00,62.6,60.5,29.83,SSE,163,0.0,0.0,93,0.00,,---,0.00,VWS V14.01,2013-02-05 09:20:00,
2013-02-05 03:21:00,62.6,60.5,29.83,SSE,163,0.0,0.0,93,0.00,,---,0.00,VWS V14.01,2013-02-05 09:21:00,
2013-02-05 03:22:00,62.6,60.5,29.83,SSE,163,0.0,0.0,93,0.00,,---,0.00,VWS V14.01,2013-02-05 09:22:00,
2013-02-05 03:23:00,62.6,60.5,29.83,SSE,163,0.0,0.0,93,0.00,,---,0.00,VWS V14.01,2013-02-05 09:23:00,
2013-02-05 03:24:00,62.5,60.5,29.83,SSE,163,0.0,0.0,93,0.00,,---,0.00,VWS V14.01,2013-02-05 09:24:00,
2013-02-05 03:25:00,62.5,60.5,29.83,SSE,163,0.0,0.0,93,0.00,,---,0.00,VWS V14.01,2013-02-05 09:25:00,
2013-02-05 03:26:00,62.4,60.3,29.83,SSE,163,0.0,3.0,93,0.00,,---,0.00,VWS V14.01,2013-02-05 09:26:00,
2013-02-05 03:27:00,62.4,60.3,29.83,SSE,163,0.0,1.0,93,0.00,,---,0.00,VWS V14.01,2013-02-05 09:27:00,
2013-02-05 03:28:00,62.3,60.2,29.83,SSE,163,0.0,1.0,93,0.00,,---,0.00,VWS V14.01,2013-02-05 09:28:00,
2013-02-05 03:29:00,62.3,60.2,29.83,SSE,163,0.0,0.0,93,0.00,,---,0.00,VWS V14.01,2013-02-05 09:29:00,
2013-02-05 03:30:00,62.2,60.2,29.83,SSE,163,0.0,0.0,93,0.00,,---,0.00,VWS V14.01,2013-02-05 09:30:00,
2013-02-05 03:31:00,62.2,60.2,29.83,SSE,163,0.0,0.0,93,0.00,,---,0.00,VWS V14.01,2013-02-05 09:31:00,
2013-02-05 03:32:00,62.1,60.1,29.83,SSE,163,0.0,0.0,93,0.00,,---,0.00,VWS V14.01,2013-02-05 09:32:00,
2013-02-05 03:33:00,62.1,60.1,29.83,SSE,163,0.0,0.0,93,0.00,,---,0.00,VWS V14.01,2013-02-05 09:33:00,
2013-02-05 03:34:00,62.1,60.1,29.83,SSE,163,0.0,0.0,93,0.00,,---,0.00,VWS V14.01,2013-02-05 09:34:00,
2013-02-05 03:35:00,62.0,60.0,29.83,SSE,163,0.0,0.0,93,0.00,,---,0.00,VWS V14.01,2013-02-05 09:35:00,
2013-02-05 03:36:00,62.0,60.0,29.83,SSE,163,0.0,0.0,93,0.00,,---,0.00,VWS V14.01,2013-02-05 09:36:00,
2013-02-05 03:37:00,61.9,59.9,29.83,SSE,163,0.0,0.0,93,0.00,,---,0.00,VWS V14.01,2013-02-05 09:37:00,
2013-02-05 03:38:00,61.9,59.9,29.83,SSE,163,0.0,0.0,93,0.00,,---,0.00,VWS V14.01,2013-02-05 09:38:00,
2013-02-05 03:39:00,61.8,59.8,29.83,SSE,163,0.0,0.0,93,0.00,,---,0.00,VWS V14.01,2013-02-05 09:39:00,
2013-02-05 03:40:00,61.8,59.8,29.83,SSE,163,0.0,0.0,93,0.00,,---,0.00,VWS V14.01,2013-02-05 09:40:00,
2013-02-05 03:41:00,61.7,59.7,29.83,SSE,163,0.0,0.0,93,0.00,,---,0.00,VWS V14.01,2013-02-05 09:41:00,
2013-02-05 03:42:00,61.7,59.7,29.83,SSE,163,0.0,1.0,93,0.00,,---,0.00,VWS V14.01,2013-02-05 09:42:00,
2013-02-05 03:43:00,61.6,59.6,29.83,SSE,163,0.0,1.0,93,0.00,,---,0.00,VWS V14.01,2013-02-05 09:43:00,
2013-02-05 03:44:00,61.6,59.6,29.83,SSE,163,0.0,0.0,93,0.00,,---,0.00,VWS V14.01,2013-02-05 09:44:00,
2013-02-05 03:45:00,61.5,59.5,29.83,SSE,163,0.0,0.0,93,0.00,,---,0.00,VWS V14.01,2013-02-05 09:45:00,
2013-02-05 03:46:00,61.5,59.5,29.83,SSE,163,0.0,0.0,93,0.00,,---,0.00,VWS V14.01,2013-02-05 09:46:00,
2013-02-05 03:47:00,61.5,59.5,29.83,SSE,163,0.0,0.0,93,0.00,,---,0.00,VWS V14.01,2013-02-05 09:47:00,
2013-02-05 03:48:00,61.6,59.6,29.83,SSE,163,0.0,0.0,93,0.00,,---,0.00,VWS V14.01,2013-02-05 09:48:00,
2013-02-05 03:49:00,61.5,59.5,29.83,SSE,163,0.0,0.0,93,0.00,,---,0.00,VWS V14.01,2013-02-05 09:49:00,
2013-02-05 03:50:00,61.5,59.5,29.83,SSE,163,0.0,0.0,93,0.00,,---,0.00,VWS V14.01,2013-02-05 09:50:00,
2013-02-05 03:51:00,61.5,59.5,29.83,SSE,163,2.0,2.0,93,0.00,,---,0.00,VWS V14.01,2013-02-05 09:51:00,
2013-02-05 03:52:00,61.6,59.6,29.83,SSE,163,0.0,2.0,93,0.00,,---,0.00,VWS V14.01,2013-02-05 09:52:00,
2013-02-05 03:53:00,61.6,59.6,29.83,SSE,163,0.0,2.0,93,0.00,,---,0.00,VWS V14.01,2013-02-05 09:53:00,
2013-02-05 03:54:00,61.6,59.6,29.83,SSE,163,1.0,1.0,93,0.00,,---,0.00,VWS V14.01,2013-02-05 09:54:00,
2013-02-05 03:55:00,61.6,59.6,29.83,SSE,163,1.0,2.0,93,0.00,,---,0.00,VWS V14.01,2013-02-05 09:55:00,
2013-02-05 03:56:00,61.5,59.5,29.83,SSE,163,1.0,3.0,93,0.00,,---,0.00,VWS V14.01,2013-02-05 09:56:00,
2013-02-05 03:57:00,61.5,59.5,29.83,SSE,163,1.0,2.0,93,0.00,,---,0.00,VWS V14.01,2013-02-05 09:57:00,
2013-02-05 03:58:00,61.5,59.5,29.83,SSE,163,1.0,1.0,93,0.00,,---,0.00,VWS V14.01,2013-02-05 09:58:00,
2013-02-05 03:59:00,61.5,59.5,29.83,SSE,163,0.0,1.0,93,0.00,,---,0.00,VWS V14.01,2013-02-05 09:59:00,
2013-02-05 04:00:00,61.5,59.5,29.83,SSE,163,0.0,0.0,93,0.00,,---,0.00,VWS V14.01,2013-02-05 10:00:00,
2013-02-05 04:01:00,61.4,59.4,29.83,SSE,163,0.0,0.0,93,0.00,,---,0.00,VWS V14.01,2013-02-05 10:01:00,
2013-02-05 04:02:00,61.4,59.4,29.83,SSE,163,0.0,0.0,93,0.00,,---,0.00,VWS V14.01,2013-02-05 10:02:00,
2013-02-05 04:03:00,61.4,59.4,29.83,SSE,163,0.0,0.0,93,0.00,,---,0.00,VWS V14.01,2013-02-05 10:03:00,
2013-02-05 04:04:00,61.4,59.4,29.84,SSE,163,0.0,1.0,93,0.00,,---,0.00,VWS V14.01,2013-02-05 10:04:00,
2013-02-05 04:05:00,61.3,59.3,29.84,SSE,163,0.0,0.0,93,0.00,,---,0.00,VWS V14.01,2013-02-05 10:05:00,
2013-02-05 04:06:00,61.2,59.2,29.83,SSE,163,0.0,0.0,93,0.00,,---,0.00,VWS V14.01,2013-02-05 10:06:00,
2013-02-05 04:07:00,61.2,59.2,29.84,SSE,163,0.0,0.0,93,0.00,,---,0.00,VWS V14.01,2013-02-05 10:07:00,
2013-02-05 04:08:00,61.2,59.2,29.84,SSE,163,0.0,0.0,93,0.00,,---,0.00,VWS V14.01,2013-02-05 10:08:00,
2013-02-05 04:09:00,61.1,59.1,29.84,SSE,163,0.0,0.0,93,0.00,,---,0.00,VWS V14.01,2013-02-05 10:09:00,
2013-02-05 04:10:00,61.1,59.1,29.83,SSE,163,0.0,0.0,93,0.00,,---,0.00,VWS V14.01,2013-02-05 10:10:00,
2013-02-05 04:11:00,61.1,59.1,29.84,SSE,163,0.0,0.0,93,0.00,,---,0.00,VWS V14.01,2013-02-05 10:11:00,
2013-02-05 04:12:00,61.1,59.1,29.84,SSE,163,0.0,0.0,93,0.00,,---,0.00,VWS V14.01,2013-02-05 10:12:00,
2013-02-05 04:13:00,61.1,59.1,29.84,SSE,163,0.0,0.0,93,0.00,,---,0.00,VWS V14.01,2013-02-05 10:13:00,
2013-02-05 04:14:00,61.2,59.2,29.84,SSE,163,0.0,0.0,93,0.00,,---,0.00,VWS V14.01,2013-02-05 10:14:00,
2013-02-05 04:15:00,61.2,59.5,29.84,SSE,163,0.0,0.0,94,0.00,,---,0.00,VWS V14.01,2013-02-05 10:15:00,
2013-02-05 04:16:00,61.1,59.4,29.84,SSE,163,0.0,0.0,94,0.00,,---,0.00,VWS V14.01,2013-02-05 10:16:00,
2013-02-05 04:17:00,61.1,59.1,29.84,SSE,163,0.0,0.0,93,0.00,,---,0.00,VWS V14.01,2013-02-05 10:17:00,
2013-02-05 04:18:00,61.1,59.1,29.84,SSE,163,0.0,0.0,93,0.00,,---,0.00,VWS V14.01,2013-02-05 10:18:00,
2013-02-05 04:19:00,61.1,59.1,29.84,SSE,163,0.0,0.0,93,0.00,,---,0.00,VWS V14.01,2013-02-05 10:19:00,
2013-02-05 04:20:00,61.0,59.0,29.84,SSE,163,0.0,0.0,93,0.00,,---,0.00,VWS V14.01,2013-02-05 10:20:00,
2013-02-05 04:21:00,60.9,58.9,29.84,SSE,163,0.0,0.0,93,0.00,,---,0.00,VWS V14.01,2013-02-05 10:21:00,
2013-02-05 04:22:00,60.9,58.9,29.84,SSE,163,0.0,0.0,93,0.00,,---,0.00,VWS V14.01,2013-02-05 10:22:00,
2013-02-05 04:23:00,60.8,58.8,29.84,SSE,163,0.0,0.0,93,0.00,,---,0.00,VWS V14.01,2013-02-05 10:23:00,
2013-02-05 04:24:00,60.8,58.8,29.84,SSE,163,0.0,0.0,93,0.00,,---,0.00,VWS V14.01,2013-02-05 10:24:00,
2013-02-05 04:25:00,60.7,58.7,29.84,SSE,163,0.0,0.0,93,0.00,,---,0.00,VWS V14.01,2013-02-05 10:25:00,
2013-02-05 04:26:00,60.7,58.7,29.84,SSE,163,0.0,0.0,93,0.00,,---,0.00,VWS V14.01,2013-02-05 10:26:00,
2013-02-05 04:27:00,60.6,58.6,29.84,SSE,163,0.0,0.0,93,0.00,,---,0.00,VWS V14.01,2013-02-05 10:27:00,
2013-02-05 04:28:00,60.6,58.6,29.84,SSE,163,0.0,0.0,93,0.00,,---,0.00,VWS V14.01,2013-02-05 10:28:00,
2013-02-05 04:29:00,60.5,58.5,29.84,SSE,163,0.0,0.0,93,0.00,,---,0.00,VWS V14.01,2013-02-05 10:29:00,
2013-02-05 04:30:00,60.5,58.5,29.84,SSE,163,0.0,0.0,93,0.00,,---,0.00,VWS V14.01,2013-02-05 10:30:00,
2013-02-05 04:31:00,60.5,58.5,29.84,SSE,163,0.0,0.0,93,0.00,,---,0.00,VWS V14.01,2013-02-05 10:31:00,
2013-02-05 04:32:00,60.4,58.4,29.84,SSE,163,0.0,0.0,93,0.00,,---,0.00,VWS V14.01,2013-02-05 10:32:00,
2013-02-05 04:33:00,60.4,58.4,29.84,SSE,163,0.0,0.0,93,0.00,,---,0.00,VWS V14.01,2013-02-05 10:33:00,
2013-02-05 04:34:00,60.3,58.3,29.84,SSE,163,0.0,0.0,93,0.00,,---,0.00,VWS V14.01,2013-02-05 10:34:00,
2013-02-05 04:35:00,60.3,58.3,29.84,SSE,163,0.0,0.0,93,0.00,,---,0.00,VWS V14.01,2013-02-05 10:35:00,
2013-02-05 04:36:00,60.3,58.3,29.84,SSE,163,0.0,0.0,93,0.00,,---,0.00,VWS V14.01,2013-02-05 10:36:00,
2013-02-05 04:37:00,60.2,58.2,29.84,SSE,163,0.0,0.0,93,0.00,,---,0.00,VWS V14.01,2013-02-05 10:37:00,
2013-02-05 04:38:00,60.2,58.2,29.84,SSE,163,0.0,0.0,93,0.00,,---,0.00,VWS V14.01,2013-02-05 10:38:00,
2013-02-05 04:39:00,60.2,58.2,29.84,SSE,163,0.0,0.0,93,0.00,,---,0.00,VWS V14.01,2013-02-05 10:39:00,
2013-02-05 04:40:00,60.2,58.2,29.84,SSE,163,0.0,0.0,93,0.00,,---,0.00,VWS V14.01,2013-02-05 10:40:00,
2013-02-05 04:41:00,60.2,58.2,29.84,SSE,163,0.0,0.0,93,0.00,,---,0.00,VWS V14.01,2013-02-05 10:41:00,
2013-02-05 04:42:00,60.2,58.2,29.84,SSE,163,0.0,0.0,93,0.00,,---,0.00,VWS V14.01,2013-02-05 10:42:00,
2013-02-05 04:43:00,60.2,58.2,29.84,SSE,163,0.0,0.0,93,0.00,,---,0.00,VWS V14.01,2013-02-05 10:43:00,
2013-02-05 04:44:00,60.2,58.2,29.84,SSE,163,0.0,0.0,93,0.00,,---,0.00,VWS V14.01,2013-02-05 10:44:00,
2013-02-05 04:45:00,60.3,58.3,29.84,SSE,163,0.0,0.0,93,0.00,,---,0.00,VWS V14.01,2013-02-05 10:45:00,
2013-02-05 04:46:00,60.3,58.6,29.84,SSE,163,0.0,0.0,94,0.00,,---,0.00,VWS V14.01,2013-02-05 10:46:00,
2013-02-05 04:47:00,60.3,58.6,29.84,SSE,163,0.0,0.0,94,0.00,,---,0.00,VWS V14.01,2013-02-05 10:47:00,
2013-02-05 04:48:00,60.3,58.3,29.84,SSE,163,0.0,0.0,93,0.00,,---,0.00,VWS V14.01,2013-02-05 10:48:00,
2013-02-05 04:49:00,60.3,58.3,29.84,SSE,163,0.0,0.0,93,0.00,,---,0.00,VWS V14.01,2013-02-05 10:49:00,
2013-02-05 04:50:00,60.3,58.6,29.84,SSE,163,0.0,0.0,94,0.00,,---,0.00,VWS V14.01,2013-02-05 10:50:00,
2013-02-05 04:51:00,60.3,58.6,29.84,SSE,163,0.0,0.0,94,0.00,,---,0.00,VWS V14.01,2013-02-05 10:51:00,
2013-02-05 04:52:00,60.3,58.3,29.84,SSE,163,0.0,0.0,93,0.00,,---,0.00,VWS V14.01,2013-02-05 10:52:00,
2013-02-05 04:53:00,60.3,58.3,29.84,SSE,163,0.0,0.0,93,0.00,,---,0.00,VWS V14.01,2013-02-05 10:53:00,
2013-02-05 04:54:00,60.3,58.3,29.84,SSE,163,0.0,0.0,93,0.00,,---,0.00,VWS V14.01,2013-02-05 10:54:00,
2013-02-05 04:55:00,60.3,58.3,29.84,SSE,163,0.0,0.0,93,0.00,,---,0.00,VWS V14.01,2013-02-05 10:55:00,
2013-02-05 04:56:00,60.3,58.3,29.84,SSE,163,0.0,0.0,93,0.00,,---,0.00,VWS V14.01,2013-02-05 10:56:00,
2013-02-05 04:57:00,60.3,58.3,29.84,SSE,163,0.0,0.0,93,0.00,,---,0.00,VWS V14.01,2013-02-05 10:57:00,
2013-02-05 04:58:00,60.2,58.2,29.84,SSE,163,0.0,0.0,93,0.00,,---,0.00,VWS V14.01,2013-02-05 10:58:00,
2013-02-05 04:59:00,60.2,58.2,29.84,SSE,163,0.0,0.0,93,0.00,,---,0.00,VWS V14.01,2013-02-05 10:59:00,
2013-02-05 05:00:00,60.2,58.2,29.84,SSE,163,0.0,0.0,93,0.00,,---,0.00,VWS V14.01,2013-02-05 11:00:00,
2013-02-05 05:01:00,60.2,58.2,29.84,SSE,163,0.0,0.0,93,0.00,,---,0.00,VWS V14.01,2013-02-05 11:01:00,
2013-02-05 05:02:00,60.1,58.1,29.84,SSE,163,0.0,0.0,93,0.00,,---,0.00,VWS V14.01,2013-02-05 11:02:00,
2013-02-05 05:03:00,60.1,58.1,29.84,SSE,163,0.0,0.0,93,0.00,,---,0.00,VWS V14.01,2013-02-05 11:03:00,
2013-02-05 05:04:00,60.1,58.1,29.84,SSE,163,0.0,0.0,93,0.00,,---,0.00,VWS V14.01,2013-02-05 11:04:00,
2013-02-05 05:05:00,60.0,58.0,29.84,SSE,163,0.0,0.0,93,0.00,,---,0.00,VWS V14.01,2013-02-05 11:05:00,
2013-02-05 05:06:00,60.0,58.0,29.84,SSE,163,0.0,0.0,93,0.00,,---,0.00,VWS V14.01,2013-02-05 11:06:00,
2013-02-05 05:07:00,60.0,58.0,29.84,SSE,163,0.0,0.0,93,0.00,,---,0.00,VWS V14.01,2013-02-05 11:07:00,
2013-02-05 05:08:00,59.9,57.9,29.85,SSE,163,0.0,0.0,93,0.00,,---,0.00,VWS V14.01,2013-02-05 11:08:00,
2013-02-05 05:09:00,59.9,57.9,29.84,SSE,163,0.0,0.0,93,0.00,,---,0.00,VWS V14.01,2013-02-05 11:09:00,
2013-02-05 05:10:00,59.9,57.9,29.85,SSE,163,0.0,0.0,93,0.00,,---,0.00,VWS V14.01,2013-02-05 11:10:00,
2013-02-05 05:11:00,59.8,57.8,29.84,SSE,163,0.0,0.0,93,0.00,,---,0.00,VWS V14.01,2013-02-05 11:11:00,
2013-02-05 05:12:00,59.8,57.8,29.85,SSE,163,0.0,0.0,93,0.00,,---,0.00,VWS V14.01,2013-02-05 11:12:00,
2013-02-05 05:13:00,59.8,57.8,29.85,SSE,163,0.0,0.0,93,0.00,,---,0.00,VWS V14.01,2013-02-05 11:13:00,
2013-02-05 05:14:00,59.8,57.8,29.85,SSE,163,0.0,0.0,93,0.00,,---,0.00,VWS V14.01,2013-02-05 11:14:00,
2013-02-05 05:15:00,59.8,57.8,29.85,SSE,163,0.0,0.0,93,0.00,,---,0.00,VWS V14.01,2013-02-05 11:15:00,
2013-02-05 05:16:00,59.8,57.8,29.85,SSE,163,0.0,0.0,93,0.00,,---,0.00,VWS V14.01,2013-02-05 11:16:00,
2013-02-05 05:17:00,59.8,57.8,29.85,SSE,163,0.0,0.0,93,0.00,,---,0.00,VWS V14.01,2013-02-05 11:17:00,
2013-02-05 05:18:00,59.7,57.7,29.85,SSE,163,0.0,0.0,93,0.00,,---,0.00,VWS V14.01,2013-02-05 11:18:00,
2013-02-05 05:19:00,59.7,57.7,29.84,SSE,163,0.0,0.0,93,0.00,,---,0.00,VWS V14.01,2013-02-05 11:19:00,
2013-02-05 05:20:00,59.7,57.7,29.85,SSE,163,0.0,0.0,93,0.00,,---,0.00,VWS V14.01,2013-02-05 11:20:00,
2013-02-05 05:21:00,59.8,57.8,29.85,SSE,163,0.0,0.0,93,0.00,,---,0.00,VWS V14.01,2013-02-05 11:21:00,
2013-02-05 05:22:00,59.8,57.8,29.85,SSE,163,0.0,0.0,93,0.00,,---,0.00,VWS V14.01,2013-02-05 11:22:00,
2013-02-05 05:23:00,59.8,57.8,29.85,SSE,163,0.0,0.0,93,0.00,,---,0.00,VWS V14.01,2013-02-05 11:23:00,
2013-02-05 05:24:00,59.8,58.1,29.85,SSE,163,0.0,0.0,94,0.00,,---,0.00,VWS V14.01,2013-02-05 11:24:00,
2013-02-05 05:25:00,59.8,57.8,29.85,SSE,163,0.0,0.0,93,0.00,,---,0.00,VWS V14.01,2013-02-05 11:25:00,
2013-02-05 05:26:00,59.8,58.1,29.85,SSE,163,0.0,0.0,94,0.00,,---,0.00,VWS V14.01,2013-02-05 11:26:00,
2013-02-05 05:27:00,59.8,58.1,29.85,SSE,163,0.0,0.0,94,0.00,,---,0.00,VWS V14.01,2013-02-05 11:27:00,
2013-02-05 05:28:00,59.8,58.1,29.85,SSE,163,0.0,0.0,94,0.00,,---,0.00,VWS V14.01,2013-02-05 11:28:00,
2013-02-05 05:29:00,59.9,58.2,29.85,SSE,163,0.0,0.0,94,0.00,,---,0.00,VWS V14.01,2013-02-05 11:29:00,
2013-02-05 05:30:00,59.9,58.2,29.85,SSE,163,0.0,0.0,94,0.00,,---,0.00,VWS V14.01,2013-02-05 11:30:00,
2013-02-05 05:31:00,59.9,58.2,29.85,SSE,163,0.0,0.0,94,0.00,,---,0.00,VWS V14.01,2013-02-05 11:31:00,
2013-02-05 05:32:00,60.0,58.3,29.85,SSE,163,0.0,0.0,94,0.00,,---,0.00,VWS V14.01,2013-02-05 11:32:00,
2013-02-05 05:33:00,59.9,58.2,29.85,SSE,163,0.0,0.0,94,0.00,,---,0.00,VWS V14.01,2013-02-05 11:33:00,
2013-02-05 05:34:00,59.9,58.2,29.85,SSE,163,0.0,0.0,94,0.00,,---,0.00,VWS V14.01,2013-02-05 11:34:00,
2013-02-05 05:35:00,60.0,58.3,29.85,SSE,163,0.0,0.0,94,0.00,,---,0.00,VWS V14.01,2013-02-05 11:35:00,
2013-02-05 05:36:00,60.0,58.3,29.85,SSE,163,0.0,0.0,94,0.00,,---,0.00,VWS V14.01,2013-02-05 11:36:00,
2013-02-05 05:37:00,60.0,58.3,29.85,SSE,163,0.0,0.0,94,0.00,,---,0.00,VWS V14.01,2013-02-05 11:37:00,
2013-02-05 05:38:00,60.0,58.3,29.85,SSE,163,0.0,0.0,94,0.00,,---,0.00,VWS V14.01,2013-02-05 11:38:00,
2013-02-05 05:39:00,60.0,58.3,29.85,SSE,163,0.0,0.0,94,0.00,,---,0.00,VWS V14.01,2013-02-05 11:39:00,
2013-02-05 05:40:00,60.0,58.3,29.85,SSE,163,0.0,0.0,94,0.00,,---,0.00,VWS V14.01,2013-02-05 11:40:00,
2013-02-05 05:41:00,60.0,58.3,29.85,SSE,163,0.0,0.0,94,0.00,,---,0.00,VWS V14.01,2013-02-05 11:41:00,
2013-02-05 05:42:00,60.0,58.3,29.85,SSE,163,0.0,0.0,94,0.00,,---,0.00,VWS V14.01,2013-02-05 11:42:00,
2013-02-05 05:43:00,60.1,58.4,29.85,SSE,163,0.0,0.0,94,0.00,,---,0.00,VWS V14.01,2013-02-05 11:43:00,
2013-02-05 05:44:00,60.1,58.4,29.85,SSE,163,0.0,0.0,94,0.00,,---,0.00,VWS V14.01,2013-02-05 11:44:00,
2013-02-05 05:45:00,60.1,58.4,29.85,SSE,163,0.0,0.0,94,0.00,,---,0.00,VWS V14.01,2013-02-05 11:45:00,
2013-02-05 05:46:00,60.1,58.4,29.86,SSE,163,0.0,0.0,94,0.00,,---,0.00,VWS V14.01,2013-02-05 11:46:00,
2013-02-05 05:47:00,60.1,58.4,29.86,SSE,163,0.0,0.0,94,0.00,,---,0.00,VWS V14.01,2013-02-05 11:47:00,
2013-02-05 05:48:00,60.2,58.5,29.86,SSE,163,0.0,0.0,94,0.00,,---,0.00,VWS V14.01,2013-02-05 11:48:00,
2013-02-05 05:49:00,60.2,58.5,29.86,SSE,163,0.0,0.0,94,0.00,,---,0.00,VWS V14.01,2013-02-05 11:49:00,
2013-02-05 05:50:00,60.2,58.5,29.86,SSE,163,0.0,0.0,94,0.00,,---,0.00,VWS V14.01,2013-02-05 11:50:00,
2013-02-05 05:51:00,60.2,58.5,29.86,SSE,163,0.0,0.0,94,0.00,,---,0.00,VWS V14.01,2013-02-05 11:51:00,
2013-02-05 05:52:00,60.2,58.5,29.86,SSE,163,0.0,0.0,94,0.00,,---,0.00,VWS V14.01,2013-02-05 11:52:00,
2013-02-05 05:53:00,60.2,58.5,29.86,SSE,163,0.0,0.0,94,0.00,,---,0.00,VWS V14.01,2013-02-05 11:53:00,
2013-02-05 05:54:00,60.2,58.5,29.86,SSE,163,0.0,0.0,94,0.00,,---,0.00,VWS V14.01,2013-02-05 11:54:00,
2013-02-05 05:55:00,60.2,58.5,29.86,SSE,163,0.0,0.0,94,0.00,,---,0.00,VWS V14.01,2013-02-05 11:55:00,
2013-02-05 05:56:00,60.2,58.5,29.86,SSE,163,0.0,0.0,94,0.00,,---,0.00,VWS V14.01,2013-02-05 11:56:00,
2013-02-05 05:57:00,60.1,58.4,29.86,SSE,163,0.0,0.0,94,0.00,,---,0.00,VWS V14.01,2013-02-05 11:57:00,
2013-02-05 05:58:00,60.1,58.4,29.86,SSE,163,0.0,0.0,94,0.00,,---,0.00,VWS V14.01,2013-02-05 11:58:00,
2013-02-05 05:59:00,60.1,58.4,29.86,SSE,163,0.0,0.0,94,0.00,,---,0.00,VWS V14.01,2013-02-05 11:59:00,
2013-02-05 06:00:00,60.1,58.4,29.86,SSE,163,0.0,0.0,94,0.00,,---,0.00,VWS V14.01,2013-02-05 12:00:00,
2013-02-05 06:01:00,60.0,58.3,29.86,SSE,163,0.0,0.0,94,0.00,,---,0.00,VWS V14.01,2013-02-05 12:01:00,
2013-02-05 06:02:00,60.0,58.3,29.86,SSE,163,0.0,0.0,94,0.00,,---,0.00,VWS V14.01,2013-02-05 12:02:00,
2013-02-05 06:03:00,60.0,58.3,29.86,SSE,163,0.0,0.0,94,0.00,,---,0.00,VWS V14.01,2013-02-05 12:03:00,
2013-02-05 06:04:00,60.0,58.3,29.86,SSE,163,0.0,0.0,94,0.00,,---,0.00,VWS V14.01,2013-02-05 12:04:00,
2013-02-05 06:05:00,60.0,58.3,29.86,SSE,163,0.0,0.0,94,0.00,,---,0.00,VWS V14.01,2013-02-05 12:05:00,
2013-02-05 06:06:00,60.1,58.4,29.86,SSE,163,0.0,0.0,94,0.00,,---,0.00,VWS V14.01,2013-02-05 12:06:00,
2013-02-05 06:07:00,60.1,58.4,29.86,SSE,163,0.0,0.0,94,0.00,,---,0.00,VWS V14.01,2013-02-05 12:07:00,
2013-02-05 06:08:00,60.1,58.4,29.86,SSE,163,0.0,0.0,94,0.00,,---,0.00,VWS V14.01,2013-02-05 12:08:00,
2013-02-05 06:09:00,60.1,58.4,29.86,SSE,163,0.0,0.0,94,0.00,,---,0.00,VWS V14.01,2013-02-05 12:09:00,
2013-02-05 06:10:00,60.2,58.5,29.86,SSE,163,0.0,0.0,94,0.00,,---,0.00,VWS V14.01,2013-02-05 12:10:00,
2013-02-05 06:11:00,60.2,58.5,29.86,SSE,163,0.0,0.0,94,0.00,,---,0.00,VWS V14.01,2013-02-05 12:11:00,
2013-02-05 06:12:00,60.2,58.5,29.86,SSE,163,0.0,1.0,94,0.00,,---,0.00,VWS V14.01,2013-02-05 12:12:00,
2013-02-05 06:13:00,60.3,58.6,29.86,SSE,152,1.0,2.0,94,0.00,,---,0.00,VWS V14.01,2013-02-05 12:13:00,
2013-02-05 06:14:00,60.3,58.6,29.86,SSE,152,0.0,1.0,94,0.00,,---,0.00,VWS V14.01,2013-02-05 12:14:00,
2013-02-05 06:15:00,60.3,58.6,29.86,SSE,152,0.0,1.0,94,0.00,,---,0.00,VWS V14.01,2013-02-05 12:15:00,
2013-02-05 06:16:00,60.3,58.6,29.86,SSE,152,0.0,1.0,94,0.00,,---,0.00,VWS V14.01,2013-02-05 12:16:00,
2013-02-05 06:17:00,60.3,58.6,29.85,SSE,152,0.0,1.0,94,0.00,,---,0.00,VWS V14.01,2013-02-05 12:17:00,
2013-02-05 06:18:00,60.3,58.6,29.85,SSE,152,0.0,1.0,94,0.00,,---,0.00,VWS V14.01,2013-02-05 12:18:00,
2013-02-05 06:19:00,60.4,58.7,29.86,SSE,152,0.0,0.0,94,0.00,,---,0.00,VWS V14.01,2013-02-05 12:19:00,
2013-02-05 06:20:00,60.4,58.7,29.86,SSE,152,0.0,0.0,94,0.00,,---,0.00,VWS V14.01,2013-02-05 12:20:00,
2013-02-05 06:21:00,60.4,58.7,29.86,SSE,152,0.0,0.0,94,0.00,,---,0.00,VWS V14.01,2013-02-05 12:21:00,
2013-02-05 06:22:00,60.4,58.7,29.86,SSE,152,0.0,0.0,94,0.00,,---,0.00,VWS V14.01,2013-02-05 12:22:00,
2013-02-05 06:23:00,60.5,58.8,29.86,SSE,152,0.0,0.0,94,0.00,,---,0.00,VWS V14.01,2013-02-05 12:23:00,
2013-02-05 06:24:00,60.5,58.8,29.86,SSE,152,0.0,0.0,94,0.00,,---,0.00,VWS V14.01,2013-02-05 12:24:00,
2013-02-05 06:25:00,60.5,58.8,29.86,SSE,152,0.0,0.0,94,0.00,,---,0.00,VWS V14.01,2013-02-05 12:25:00,
2013-02-05 06:26:00,60.5,58.8,29.86,SSE,150,0.0,2.0,94,0.00,,---,0.00,VWS V14.01,2013-02-05 12:26:00,
2013-02-05 06:27:00,60.6,58.9,29.86,SSE,150,0.0,0.0,94,0.00,,---,0.00,VWS V14.01,2013-02-05 12:27:00,
2013-02-05 06:28:00,60.6,58.9,29.86,SSE,150,0.0,0.0,94,0.00,,---,0.00,VWS V14.01,2013-02-05 12:28:00,
2013-02-05 06:29:00,60.6,58.9,29.86,SSE,150,0.0,0.0,94,0.00,,---,0.00,VWS V14.01,2013-02-05 12:29:00,
2013-02-05 06:30:00,60.7,59.0,29.86,SSE,150,0.0,0.0,94,0.00,,---,0.00,VWS V14.01,2013-02-05 12:30:00,
2013-02-05 06:31:00,60.6,58.9,29.86,SSE,150,0.0,0.0,94,0.00,,---,0.00,VWS V14.01,2013-02-05 12:31:00,
2013-02-05 06:32:00,60.7,59.0,29.86,SSE,150,0.0,0.0,94,0.00,,---,0.00,VWS V14.01,2013-02-05 12:32:00,
2013-02-05 06:33:00,60.6,58.9,29.86,SSE,150,0.0,0.0,94,0.00,,---,0.00,VWS V14.01,2013-02-05 12:33:00,
2013-02-05 06:34:00,60.6,58.9,29.86,SSE,150,0.0,0.0,94,0.00,,---,0.00,VWS V14.01,2013-02-05 12:34:00,
2013-02-05 06:35:00,60.6,58.9,29.86,SSE,150,0.0,0.0,94,0.00,,---,0.00,VWS V14.01,2013-02-05 12:35:00,
2013-02-05 06:36:00,60.6,58.9,29.86,SSE,150,0.0,0.0,94,0.00,,---,0.00,VWS V14.01,2013-02-05 12:36:00,
2013-02-05 06:37:00,60.5,58.8,29.86,SSE,150,0.0,0.0,94,0.00,,---,0.00,VWS V14.01,2013-02-05 12:37:00,
2013-02-05 06:38:00,60.5,58.8,29.86,SSE,150,0.0,0.0,94,0.00,,---,0.00,VWS V14.01,2013-02-05 12:38:00,
2013-02-05 06:39:00,60.5,58.8,29.86,SSE,150,0.0,0.0,94,0.00,,---,0.00,VWS V14.01,2013-02-05 12:39:00,
2013-02-05 06:40:00,60.4,58.7,29.86,SSE,150,0.0,0.0,94,0.00,,---,0.00,VWS V14.01,2013-02-05 12:40:00,
2013-02-05 06:41:00,60.4,58.7,29.86,SSE,150,0.0,0.0,94,0.00,,---,0.00,VWS V14.01,2013-02-05 12:41:00,
2013-02-05 06:42:00,60.3,58.6,29.87,SSE,150,0.0,0.0,94,0.00,,---,0.00,VWS V14.01,2013-02-05 12:42:00,
2013-02-05 06:43:00,60.3,58.6,29.87,SSE,150,0.0,0.0,94,0.00,,---,0.00,VWS V14.01,2013-02-05 12:43:00,
2013-02-05 06:44:00,60.3,58.6,29.87,SSE,150,0.0,0.0,94,0.00,,---,0.00,VWS V14.01,2013-02-05 12:44:00,
2013-02-05 06:45:00,60.2,58.5,29.87,SSE,150,0.0,0.0,94,0.00,,---,0.00,VWS V14.01,2013-02-05 12:45:00,
2013-02-05 06:46:00,60.2,58.5,29.87,SSE,150,0.0,0.0,94,0.00,,---,0.00,VWS V14.01,2013-02-05 12:46:00,
2013-02-05 06:47:00,60.2,58.5,29.87,SSE,150,0.0,0.0,94,0.00,,---,0.00,VWS V14.01,2013-02-05 12:47:00,
2013-02-05 06:48:00,60.2,58.5,29.87,SSE,150,0.0,0.0,94,0.00,,---,0.00,VWS V14.01,2013-02-05 12:48:00,
2013-02-05 06:49:00,60.2,58.5,29.87,SSE,150,0.0,0.0,94,0.00,,---,0.00,VWS V14.01,2013-02-05 12:49:00,
2013-02-05 06:50:00,60.2,58.5,29.87,SSE,150,0.0,0.0,94,0.00,,---,0.00,VWS V14.01,2013-02-05 12:50:00,
2013-02-05 06:51:00,60.2,58.5,29.87,SSE,150,0.0,0.0,94,0.00,,---,0.00,VWS V14.01,2013-02-05 12:51:00,
2013-02-05 06:52:00,60.2,58.5,29.87,SSE,150,0.0,0.0,94,0.00,,---,0.00,VWS V14.01,2013-02-05 12:52:00,
2013-02-05 06:53:00,60.2,58.5,29.87,SSE,150,0.0,0.0,94,0.00,,---,0.00,VWS V14.01,2013-02-05 12:53:00,
2013-02-05 06:54:00,60.2,58.5,29.87,SSE,150,0.0,0.0,94,0.00,,---,0.00,VWS V14.01,2013-02-05 12:54:00,
2013-02-05 06:55:00,60.3,58.6,29.87,SSE,150,0.0,0.0,94,0.00,,---,0.00,VWS V14.01,2013-02-05 12:55:00,
2013-02-05 06:56:00,60.3,58.6,29.87,SSE,150,0.0,0.0,94,0.00,,---,0.00,VWS V14.01,2013-02-05 12:56:00,
2013-02-05 06:57:00,60.3,58.6,29.87,SSE,150,0.0,0.0,94,0.00,,---,0.00,VWS V14.01,2013-02-05 12:57:00,
2013-02-05 06:58:00,60.4,58.7,29.87,SSE,150,1.0,2.0,94,0.00,,---,0.00,VWS V14.01,2013-02-05 12:58:00,
2013-02-05 06:59:00,60.4,58.7,29.87,SSE,150,0.0,1.0,94,0.00,,---,0.00,VWS V14.01,2013-02-05 12:59:00,
2013-02-05 07:00:00,60.4,58.7,29.87,SSE,150,0.0,2.0,94,0.00,,---,0.00,VWS V14.01,2013-02-05 13:00:00,
2013-02-05 07:01:00,60.5,58.8,29.87,SSE,150,0.0,0.0,94,0.00,,---,0.00,VWS V14.01,2013-02-05 13:01:00,
2013-02-05 07:02:00,60.4,58.7,29.88,SSE,150,0.0,1.0,94,0.00,,---,0.00,VWS V14.01,2013-02-05 13:02:00,
2013-02-05 07:03:00,60.5,58.8,29.88,SSE,150,0.0,0.0,94,0.00,,---,0.00,VWS V14.01,2013-02-05 13:03:00,
2013-02-05 07:04:00,60.5,58.8,29.88,SSE,150,0.0,0.0,94,0.00,,---,0.00,VWS V14.01,2013-02-05 13:04:00,
2013-02-05 07:05:00,60.5,58.8,29.88,SSE,150,0.0,0.0,94,0.00,,---,0.00,VWS V14.01,2013-02-05 13:05:00,
2013-02-05 07:06:00,60.5,58.8,29.88,SSE,150,0.0,0.0,94,0.00,,---,0.00,VWS V14.01,2013-02-05 13:06:00,
2013-02-05 07:07:00,60.5,58.8,29.88,SSE,150,0.0,0.0,94,0.00,,---,0.00,VWS V14.01,2013-02-05 13:07:00,
2013-02-05 07:08:00,60.5,58.8,29.88,SSE,150,0.0,0.0,94,0.00,,---,0.00,VWS V14.01,2013-02-05 13:08:00,
2013-02-05 07:09:00,60.5,58.8,29.88,SSE,150,0.0,0.0,94,0.00,,---,0.00,VWS V14.01,2013-02-05 13:09:00,
2013-02-05 07:10:00,60.5,58.8,29.88,SSE,150,0.0,0.0,94,0.00,,---,0.00,VWS V14.01,2013-02-05 13:10:00,
2013-02-05 07:11:00,60.5,58.8,29.88,SSE,150,0.0,0.0,94,0.00,,---,0.00,VWS V14.01,2013-02-05 13:11:00,
2013-02-05 07:12:00,60.5,58.8,29.88,SSE,150,0.0,0.0,94,0.00,,---,0.00,VWS V14.01,2013-02-05 13:12:00,
2013-02-05 07:13:00,60.5,58.8,29.88,SSE,150,0.0,0.0,94,0.00,,---,0.00,VWS V14.01,2013-02-05 13:13:00,
2013-02-05 07:14:00,60.5,58.8,29.88,SSE,150,0.0,0.0,94,0.00,,---,0.00,VWS V14.01,2013-02-05 13:14:00,
2013-02-05 07:15:00,60.5,58.8,29.88,SSE,150,0.0,0.0,94,0.00,,---,0.00,VWS V14.01,2013-02-05 13:15:00,
2013-02-05 07:16:00,60.4,58.7,29.88,SSE,150,0.0,0.0,94,0.00,,---,0.00,VWS V14.01,2013-02-05 13:16:00,
2013-02-05 07:17:00,60.4,58.7,29.88,SSE,150,2.0,2.0,94,0.00,,---,0.00,VWS V14.01,2013-02-05 13:17:00,
2013-02-05 07:18:00,60.4,58.7,29.88,SSE,150,0.0,2.0,94,0.00,,---,0.00,VWS V14.01,2013-02-05 13:18:00,
2013-02-05 07:19:00,60.4,58.7,29.88,SSE,150,0.0,0.0,94,0.00,,---,0.00,VWS V14.01,2013-02-05 13:19:00,
2013-02-05 07:20:00,60.3,58.6,29.88,SSE,150,0.0,0.0,94,0.00,,---,0.00,VWS V14.01,2013-02-05 13:20:00,
2013-02-05 07:21:00,60.3,58.6,29.88,SSE,150,0.0,0.0,94,0.00,,---,0.00,VWS V14.01,2013-02-05 13:21:00,
2013-02-05 07:22:00,60.3,58.6,29.88,SSE,150,0.0,0.0,94,0.00,,---,0.00,VWS V14.01,2013-02-05 13:22:00,
2013-02-05 07:23:00,60.3,58.6,29.88,SSE,150,0.0,0.0,94,0.00,,---,0.00,VWS V14.01,2013-02-05 13:23:00,
2013-02-05 07:24:00,60.3,58.6,29.88,SSE,150,0.0,0.0,94,0.00,,---,0.00,VWS V14.01,2013-02-05 13:24:00,
2013-02-05 07:25:00,60.3,58.6,29.88,SSE,150,2.0,3.0,94,0.00,,---,0.00,VWS V14.01,2013-02-05 13:25:00,
2013-02-05 07:26:00,60.3,58.6,29.88,SSE,150,1.0,3.0,94,0.00,,---,0.00,VWS V14.01,2013-02-05 13:26:00,
2013-02-05 07:27:00,60.3,58.6,29.88,SSE,150,3.0,3.0,94,0.00,,---,0.00,VWS V14.01,2013-02-05 13:27:00,
2013-02-05 07:28:00,60.3,58.6,29.88,SSE,150,2.0,3.0,94,0.00,,---,0.00,VWS V14.01,2013-02-05 13:28:00,
2013-02-05 07:29:00,60.3,58.6,29.88,SSE,150,2.0,3.0,94,0.00,,---,0.00,VWS V14.01,2013-02-05 13:29:00,
2013-02-05 07:30:00,60.4,58.7,29.88,SSE,150,3.0,3.0,94,0.00,,---,0.00,VWS V14.01,2013-02-05 13:30:00,
2013-02-05 07:31:00,60.4,59.0,29.88,SSE,150,0.0,3.0,95,0.00,,---,0.00,VWS V14.01,2013-02-05 13:31:00,
2013-02-05 07:32:00,60.5,58.8,29.88,SSE,150,1.0,1.0,94,0.00,,---,0.00,VWS V14.01,2013-02-05 13:32:00,
2013-02-05 07:33:00,60.5,59.1,29.88,SSE,150,1.0,2.0,95,0.00,,---,0.00,VWS V14.01,2013-02-05 13:33:00,
2013-02-05 07:34:00,60.5,59.1,29.88,SSE,151,0.0,1.0,95,0.00,,---,0.00,VWS V14.01,2013-02-05 13:34:00,
2013-02-05 07:35:00,60.5,58.8,29.88,SSE,150,1.0,2.0,94,0.00,,---,0.00,VWS V14.01,2013-02-05 13:35:00,
2013-02-05 07:36:00,60.5,58.8,29.88,SSE,151,0.0,1.0,94,0.00,,---,0.00,VWS V14.01,2013-02-05 13:36:00,
2013-02-05 07:37:00,60.5,58.8,29.88,SSE,151,0.0,0.0,94,0.00,,---,0.00,VWS V14.01,2013-02-05 13:37:00,
2013-02-05 07:38:00,60.5,58.8,29.88,SSE,151,0.0,0.0,94,0.00,,---,0.00,VWS V14.01,2013-02-05 13:38:00,
2013-02-05 07:39:00,60.5,58.8,29.88,SSE,150,0.0,0.0,94,0.00,,---,0.00,VWS V14.01,2013-02-05 13:39:00,
2013-02-05 07:40:00,60.5,58.8,29.88,SSE,150,0.0,0.0,94,0.00,,---,0.00,VWS V14.01,2013-02-05 13:40:00,
2013-02-05 07:41:00,60.5,58.8,29.88,SSE,150,0.0,0.0,94,0.00,,---,0.00,VWS V14.01,2013-02-05 13:41:00,
2013-02-05 07:42:00,60.5,58.8,29.88,SSE,151,0.0,0.0,94,0.00,,---,0.00,VWS V14.01,2013-02-05 13:42:00,
2013-02-05 07:43:00,60.5,58.8,29.88,SSE,151,0.0,0.0,94,0.00,,---,0.00,VWS V14.01,2013-02-05 13:43:00,
2013-02-05 07:44:00,60.5,58.8,29.89,SSE,150,0.0,0.0,94,0.00,,---,0.00,VWS V14.01,2013-02-05 13:44:00,
2013-02-05 07:45:00,60.5,58.8,29.89,SSE,151,0.0,0.0,94,0.00,,---,0.00,VWS V14.01,2013-02-05 13:45:00,
2013-02-05 07:46:00,60.6,58.9,29.89,SSE,151,0.0,0.0,94,0.00,,---,0.00,VWS V14.01,2013-02-05 13:46:00,
2013-02-05 07:47:00,60.6,58.9,29.89,SSE,151,0.0,0.0,94,0.00,,---,0.00,VWS V14.01,2013-02-05 13:47:00,
2013-02-05 07:48:00,60.6,58.9,29.89,SSE,151,0.0,0.0,94,0.00,,---,0.00,VWS V14.01,2013-02-05 13:48:00,
2013-02-05 07:49:00,60.6,58.9,29.89,SSE,151,0.0,0.0,94,0.00,,---,0.00,VWS V14.01,2013-02-05 13:49:00,
2013-02-05 07:50:00,60.7,59.3,29.89,SSE,150,0.0,0.0,95,0.00,,---,0.00,VWS V14.01,2013-02-05 13:50:00,
2013-02-05 07:51:00,60.7,59.3,29.89,SSE,151,0.0,0.0,95,0.00,,---,0.00,VWS V14.01,2013-02-05 13:51:00,
2013-02-05 07:52:00,60.7,59.3,29.89,SSE,151,0.0,0.0,95,0.00,,---,0.00,VWS V14.01,2013-02-05 13:52:00,
2013-02-05 07:53:00,60.8,59.4,29.89,SSE,151,0.0,0.0,95,0.00,,---,0.00,VWS V14.01,2013-02-05 13:53:00,
2013-02-05 07:54:00,60.8,59.4,29.89,SSE,151,0.0,0.0,95,0.00,,---,0.00,VWS V14.01,2013-02-05 13:54:00,
2013-02-05 07:55:00,60.8,59.4,29.89,SSE,150,0.0,0.0,95,0.00,,---,0.00,VWS V14.01,2013-02-05 13:55:00,
2013-02-05 07:56:00,60.9,59.5,29.89,SSE,150,0.0,1.0,95,0.00,,---,0.00,VWS V14.01,2013-02-05 13:56:00,
2013-02-05 07:57:00,60.9,59.5,29.89,SSE,150,1.0,2.0,95,0.00,,---,0.00,VWS V14.01,2013-02-05 13:57:00,
2013-02-05 07:58:00,60.9,59.5,29.89,SSE,150,0.0,3.0,95,0.00,,---,0.00,VWS V14.01,2013-02-05 13:58:00,
2013-02-05 07:59:00,60.9,59.5,29.89,SSE,150,0.0,0.0,95,0.00,,---,0.00,VWS V14.01,2013-02-05 13:59:00,
2013-02-05 08:00:00,61.0,59.6,29.89,SSE,149,0.0,1.0,95,0.00,,---,0.00,VWS V14.01,2013-02-05 14:00:00,
2013-02-05 08:01:00,61.0,59.6,29.89,SSE,150,0.0,1.0,95,0.00,,---,0.00,VWS V14.01,2013-02-05 14:01:00,
2013-02-05 08:02:00,61.1,59.7,29.89,SSE,150,0.0,0.0,95,0.00,,---,0.00,VWS V14.01,2013-02-05 14:02:00,
2013-02-05 08:03:00,61.1,59.7,29.89,SSE,150,0.0,1.0,95,0.00,,---,0.00,VWS V14.01,2013-02-05 14:03:00,
2013-02-05 08:04:00,61.1,59.7,29.89,SSE,150,0.0,0.0,95,0.00,,---,0.00,VWS V14.01,2013-02-05 14:04:00,
2013-02-05 08:05:00,61.2,59.8,29.89,SSE,150,0.0,0.0,95,0.00,,---,0.00,VWS V14.01,2013-02-05 14:05:00,
2013-02-05 08:06:00,61.3,59.9,29.89,SSE,150,2.0,2.0,95,0.00,,---,0.00,VWS V14.01,2013-02-05 14:06:00,
2013-02-05 08:07:00,61.3,59.9,29.89,SSE,150,0.0,2.0,95,0.00,,---,0.00,VWS V14.01,2013-02-05 14:07:00,
2013-02-05 08:08:00,61.4,60.0,29.89,SSE,149,0.0,0.0,95,0.00,,---,0.00,VWS V14.01,2013-02-05 14:08:00,
2013-02-05 08:09:00,61.4,60.0,29.89,SSE,149,0.0,0.0,95,0.00,,---,0.00,VWS V14.01,2013-02-05 14:09:00,
2013-02-05 08:10:00,61.5,60.1,29.89,SSE,150,0.0,0.0,95,0.00,,---,0.00,VWS V14.01,2013-02-05 14:10:00,
2013-02-05 08:11:00,61.6,60.2,29.89,SSE,150,0.0,0.0,95,0.00,,---,0.00,VWS V14.01,2013-02-05 14:11:00,
2013-02-05 08:12:00,61.6,60.2,29.89,SSE,149,0.0,0.0,95,0.00,,---,0.00,VWS V14.01,2013-02-05 14:12:00,
2013-02-05 08:13:00,61.7,60.3,29.89,SSE,149,0.0,0.0,95,0.00,,---,0.00,VWS V14.01,2013-02-05 14:13:00,
2013-02-05 08:14:00,61.7,60.3,29.89,SSE,150,0.0,0.0,95,0.00,,---,0.00,VWS V14.01,2013-02-05 14:14:00,
2013-02-05 08:15:00,61.8,60.4,29.89,SSE,149,0.0,0.0,95,0.00,,---,0.00,VWS V14.01,2013-02-05 14:15:00,
2013-02-05 08:16:00,61.9,60.5,29.89,SSE,150,0.0,0.0,95,0.00,,---,0.00,VWS V14.01,2013-02-05 14:16:00,
2013-02-05 08:17:00,62.0,60.6,29.89,SSE,150,0.0,0.0,95,0.00,,---,0.00,VWS V14.01,2013-02-05 14:17:00,
2013-02-05 08:18:00,62.0,60.6,29.90,SSE,150,0.0,0.0,95,0.00,,---,0.00,VWS V14.01,2013-02-05 14:18:00,
2013-02-05 08:19:00,62.0,60.6,29.89,SSE,150,0.0,0.0,95,0.00,,---,0.00,VWS V14.01,2013-02-05 14:19:00,
2013-02-05 08:20:00,62.2,60.8,29.89,SSE,150,0.0,0.0,95,0.00,,---,0.00,VWS V14.01,2013-02-05 14:20:00,
2013-02-05 08:21:00,62.3,60.8,29.89,SSE,150,0.0,0.0,95,0.00,,---,0.00,VWS V14.01,2013-02-05 14:21:00,
2013-02-05 08:22:00,62.3,60.8,29.89,SSE,150,0.0,0.0,95,0.00,,---,0.00,VWS V14.01,2013-02-05 14:22:00,
2013-02-05 08:23:00,62.4,61.0,29.89,SSE,150,0.0,0.0,95,0.00,,---,0.00,VWS V14.01,2013-02-05 14:23:00,
2013-02-05 08:24:00,62.4,61.0,29.89,SSE,149,0.0,0.0,95,0.00,,---,0.00,VWS V14.01,2013-02-05 14:24:00,
2013-02-05 08:25:00,62.6,61.2,29.89,SSE,150,0.0,0.0,95,0.00,,---,0.00,VWS V14.01,2013-02-05 14:25:00,
2013-02-05 08:26:00,62.6,61.2,29.90,SSE,150,0.0,0.0,95,0.00,,---,0.00,VWS V14.01,2013-02-05 14:26:00,
2013-02-05 08:27:00,62.7,61.2,29.89,SSE,150,0.0,0.0,95,0.00,,---,0.00,VWS V14.01,2013-02-05 14:27:00,
2013-02-05 08:28:00,62.8,61.3,29.89,SSE,150,0.0,0.0,95,0.00,,---,0.00,VWS V14.01,2013-02-05 14:28:00,
2013-02-05 08:29:00,62.8,61.3,29.89,SSE,150,0.0,0.0,95,0.00,,---,0.00,VWS V14.01,2013-02-05 14:29:00,
2013-02-05 08:30:00,62.9,61.5,29.89,SSE,150,0.0,0.0,95,0.00,,---,0.00,VWS V14.01,2013-02-05 14:30:00,
2013-02-05 08:31:00,63.0,61.5,29.90,SSE,149,0.0,0.0,95,0.00,,---,0.00,VWS V14.01,2013-02-05 14:31:00,
2013-02-05 08:32:00,63.1,61.7,29.90,SSE,150,0.0,0.0,95,0.00,,---,0.00,VWS V14.01,2013-02-05 14:32:00,
2013-02-05 08:33:00,63.1,61.7,29.90,SSE,150,0.0,0.0,95,0.00,,---,0.00,VWS V14.01,2013-02-05 14:33:00,
2013-02-05 08:34:00,63.1,61.7,29.90,SSE,150,0.0,0.0,95,0.00,,---,0.00,VWS V14.01,2013-02-05 14:34:00,
2013-02-05 08:35:00,63.3,61.8,29.90,SSE,150,0.0,0.0,95,0.00,,---,0.00,VWS V14.01,2013-02-05 14:35:00,
2013-02-05 08:36:00,63.4,62.0,29.90,SSE,150,0.0,0.0,95,0.00,,---,0.00,VWS V14.01,2013-02-05 14:36:00,
2013-02-05 08:37:00,63.4,62.0,29.90,SSE,149,0.0,0.0,95,0.00,,---,0.00,VWS V14.01,2013-02-05 14:37:00,
2013-02-05 08:38:00,63.5,62.0,29.90,SSE,150,0.0,0.0,95,0.00,,---,0.00,VWS V14.01,2013-02-05 14:38:00,
2013-02-05 08:39:00,63.5,62.0,29.90,SSE,149,0.0,0.0,95,0.00,,---,0.00,VWS V14.01,2013-02-05 14:39:00,
2013-02-05 08:40:00,63.7,62.2,29.90,SSE,149,0.0,0.0,95,0.00,,---,0.00,VWS V14.01,2013-02-05 14:40:00,
2013-02-05 08:41:00,63.8,62.3,29.90,SSE,149,1.0,2.0,95,0.00,,---,0.00,VWS V14.01,2013-02-05 14:41:00,
2013-02-05 08:42:00,63.9,62.7,29.90,SSE,149,0.0,1.0,96,0.00,,---,0.00,VWS V14.01,2013-02-05 14:42:00,
2013-02-05 08:43:00,64.0,62.5,29.90,SSE,149,0.0,0.0,95,0.00,,---,0.00,VWS V14.01,2013-02-05 14:43:00,
2013-02-05 08:44:00,64.0,62.5,29.90,SSE,149,0.0,0.0,95,0.00,,---,0.00,VWS V14.01,2013-02-05 14:44:00,
2013-02-05 08:45:00,64.2,63.0,29.91,South,170,2.0,4.0,96,0.00,,---,0.00,VWS V14.01,2013-02-05 14:45:00,
2013-02-05 08:46:00,64.3,63.1,29.91,South,171,2.0,3.0,96,0.00,,---,0.00,VWS V14.01,2013-02-05 14:46:00,
2013-02-05 08:47:00,64.5,63.3,29.91,South,171,2.0,4.0,96,0.00,,---,0.00,VWS V14.01,2013-02-05 14:47:00,
2013-02-05 08:48:00,64.6,63.4,29.91,South,171,0.0,2.0,96,0.00,,---,0.00,VWS V14.01,2013-02-05 14:48:00,
2013-02-05 08:49:00,64.6,63.4,29.91,South,171,0.0,0.0,96,0.00,,---,0.00,VWS V14.01,2013-02-05 14:49:00,
2013-02-05 08:50:00,64.7,63.5,29.91,South,172,4.0,4.0,96,0.00,,---,0.00,VWS V14.01,2013-02-05 14:50:00,
2013-02-05 08:51:00,64.8,63.6,29.91,South,172,2.0,4.0,96,0.00,,---,0.00,VWS V14.01,2013-02-05 14:51:00,
2013-02-05 08:52:00,64.9,63.7,29.91,South,172,1.0,2.0,96,0.00,,---,0.00,VWS V14.01,2013-02-05 14:52:00,
2013-02-05 08:53:00,65.0,63.8,29.91,South,172,0.0,3.0,96,0.00,,---,0.00,VWS V14.01,2013-02-05 14:53:00,
2013-02-05 08:54:00,65.0,63.8,29.91,South,172,0.0,0.0,96,0.00,,---,0.00,VWS V14.01,2013-02-05 14:54:00,
2013-02-05 08:55:00,65.1,63.9,29.91,South,172,0.0,0.0,96,0.00,,---,0.00,VWS V14.01,2013-02-05 14:55:00,
2013-02-05 08:56:00,65.2,64.0,29.91,South,172,0.0,0.0,96,0.00,,---,0.00,VWS V14.01,2013-02-05 14:56:00,
2013-02-05 08:57:00,65.3,64.1,29.91,South,172,2.0,3.0,96,0.00,,---,0.00,VWS V14.01,2013-02-05 14:57:00,
2013-02-05 08:58:00,65.3,63.8,29.91,South,172,1.0,2.0,95,0.00,,---,0.00,VWS V14.01,2013-02-05 14:58:00,
2013-02-05 08:59:00,65.5,64.3,29.91,South,172,0.0,2.0,96,0.00,,---,0.00,VWS V14.01,2013-02-05 14:59:00,
2013-02-05 09:00:00,65.6,64.4,29.91,South,174,2.0,4.0,96,0.00,,---,0.00,VWS V14.01,2013-02-05 15:00:00,
2013-02-05 09:01:00,65.7,64.5,29.91,South,185,4.0,4.0,96,0.00,,---,0.00,VWS V14.01,2013-02-05 15:01:00,
2013-02-05 09:02:00,65.8,64.6,29.91,South,186,5.0,5.0,96,0.00,,---,0.00,VWS V14.01,2013-02-05 15:02:00,
2013-02-05 09:03:00,65.9,64.7,29.91,South,186,4.0,5.0,96,0.00,,---,0.00,VWS V14.01,2013-02-05 15:03:00,
2013-02-05 09:04:00,66.0,64.8,29.91,South,185,3.0,5.0,96,0.00,,---,0.00,VWS V14.01,2013-02-05 15:04:00,
2013-02-05 09:05:00,66.1,64.9,29.91,South,182,5.0,5.0,96,0.00,,---,0.00,VWS V14.01,2013-02-05 15:05:00,
2013-02-05 09:06:00,66.2,65.0,29.91,South,190,6.0,6.0,96,0.00,,---,0.00,VWS V14.01,2013-02-05 15:06:00,
2013-02-05 09:07:00,66.4,65.2,29.91,South,184,4.0,6.0,96,0.00,,---,0.00,VWS V14.01,2013-02-05 15:07:00,
2013-02-05 09:08:00,66.5,65.3,29.91,South,184,5.0,5.0,96,0.00,,---,0.00,VWS V14.01,2013-02-05 15:08:00,
2013-02-05 09:09:00,66.6,65.4,29.91,South,187,5.0,6.0,96,0.00,,---,0.00,VWS V14.01,2013-02-05 15:09:00,
2013-02-05 09:10:00,66.6,65.4,29.91,South,188,5.0,6.0,96,0.00,,---,0.00,VWS V14.01,2013-02-05 15:10:00,
2013-02-05 09:11:00,66.7,65.5,29.91,South,191,4.0,7.0,96,0.00,,---,0.00,VWS V14.01,2013-02-05 15:11:00,
2013-02-05 09:12:00,66.7,65.5,29.91,South,191,3.0,5.0,96,0.00,,---,0.00,VWS V14.01,2013-02-05 15:12:00,
2013-02-05 09:13:00,66.7,65.2,29.91,South,188,4.0,4.0,95,0.00,,---,0.00,VWS V14.01,2013-02-05 15:13:00,
2013-02-05 09:14:00,66.8,65.3,29.91,South,175,3.0,4.0,95,0.00,,---,0.00,VWS V14.01,2013-02-05 15:14:00,
2013-02-05 09:15:00,66.8,65.3,29.91,South,176,5.0,5.0,95,0.00,,---,0.00,VWS V14.01,2013-02-05 15:15:00,
2013-02-05 09:16:00,66.9,65.4,29.91,South,177,5.0,5.0,95,0.00,,---,0.00,VWS V14.01,2013-02-05 15:16:00,
2013-02-05 09:17:00,66.9,65.7,29.91,South,178,0.0,6.0,96,0.00,,---,0.00,VWS V14.01,2013-02-05 15:17:00,
2013-02-05 09:18:00,67.0,65.8,29.91,South,191,5.0,7.0,96,0.00,,---,0.00,VWS V14.01,2013-02-05 15:18:00,
2013-02-05 09:19:00,67.1,65.9,29.92,SSW,192,5.0,6.0,96,0.00,,---,0.00,VWS V14.01,2013-02-05 15:19:00,
2013-02-05 09:20:00,67.1,65.9,29.92,SSW,192,3.0,5.0,96,0.00,,---,0.00,VWS V14.01,2013-02-05 15:20:00,
2013-02-05 09:21:00,67.2,66.0,29.92,SSW,192,3.0,5.0,96,0.00,,---,0.00,VWS V14.01,2013-02-05 15:21:00,
2013-02-05 09:22:00,67.2,66.0,29.92,SSW,194,4.0,6.0,96,0.00,,---,0.00,VWS V14.01,2013-02-05 15:22:00,
2013-02-05 09:23:00,67.3,65.8,29.92,SSW,195,4.0,7.0,95,0.00,,---,0.00,VWS V14.01,2013-02-05 15:23:00,
2013-02-05 09:24:00,67.3,65.8,29.92,SSW,195,6.0,8.0,95,0.00,,---,0.00,VWS V14.01,2013-02-05 15:24:00,
2013-02-05 09:25:00,67.3,65.8,29.92,SSW,196,7.0,8.0,95,0.00,,---,0.00,VWS V14.01,2013-02-05 15:25:00,
2013-02-05 09:26:00,67.4,65.9,29.92,SSW,194,3.0,8.0,95,0.00,,---,0.00,VWS V14.01,2013-02-05 15:26:00,
2013-02-05 09:27:00,67.5,66.0,29.92,SSW,196,4.0,6.0,95,0.00,,---,0.00,VWS V14.01,2013-02-05 15:27:00,
2013-02-05 09:28:00,67.5,66.0,29.92,SSW,199,5.0,7.0,95,0.00,,---,0.00,VWS V14.01,2013-02-05 15:28:00,
2013-02-05 09:29:00,67.6,66.4,29.92,South,183,11.0,11.0,96,0.00,,---,0.00,VWS V14.01,2013-02-05 15:29:00,
2013-02-05 09:30:00,67.7,66.5,29.92,South,188,7.0,11.0,96,0.00,,---,0.00,VWS V14.01,2013-02-05 15:30:00,
2013-02-05 09:31:00,67.7,66.5,29.92,SSW,210,7.0,9.0,96,0.00,,---,0.00,VWS V14.01,2013-02-05 15:31:00,
2013-02-05 09:32:00,67.7,66.5,29.92,SSW,196,5.0,7.0,96,0.00,,---,0.00,VWS V14.01,2013-02-05 15:32:00,
2013-02-05 09:33:00,67.7,66.5,29.92,SSW,197,6.0,7.0,96,0.00,,---,0.00,VWS V14.01,2013-02-05 15:33:00,
2013-02-05 09:34:00,67.7,66.5,29.92,SSW,210,9.0,9.0,96,0.00,,---,0.00,VWS V14.01,2013-02-05 15:34:00,
2013-02-05 09:35:00,67.7,66.2,29.92,SSW,195,6.0,9.0,95,0.00,,---,0.00,VWS V14.01,2013-02-05 15:35:00,
2013-02-05 09:36:00,67.7,66.2,29.92,South,187,6.0,8.0,95,0.00,,---,0.00,VWS V14.01,2013-02-05 15:36:00,
2013-02-05 09:37:00,67.7,66.2,29.92,South,186,6.0,7.0,95,0.00,,---,0.00,VWS V14.01,2013-02-05 15:37:00,
2013-02-05 09:38:00,67.7,66.2,29.92,South,189,6.0,7.0,95,0.00,,---,0.00,VWS V14.01,2013-02-05 15:38:00,
2013-02-05 09:39:00,67.7,66.2,29.92,South,189,6.0,11.0,95,0.00,,---,0.00,VWS V14.01,2013-02-05 15:39:00,
2013-02-05 09:40:00,67.7,66.2,29.92,SSW,208,9.0,9.0,95,0.00,,---,0.00,VWS V14.01,2013-02-05 15:40:00,
2013-02-05 09:41:00,67.8,66.3,29.92,South,190,9.0,10.0,95,0.00,,---,0.00,VWS V14.01,2013-02-05 15:41:00,
2013-02-05 09:42:00,67.8,66.3,29.92,SSW,209,6.0,10.0,95,0.00,,---,0.00,VWS V14.01,2013-02-05 15:42:00,
2013-02-05 09:43:00,67.8,66.3,29.92,South,186,4.0,7.0,95,0.00,,---,0.00,VWS V14.01,2013-02-05 15:43:00,
2013-02-05 09:44:00,67.9,66.4,29.92,SSW,194,7.0,8.0,95,0.00,,---,0.00,VWS V14.01,2013-02-05 15:44:00,
2013-02-05 09:45:00,67.9,66.4,29.92,South,188,11.0,12.0,95,0.00,,---,0.00,VWS V14.01,2013-02-05 15:45:00,
2013-02-05 09:46:00,68.0,66.5,29.92,South,186,10.0,12.0,95,0.00,,---,0.00,VWS V14.01,2013-02-05 15:46:00,
2013-02-05 09:47:00,68.1,66.9,29.92,South,180,9.0,11.0,96,0.00,,---,0.00,VWS V14.01,2013-02-05 15:47:00,
2013-02-05 09:48:00,68.3,67.1,29.92,South,190,7.0,9.0,96,0.00,,---,0.00,VWS V14.01,2013-02-05 15:48:00,
2013-02-05 09:49:00,68.3,67.1,29.92,South,190,7.0,9.0,96,0.00,,---,0.00,VWS V14.01,2013-02-05 15:49:00,
2013-02-05 09:50:00,68.4,67.2,29.92,South,183,7.0,7.0,96,0.00,,---,0.00,VWS V14.01,2013-02-05 15:50:00,
2013-02-05 09:51:00,68.5,67.3,29.92,South,188,10.0,10.0,96,0.00,,---,0.00,VWS V14.01,2013-02-05 15:51:00,
2013-02-05 09:52:00,68.6,67.4,29.92,SSW,194,10.0,11.0,96,0.00,,---,0.00,VWS V14.01,2013-02-05 15:52:00,
2013-02-05 09:53:00,68.6,67.4,29.92,SSW,196,9.0,11.0,96,0.00,,---,0.00,VWS V14.01,2013-02-05 15:53:00,
2013-02-05 09:54:00,68.6,67.4,29.92,SSW,192,6.0,13.0,96,0.00,,---,0.00,VWS V14.01,2013-02-05 15:54:00,
2013-02-05 09:55:00,68.6,67.1,29.92,SSW,199,13.0,13.0,95,0.00,,---,0.00,VWS V14.01,2013-02-05 15:55:00,
2013-02-05 09:56:00,68.5,67.0,29.92,SSW,195,12.0,13.0,95,0.00,,---,0.00,VWS V14.01,2013-02-05 15:56:00,
2013-02-05 09:57:00,68.4,66.9,29.92,SSW,198,9.0,12.0,95,0.00,,---,0.00,VWS V14.01,2013-02-05 15:57:00,
2013-02-05 09:58:00,68.4,66.9,29.92,SSW,192,10.0,11.0,95,0.00,,---,0.00,VWS V14.01,2013-02-05 15:58:00,
2013-02-05 09:59:00,68.4,66.9,29.92,SSW,205,13.0,16.0,95,0.00,,---,0.00,VWS V14.01,2013-02-05 15:59:00,
2013-02-05 10:00:00,68.5,67.0,29.92,SSW,193,12.0,16.0,95,0.00,,---,0.00,VWS V14.01,2013-02-05 16:00:00,
2013-02-05 10:01:00,68.5,67.0,29.92,South,183,7.0,13.0,95,0.00,,---,0.00,VWS V14.01,2013-02-05 16:01:00,
2013-02-05 10:02:00,68.7,67.5,29.92,SSW,211,12.0,12.0,96,0.00,,---,0.00,VWS V14.01,2013-02-05 16:02:00,
2013-02-05 10:03:00,68.9,67.7,29.92,SSW,205,13.0,13.0,96,0.00,,---,0.00,VWS V14.01,2013-02-05 16:03:00,
2013-02-05 10:04:00,69.0,67.8,29.92,SSE,167,11.0,14.0,96,0.00,,---,0.00,VWS V14.01,2013-02-05 16:04:00,
2013-02-05 10:05:00,69.2,68.0,29.92,South,178,10.0,12.0,96,0.00,,---,0.00,VWS V14.01,2013-02-05 16:05:00,
2013-02-05 10:06:00,69.3,68.1,29.93,South,183,4.0,14.0,96,0.00,,---,0.00,VWS V14.01,2013-02-05 16:06:00,
2013-02-05 10:07:00,69.5,68.3,29.92,SSW,196,12.0,13.0,96,0.00,,---,0.00,VWS V14.01,2013-02-05 16:07:00,
2013-02-05 10:08:00,69.5,68.3,29.92,South,188,9.0,12.0,96,0.00,,---,0.00,VWS V14.01,2013-02-05 16:08:00,
2013-02-05 10:09:00,69.6,68.4,29.92,South,172,7.0,13.0,96,0.00,,---,0.00,VWS V14.01,2013-02-05 16:09:00,
2013-02-05 10:10:00,69.8,68.6,29.92,SW,214,10.0,12.0,96,0.00,,---,0.00,VWS V14.01,2013-02-05 16:10:00,
2013-02-05 10:11:00,69.8,68.6,29.92,SSW,210,9.0,12.0,96,0.00,,---,0.00,VWS V14.01,2013-02-05 16:11:00,
2013-02-05 10:12:00,69.7,68.5,29.92,SSW,194,5.0,12.0,96,0.00,,---,0.00,VWS V14.01,2013-02-05 16:12:00,
2013-02-05 10:13:00,69.6,68.1,29.92,SW,219,9.0,13.0,95,0.00,,---,0.00,VWS V14.01,2013-02-05 16:13:00,
2013-02-05 10:14:00,69.5,68.0,29.92,SW,231,11.0,12.0,95,0.00,,---,0.00,VWS V14.01,2013-02-05 16:14:00,
2013-02-05 10:15:00,69.4,67.9,29.92,SSW,212,11.0,13.0,95,0.00,,---,0.00,VWS V14.01,2013-02-05 16:15:00,
2013-02-05 10:16:00,69.3,67.8,29.92,SSW,206,11.0,13.0,95,0.00,,---,0.00,VWS V14.01,2013-02-05 16:16:00,
2013-02-05 10:17:00,69.3,67.8,29.93,SW,222,7.0,11.0,95,0.00,,---,0.00,VWS V14.01,2013-02-05 16:17:00,
2013-02-05 10:18:00,69.4,67.6,29.93,SW,223,10.0,10.0,94,0.00,,---,0.00,VWS V14.01,2013-02-05 16:18:00,
2013-02-05 10:19:00,69.5,67.7,29.93,SW,219,7.0,9.0,94,0.00,,---,0.00,VWS V14.01,2013-02-05 16:19:00,
2013-02-05 10:20:00,69.7,67.9,29.93,SSW,198,7.0,11.0,94,0.00,,---,0.00,VWS V14.01,2013-02-05 16:20:00,
2013-02-05 10:21:00,70.0,68.2,29.93,SSW,207,9.0,14.0,94,0.00,,---,0.00,VWS V14.01,2013-02-05 16:21:00,
2013-02-05 10:22:00,70.1,68.3,29.93,SSW,208,6.0,12.0,94,0.00,,---,0.00,VWS V14.01,2013-02-05 16:22:00,
2013-02-05 10:23:00,70.2,68.4,29.93,SSW,212,5.0,11.0,94,0.00,,---,0.00,VWS V14.01,2013-02-05 16:23:00,
2013-02-05 10:24:00,70.3,68.5,29.92,SW,217,6.0,9.0,94,0.00,,---,0.00,VWS V14.01,2013-02-05 16:24:00,
2013-02-05 10:25:00,70.4,68.3,29.93,South,188,7.0,10.0,93,0.00,,---,0.00,VWS V14.01,2013-02-05 16:25:00,
2013-02-05 10:26:00,70.6,68.5,29.93,SSW,202,12.0,13.0,93,0.00,,---,0.00,VWS V14.01,2013-02-05 16:26:00,
2013-02-05 10:27:00,70.8,69.0,29.92,South,180,5.0,12.0,94,0.00,,---,0.00,VWS V14.01,2013-02-05 16:27:00,
2013-02-05 10:28:00,70.9,68.8,29.93,SSW,213,10.0,11.0,93,0.00,,---,0.00,VWS V14.01,2013-02-05 16:28:00,
2013-02-05 10:29:00,71.1,69.0,29.92,SSW,200,8.0,12.0,93,0.00,,---,0.00,VWS V14.01,2013-02-05 16:29:00,
2013-02-05 10:30:00,71.2,69.1,29.92,SSW,205,7.0,10.0,93,0.00,,---,0.00,VWS V14.01,2013-02-05 16:30:00,
2013-02-05 10:31:00,71.4,69.3,29.92,SW,218,11.0,11.0,93,0.00,,---,0.00,VWS V14.01,2013-02-05 16:31:00,
2013-02-05 10:32:00,71.5,69.1,29.92,SW,227,10.0,11.0,92,0.00,,---,0.00,VWS V14.01,2013-02-05 16:32:00,
2013-02-05 10:33:00,71.5,69.1,29.93,SW,223,10.0,10.0,92,0.00,,---,0.00,VWS V14.01,2013-02-05 16:33:00,
2013-02-05 10:34:00,71.7,68.9,29.93,SSW,211,5.0,8.0,91,0.00,,---,0.00,VWS V14.01,2013-02-05 16:34:00,
2013-02-05 10:35:00,71.7,68.9,29.92,SSW,212,6.0,10.0,91,0.00,,---,0.00,VWS V14.01,2013-02-05 16:35:00,
2013-02-05 10:36:00,71.9,69.1,29.92,SW,215,4.0,7.0,91,0.00,,---,0.00,VWS V14.01,2013-02-05 16:36:00,
2013-02-05 10:37:00,71.9,69.1,29.92,SW,223,5.0,5.0,91,0.00,,---,0.00,VWS V14.01,2013-02-05 16:37:00,
2013-02-05 10:38:00,72.0,69.2,29.92,SW,223,5.0,7.0,91,0.00,,---,0.00,VWS V14.01,2013-02-05 16:38:00,
2013-02-05 10:39:00,72.1,69.0,29.92,SSW,202,13.0,13.0,90,0.00,,---,0.00,VWS V14.01,2013-02-05 16:39:00,
2013-02-05 10:40:00,72.1,69.0,29.92,South,186,7.0,13.0,90,0.00,,---,0.00,VWS V14.01,2013-02-05 16:40:00,
2013-02-05 10:41:00,72.1,69.0,29.92,SSW,201,6.0,10.0,90,0.00,,---,0.00,VWS V14.01,2013-02-05 16:41:00,
2013-02-05 10:42:00,72.2,69.1,29.92,SSW,200,6.0,9.0,90,0.00,,---,0.00,VWS V14.01,2013-02-05 16:42:00,
2013-02-05 10:43:00,72.2,69.1,29.92,SSW,199,7.0,7.0,90,0.00,,---,0.00,VWS V14.01,2013-02-05 16:43:00,
2013-02-05 10:44:00,72.3,69.2,29.92,South,191,4.0,6.0,90,0.00,,---,0.00,VWS V14.01,2013-02-05 16:44:00,
2013-02-05 10:45:00,72.3,69.2,29.92,South,191,3.0,6.0,90,0.00,,---,0.00,VWS V14.01,2013-02-05 16:45:00,
2013-02-05 10:46:00,72.3,69.2,29.92,SSW,196,4.0,5.0,90,0.00,,---,0.00,VWS V14.01,2013-02-05 16:46:00,
2013-02-05 10:47:00,72.3,69.2,29.92,SSW,192,5.0,7.0,90,0.00,,---,0.00,VWS V14.01,2013-02-05 16:47:00,
2013-02-05 10:48:00,72.4,69.3,29.92,SSW,192,4.0,6.0,90,0.00,,---,0.00,VWS V14.01,2013-02-05 16:48:00,
2013-02-05 10:49:00,72.4,69.3,29.92,SSW,192,3.0,4.0,90,0.00,,---,0.00,VWS V14.01,2013-02-05 16:49:00,
2013-02-05 10:50:00,72.5,69.4,29.92,SSW,193,6.0,6.0,90,0.00,,---,0.00,VWS V14.01,2013-02-05 16:50:00,
2013-02-05 10:51:00,72.5,69.4,29.92,SSW,200,5.0,6.0,90,0.00,,---,0.00,VWS V14.01,2013-02-05 16:51:00,
2013-02-05 10:52:00,72.5,69.1,29.92,SW,215,3.0,5.0,89,0.00,,---,0.00,VWS V14.01,2013-02-05 16:52:00,
2013-02-05 10:53:00,72.5,69.1,29.92,SW,221,3.0,6.0,89,0.00,,---,0.00,VWS V14.01,2013-02-05 16:53:00,
2013-02-05 10:54:00,72.6,68.8,29.92,SW,232,4.0,7.0,88,0.00,,---,0.00,VWS V14.01,2013-02-05 16:54:00,
2013-02-05 10:55:00,72.6,68.8,29.92,SW,232,5.0,6.0,88,0.00,,---,0.00,VWS V14.01,2013-02-05 16:55:00,
2013-02-05 10:56:00,72.6,68.8,29.92,SW,233,4.0,5.0,88,0.00,,---,0.00,VWS V14.01,2013-02-05 16:56:00,
2013-02-05 10:57:00,72.7,68.9,29.92,SW,226,3.0,6.0,88,0.00,,---,0.00,VWS V14.01,2013-02-05 16:57:00,
2013-02-05 10:58:00,72.8,69.0,29.92,SW,225,2.0,5.0,88,0.00,,---,0.00,VWS V14.01,2013-02-05 16:58:00,
2013-02-05 10:59:00,72.9,69.1,29.92,SW,223,5.0,5.0,88,0.00,,---,0.00,VWS V14.01,2013-02-05 16:59:00,
2013-02-05 11:00:00,73.0,69.2,29.92,SW,225,4.0,5.0,88,0.00,,---,0.00,VWS V14.01,2013-02-05 17:00:00,
2013-02-05 11:01:00,73.1,69.3,29.92,SW,222,3.0,6.0,88,0.00,,---,0.00,VWS V14.01,2013-02-05 17:01:00,
2013-02-05 11:02:00,73.2,69.4,29.92,SW,215,6.0,7.0,88,0.00,,---,0.00,VWS V14.01,2013-02-05 17:02:00,
2013-02-05 11:03:00,73.4,69.6,29.92,SSW,209,4.0,6.0,88,0.00,,---,0.00,VWS V14.01,2013-02-05 17:03:00,
2013-02-05 11:04:00,73.6,69.8,29.92,SSW,200,2.0,7.0,88,0.00,,---,0.00,VWS V14.01,2013-02-05 17:04:00,
2013-02-05 11:05:00,73.7,69.6,29.92,SSW,200,3.0,5.0,87,0.00,,---,0.00,VWS V14.01,2013-02-05 17:05:00,
2013-02-05 11:06:00,73.8,69.7,29.92,SSW,200,0.0,4.0,87,0.00,,---,0.00,VWS V14.01,2013-02-05 17:06:00,
2013-02-05 11:07:00,73.9,69.8,29.92,WSW,247,5.0,5.0,87,0.00,,---,0.00,VWS V14.01,2013-02-05 17:07:00,
2013-02-05 11:08:00,73.9,69.8,29.92,WSW,248,3.0,5.0,87,0.00,,---,0.00,VWS V14.01,2013-02-05 17:08:00,
2013-02-05 11:09:00,74.0,69.9,29.92,WSW,248,2.0,4.0,87,0.00,,---,0.00,VWS V14.01,2013-02-05 17:09:00,
2013-02-05 11:10:00,74.1,69.7,29.92,WSW,248,4.0,4.0,86,0.00,,---,0.00,VWS V14.01,2013-02-05 17:10:00,
2013-02-05 11:11:00,74.2,69.8,29.92,WSW,248,2.0,4.0,86,0.00,,---,0.00,VWS V14.01,2013-02-05 17:11:00,
2013-02-05 11:12:00,74.4,69.9,29.92,WSW,246,3.0,5.0,86,0.00,,---,0.00,VWS V14.01,2013-02-05 17:12:00,
2013-02-05 11:13:00,74.4,69.9,29.92,WSW,247,4.0,4.0,86,0.00,,---,0.00,VWS V14.01,2013-02-05 17:13:00,
2013-02-05 11:14:00,74.6,69.8,29.92,WSW,247,1.0,5.0,85,0.00,,---,0.00,VWS V14.01,2013-02-05 17:14:00,
2013-02-05 11:15:00,74.8,70.0,29.92,WSW,247,5.0,5.0,85,0.00,,---,0.00,VWS V14.01,2013-02-05 17:15:00,
2013-02-05 11:16:00,74.9,70.1,29.92,WSW,248,3.0,6.0,85,0.00,,---,0.00,VWS V14.01,2013-02-05 17:16:00,
2013-02-05 11:17:00,75.1,69.9,29.92,WSW,247,4.0,4.0,84,0.00,,---,0.00,VWS V14.01,2013-02-05 17:17:00,
2013-02-05 11:18:00,75.1,69.9,29.91,West,260,6.0,6.0,84,0.00,,---,0.00,VWS V14.01,2013-02-05 17:18:00,
2013-02-05 11:19:00,75.2,70.0,29.91,West,275,4.0,6.0,84,0.00,,---,0.00,VWS V14.01,2013-02-05 17:19:00,
2013-02-05 11:20:00,75.3,70.1,29.92,West,275,2.0,4.0,84,0.00,,---,0.00,VWS V14.01,2013-02-05 17:20:00,
2013-02-05 11:21:00,75.4,70.2,29.91,WSW,241,5.0,5.0,84,0.00,,---,0.00,VWS V14.01,2013-02-05 17:21:00,
2013-02-05 11:22:00,75.5,70.3,29.91,WSW,242,3.0,5.0,84,0.00,,---,0.00,VWS V14.01,2013-02-05 17:22:00,
2013-02-05 11:23:00,75.7,70.5,29.91,WSW,241,1.0,3.0,84,0.00,,---,0.00,VWS V14.01,2013-02-05 17:23:00,
2013-02-05 11:24:00,75.8,70.6,29.91,WSW,241,2.0,2.0,84,0.00,,---,0.00,VWS V14.01,2013-02-05 17:24:00,
2013-02-05 11:25:00,75.9,70.4,29.91,WSW,242,5.0,7.0,83,0.00,,---,0.00,VWS V14.01,2013-02-05 17:25:00,
2013-02-05 11:26:00,76.0,70.1,29.91,WSW,241,1.0,6.0,82,0.00,,---,0.00,VWS V14.01,2013-02-05 17:26:00,
2013-02-05 11:27:00,76.1,69.8,29.91,SW,229,6.0,8.0,81,0.00,,---,0.00,VWS V14.01,2013-02-05 17:27:00,
2013-02-05 11:28:00,76.3,70.1,29.91,SW,230,4.0,7.0,81,0.00,,---,0.00,VWS V14.01,2013-02-05 17:28:00,
2013-02-05 11:29:00,76.4,70.1,29.91,SW,230,0.0,2.0,81,0.00,,---,0.00,VWS V14.01,2013-02-05 17:29:00,
2013-02-05 11:30:00,76.5,70.2,29.91,SW,228,3.0,4.0,81,0.00,,---,0.00,VWS V14.01,2013-02-05 17:30:00,
2013-02-05 11:31:00,76.6,70.3,29.91,SW,228,0.0,3.0,81,0.00,,---,0.00,VWS V14.01,2013-02-05 17:31:00,
2013-02-05 11:32:00,76.7,70.4,29.91,SW,228,0.0,0.0,81,0.00,,---,0.00,VWS V14.01,2013-02-05 17:32:00,
2013-02-05 11:33:00,76.7,70.4,29.91,SW,227,0.0,0.0,81,0.00,,---,0.00,VWS V14.01,2013-02-05 17:33:00,
2013-02-05 11:34:00,76.8,70.5,29.91,SW,227,3.0,3.0,81,0.00,,---,0.00,VWS V14.01,2013-02-05 17:34:00,
2013-02-05 11:35:00,76.9,70.6,29.91,South,177,2.0,4.0,81,0.00,,---,0.00,VWS V14.01,2013-02-05 17:35:00,
2013-02-05 11:36:00,77.0,70.7,29.91,South,177,0.0,2.0,81,0.00,,---,0.00,VWS V14.01,2013-02-05 17:36:00,
2013-02-05 11:37:00,77.2,70.9,29.91,South,177,0.0,2.0,81,0.00,,---,0.00,VWS V14.01,2013-02-05 17:37:00,
2013-02-05 11:38:00,77.3,71.0,29.91,South,179,3.0,3.0,81,0.00,,---,0.00,VWS V14.01,2013-02-05 17:38:00,
2013-02-05 11:39:00,77.4,71.1,29.91,South,187,3.0,4.0,81,0.00,,---,0.00,VWS V14.01,2013-02-05 17:39:00,
2013-02-05 11:40:00,77.6,70.9,29.90,South,187,1.0,4.0,80,0.00,,---,0.00,VWS V14.01,2013-02-05 17:40:00,
2013-02-05 11:41:00,77.7,71.0,29.91,South,188,1.0,3.0,80,0.00,,---,0.00,VWS V14.01,2013-02-05 17:41:00,
2013-02-05 11:42:00,77.8,71.1,29.91,SSW,196,3.0,3.0,80,0.00,,---,0.00,VWS V14.01,2013-02-05 17:42:00,
2013-02-05 11:43:00,78.0,71.3,29.90,WSW,250,4.0,4.0,80,0.00,,---,0.00,VWS V14.01,2013-02-05 17:43:00,
2013-02-05 11:44:00,78.2,71.5,29.90,WSW,252,3.0,4.0,80,0.00,,---,0.00,VWS V14.01,2013-02-05 17:44:00,
2013-02-05 11:45:00,78.3,71.6,29.90,WSW,253,1.0,3.0,80,0.00,,---,0.00,VWS V14.01,2013-02-05 17:45:00,
2013-02-05 11:46:00,78.5,71.4,29.90,WSW,253,1.0,2.0,79,0.00,,---,0.00,VWS V14.01,2013-02-05 17:46:00,
2013-02-05 11:47:00,78.6,71.6,29.90,WSW,253,1.0,1.0,79,0.00,,---,0.00,VWS V14.01,2013-02-05 17:47:00,
2013-02-05 11:48:00,78.7,71.6,29.90,WSW,253,2.0,3.0,79,0.00,,---,0.00,VWS V14.01,2013-02-05 17:48:00,
2013-02-05 11:49:00,78.9,71.8,29.90,WSW,253,4.0,4.0,79,0.00,,---,0.00,VWS V14.01,2013-02-05 17:49:00,
2013-02-05 11:50:00,79.1,71.7,29.90,WSW,250,3.0,6.0,78,0.00,,---,0.00,VWS V14.01,2013-02-05 17:50:00,
2013-02-05 11:51:00,79.2,71.0,29.90,WSW,248,4.0,4.0,76,0.00,,---,0.00,VWS V14.01,2013-02-05 17:51:00,
2013-02-05 11:52:00,79.3,70.7,29.90,WSW,248,5.0,5.0,75,0.00,,---,0.00,VWS V14.01,2013-02-05 17:52:00,
2013-02-05 11:53:00,79.3,70.3,29.90,WSW,248,2.0,5.0,74,0.00,,---,0.00,VWS V14.01,2013-02-05 17:53:00,
2013-02-05 11:54:00,79.3,69.9,29.90,WSW,248,3.0,4.0,73,0.00,,---,0.00,VWS V14.01,2013-02-05 17:54:00,
2013-02-05 11:55:00,79.3,69.9,29.90,WSW,248,2.0,3.0,73,0.00,,---,0.00,VWS V14.01,2013-02-05 17:55:00,
2013-02-05 11:56:00,79.3,69.9,29.90,WSW,247,2.0,2.0,73,0.00,,---,0.00,VWS V14.01,2013-02-05 17:56:00,
2013-02-05 11:57:00,79.3,69.9,29.90,WSW,248,3.0,3.0,73,0.00,,---,0.00,VWS V14.01,2013-02-05 17:57:00,
2013-02-05 11:58:00,79.3,69.9,29.90,WSW,248,3.0,3.0,73,0.00,,---,0.00,VWS V14.01,2013-02-05 17:58:00,
2013-02-05 11:59:00,79.4,70.0,29.90,WSW,242,3.0,4.0,73,0.00,,---,0.00,VWS V14.01,2013-02-05 17:59:00,
2013-02-05 12:00:00,79.4,70.0,29.90,WSW,242,3.0,4.0,73,0.00,,---,0.00,VWS V14.01,2013-02-05 18:00:00,
2013-02-05 12:01:00,79.5,70.1,29.90,WSW,242,3.0,3.0,73,0.00,,---,0.00,VWS V14.01,2013-02-05 18:01:00,
2013-02-05 12:02:00,79.6,70.2,29.90,WSW,258,0.0,3.0,73,0.00,,---,0.00,VWS V14.01,2013-02-05 18:02:00,
2013-02-05 12:03:00,79.7,70.3,29.90,WSW,257,0.0,0.0,73,0.00,,---,0.00,VWS V14.01,2013-02-05 18:03:00,
2013-02-05 12:04:00,80.0,71.0,29.90,West,259,2.0,2.0,74,0.00,,---,0.00,VWS V14.01,2013-02-05 18:04:00,
2013-02-05 12:05:00,80.1,70.7,29.90,West,259,2.0,2.0,73,0.00,,---,0.00,VWS V14.01,2013-02-05 18:05:00,
2013-02-05 12:06:00,80.2,70.4,29.90,WSW,258,3.0,3.0,72,0.00,,---,0.00,VWS V14.01,2013-02-05 18:06:00,
2013-02-05 12:07:00,80.3,70.5,29.90,WSW,253,6.0,6.0,72,0.00,,---,0.00,VWS V14.01,2013-02-05 18:07:00,
2013-02-05 12:08:00,80.4,70.1,29.90,WSW,249,4.0,6.0,71,0.00,,---,0.00,VWS V14.01,2013-02-05 18:08:00,
2013-02-05 12:09:00,80.5,69.8,29.90,WSW,248,2.0,5.0,70,0.00,,---,0.00,VWS V14.01,2013-02-05 18:09:00,
2013-02-05 12:10:00,80.5,69.8,29.90,WSW,248,0.0,2.0,70,0.00,,---,0.00,VWS V14.01,2013-02-05 18:10:00,
2013-02-05 12:11:00,80.5,70.2,29.90,WSW,248,0.0,0.0,71,0.00,,---,0.00,VWS V14.01,2013-02-05 18:11:00,
2013-02-05 12:12:00,80.6,70.3,29.90,WSW,249,4.0,5.0,71,0.00,,---,0.00,VWS V14.01,2013-02-05 18:12:00,
2013-02-05 12:13:00,80.6,69.9,29.90,WSW,249,2.0,4.0,70,0.00,,---,0.00,VWS V14.01,2013-02-05 18:13:00,
2013-02-05 12:14:00,80.6,69.9,29.90,WSW,248,0.0,1.0,70,0.00,,---,0.00,VWS V14.01,2013-02-05 18:14:00,
2013-02-05 12:15:00,80.6,69.9,29.90,WSW,246,2.0,2.0,70,0.00,,---,0.00,VWS V14.01,2013-02-05 18:15:00,
2013-02-05 12:16:00,80.6,69.5,29.90,WSW,247,0.0,2.0,69,0.00,,---,0.00,VWS V14.01,2013-02-05 18:16:00,
2013-02-05 12:17:00,80.6,69.9,29.90,WSW,247,0.0,0.0,70,0.00,,---,0.00,VWS V14.01,2013-02-05 18:17:00,
2013-02-05 12:18:00,80.6,69.5,29.90,WSW,246,3.0,3.0,69,0.00,,---,0.00,VWS V14.01,2013-02-05 18:18:00,
2013-02-05 12:19:00,80.7,69.2,29.89,WSW,246,0.0,4.0,68,0.00,,---,0.00,VWS V14.01,2013-02-05 18:19:00,
2013-02-05 12:20:00,80.7,69.2,29.89,WSW,246,0.0,3.0,68,0.00,,---,0.00,VWS V14.01,2013-02-05 18:20:00,
2013-02-05 12:21:00,80.7,69.6,29.89,WSW,246,0.0,0.0,69,0.00,,---,0.00,VWS V14.01,2013-02-05 18:21:00,
2013-02-05 12:22:00,80.8,69.3,29.89,WSW,242,2.0,6.0,68,0.00,,---,0.00,VWS V14.01,2013-02-05 18:22:00,
2013-02-05 12:23:00,80.8,69.3,29.89,WSW,242,0.0,2.0,68,0.00,,---,0.00,VWS V14.01,2013-02-05 18:23:00,
2013-02-05 12:24:00,80.9,69.4,29.89,WSW,242,1.0,1.0,68,0.00,,---,0.00,VWS V14.01,2013-02-05 18:24:00,
2013-02-05 12:25:00,80.9,69.4,29.89,SW,229,2.0,4.0,68,0.00,,---,0.00,VWS V14.01,2013-02-05 18:25:00,
2013-02-05 12:26:00,81.0,69.0,29.89,SW,229,2.0,2.0,67,0.00,,---,0.00,VWS V14.01,2013-02-05 18:26:00,
2013-02-05 12:27:00,81.0,69.0,29.89,SW,229,2.0,3.0,67,0.00,,---,0.00,VWS V14.01,2013-02-05 18:27:00,
2013-02-05 12:28:00,81.0,69.0,29.89,SW,229,1.0,2.0,67,0.00,,---,0.00,VWS V14.01,2013-02-05 18:28:00,
2013-02-05 12:29:00,81.1,69.1,29.89,SW,229,0.0,3.0,67,0.00,,---,0.00,VWS V14.01,2013-02-05 18:29:00,
2013-02-05 12:30:00,81.1,68.7,29.89,SW,229,0.0,0.0,66,0.00,,---,0.00,VWS V14.01,2013-02-05 18:30:00,
2013-02-05 12:31:00,81.1,68.7,29.89,SW,230,1.0,4.0,66,0.00,,---,0.00,VWS V14.01,2013-02-05 18:31:00,
2013-02-05 12:32:00,81.2,69.2,29.89,SW,231,3.0,3.0,67,0.00,,---,0.00,VWS V14.01,2013-02-05 18:32:00,
2013-02-05 12:33:00,81.2,69.2,29.89,SW,231,2.0,3.0,67,0.00,,---,0.00,VWS V14.01,2013-02-05 18:33:00,
2013-02-05 12:34:00,81.4,69.4,29.89,WNW,292,3.0,5.0,67,0.00,,---,0.00,VWS V14.01,2013-02-05 18:34:00,
2013-02-05 12:35:00,81.5,69.1,29.89,WNW,292,2.0,3.0,66,0.00,,---,0.00,VWS V14.01,2013-02-05 18:35:00,
2013-02-05 12:36:00,81.5,69.5,29.89,NW,315,0.0,5.0,67,0.00,,---,0.00,VWS V14.01,2013-02-05 18:36:00,
2013-02-05 12:37:00,81.7,69.7,29.89,NW,315,1.0,3.0,67,0.00,,---,0.00,VWS V14.01,2013-02-05 18:37:00,
2013-02-05 12:38:00,81.7,69.7,29.89,NW,315,0.0,1.0,67,0.00,,---,0.00,VWS V14.01,2013-02-05 18:38:00,
2013-02-05 12:39:00,82.0,69.1,29.89,WNW,290,4.0,4.0,65,0.00,,---,0.00,VWS V14.01,2013-02-05 18:39:00,
2013-02-05 12:40:00,82.0,68.2,29.88,WSW,246,2.0,4.0,63,0.00,,---,0.00,VWS V14.01,2013-02-05 18:40:00,
2013-02-05 12:41:00,82.1,68.3,29.88,WSW,246,0.0,3.0,63,0.00,,---,0.00,VWS V14.01,2013-02-05 18:41:00,
2013-02-05 12:42:00,82.1,68.7,29.88,WSW,245,2.0,2.0,64,0.00,,---,0.00,VWS V14.01,2013-02-05 18:42:00,
2013-02-05 12:43:00,82.1,68.7,29.88,WSW,246,0.0,2.0,64,0.00,,---,0.00,VWS V14.01,2013-02-05 18:43:00,
2013-02-05 12:44:00,82.1,68.7,29.88,WSW,242,2.0,2.0,64,0.00,,---,0.00,VWS V14.01,2013-02-05 18:44:00,
2013-02-05 12:45:00,82.1,68.3,29.88,WSW,241,1.0,3.0,63,0.00,,---,0.00,VWS V14.01,2013-02-05 18:45:00,
2013-02-05 12:46:00,82.0,68.6,29.88,NW,314,3.0,3.0,64,0.00,,---,0.00,VWS V14.01,2013-02-05 18:46:00,
2013-02-05 12:47:00,82.0,68.6,29.88,NW,321,2.0,4.0,64,0.00,,---,0.00,VWS V14.01,2013-02-05 18:47:00,
2013-02-05 12:48:00,82.1,68.7,29.88,NW,321,0.0,2.0,64,0.00,,---,0.00,VWS V14.01,2013-02-05 18:48:00,
2013-02-05 12:49:00,82.1,68.7,29.88,NNE,13,5.0,5.0,64,0.00,,---,0.00,VWS V14.01,2013-02-05 18:49:00,
2013-02-05 12:50:00,82.1,68.7,29.88,NNE,13,3.0,6.0,64,0.00,,---,0.00,VWS V14.01,2013-02-05 18:50:00,
2013-02-05 12:51:00,82.1,68.7,29.88,NNE,13,0.0,4.0,64,0.00,,---,0.00,VWS V14.01,2013-02-05 18:51:00,
2013-02-05 12:52:00,82.1,68.7,29.88,North,5,3.0,4.0,64,0.00,,---,0.00,VWS V14.01,2013-02-05 18:52:00,
2013-02-05 12:53:00,82.2,68.8,29.88,WNW,302,3.0,3.0,64,0.00,,---,0.00,VWS V14.01,2013-02-05 18:53:00,
2013-02-05 12:54:00,82.3,68.5,29.88,WNW,302,0.0,0.0,63,0.00,,---,0.00,VWS V14.01,2013-02-05 18:54:00,
2013-02-05 12:55:00,82.4,68.6,29.87,WNW,302,0.0,0.0,63,0.00,,---,0.00,VWS V14.01,2013-02-05 18:55:00,
2013-02-05 12:56:00,82.5,69.1,29.87,WNW,303,0.0,2.0,64,0.00,,---,0.00,VWS V14.01,2013-02-05 18:56:00,
2013-02-05 12:57:00,82.6,69.2,29.87,WNW,296,4.0,4.0,64,0.00,,---,0.00,VWS V14.01,2013-02-05 18:57:00,
2013-02-05 12:58:00,82.7,69.3,29.87,WNW,290,2.0,4.0,64,0.00,,---,0.00,VWS V14.01,2013-02-05 18:58:00,
2013-02-05 12:59:00,82.9,68.6,29.87,WSW,252,2.0,3.0,62,0.00,,---,0.00,VWS V14.01,2013-02-05 18:59:00,
2013-02-05 13:00:00,83.0,68.7,29.87,WSW,253,0.0,2.0,62,0.00,,---,0.00,VWS V14.01,2013-02-05 19:00:00,
2013-02-05 13:01:00,83.1,67.8,29.87,WSW,253,3.0,4.0,60,0.00,,---,0.00,VWS V14.01,2013-02-05 19:01:00,
2013-02-05 13:02:00,83.1,67.8,29.87,WSW,253,2.0,3.0,60,0.00,,---,0.00,VWS V14.01,2013-02-05 19:02:00,
2013-02-05 13:03:00,83.1,67.8,29.87,WSW,252,2.0,3.0,60,0.00,,---,0.00,VWS V14.01,2013-02-05 19:03:00,
2013-02-05 13:04:00,83.0,67.2,29.87,WSW,252,1.0,3.0,59,0.00,,---,0.00,VWS V14.01,2013-02-05 19:04:00,
2013-02-05 13:05:00,82.9,67.1,29.87,WSW,252,0.0,2.0,59,0.00,,---,0.00,VWS V14.01,2013-02-05 19:05:00,
2013-02-05 13:06:00,82.9,67.1,29.87,WSW,252,0.0,0.0,59,0.00,,---,0.00,VWS V14.01,2013-02-05 19:06:00,
2013-02-05 13:07:00,82.8,67.5,29.87,WSW,252,0.0,0.0,60,0.00,,---,0.00,VWS V14.01,2013-02-05 19:07:00,
2013-02-05 13:08:00,82.8,67.5,29.87,WSW,252,1.0,1.0,60,0.00,,---,0.00,VWS V14.01,2013-02-05 19:08:00,
2013-02-05 13:09:00,82.8,68.0,29.87,East,80,0.0,2.0,61,0.00,,---,0.00,VWS V14.01,2013-02-05 19:09:00,
2013-02-05 13:10:00,82.8,68.5,29.87,East,81,4.0,6.0,62,0.00,,---,0.00,VWS V14.01,2013-02-05 19:10:00,
2013-02-05 13:11:00,82.8,68.9,29.87,East,84,0.0,4.0,63,0.00,,---,0.00,VWS V14.01,2013-02-05 19:11:00,
2013-02-05 13:12:00,82.8,68.9,29.86,SE,135,5.0,5.0,63,0.00,,---,0.00,VWS V14.01,2013-02-05 19:12:00,
2013-02-05 13:13:00,82.8,69.4,29.86,SE,136,3.0,5.0,64,0.00,,---,0.00,VWS V14.01,2013-02-05 19:13:00,
2013-02-05 13:14:00,82.6,69.2,29.86,ESE,109,4.0,5.0,64,0.00,,---,0.00,VWS V14.01,2013-02-05 19:14:00,
2013-02-05 13:15:00,82.5,69.1,29.86,ESE,109,2.0,4.0,64,0.00,,---,0.00,VWS V14.01,2013-02-05 19:15:00,
2013-02-05 13:16:00,82.4,69.0,29.86,ENE,68,2.0,4.0,64,0.00,,---,0.00,VWS V14.01,2013-02-05 19:16:00,
2013-02-05 13:17:00,82.3,68.9,29.86,ENE,69,3.0,3.0,64,0.00,,---,0.00,VWS V14.01,2013-02-05 19:17:00,
2013-02-05 13:18:00,82.3,69.4,29.86,ENE,69,2.0,3.0,65,0.00,,---,0.00,VWS V14.01,2013-02-05 19:18:00,
2013-02-05 13:19:00,82.3,69.4,29.86,ENE,69,3.0,7.0,65,0.00,,---,0.00,VWS V14.01,2013-02-05 19:19:00,
2013-02-05 13:20:00,82.4,69.5,29.86,ENE,69,3.0,3.0,65,0.00,,---,0.00,VWS V14.01,2013-02-05 19:20:00,
2013-02-05 13:21:00,82.5,70.0,29.86,ENE,71,2.0,5.0,66,0.00,,---,0.00,VWS V14.01,2013-02-05 19:21:00,
2013-02-05 13:22:00,82.5,70.0,29.86,ENE,71,0.0,3.0,66,0.00,,---,0.00,VWS V14.01,2013-02-05 19:22:00,
2013-02-05 13:23:00,82.6,70.1,29.86,ENE,76,3.0,3.0,66,0.00,,---,0.00,VWS V14.01,2013-02-05 19:23:00,
2013-02-05 13:24:00,82.7,70.6,29.86,NE,41,3.0,5.0,67,0.00,,---,0.00,VWS V14.01,2013-02-05 19:24:00,
2013-02-05 13:25:00,82.9,70.8,29.86,NW,321,5.0,5.0,67,0.00,,---,0.00,VWS V14.01,2013-02-05 19:25:00,
2013-02-05 13:26:00,83.0,70.5,29.85,East,101,6.0,12.0,66,0.00,,---,0.00,VWS V14.01,2013-02-05 19:26:00,
2013-02-05 13:27:00,83.1,70.1,29.86,East,92,5.0,7.0,65,0.00,,---,0.00,VWS V14.01,2013-02-05 19:27:00,
2013-02-05 13:28:00,83.1,70.6,29.86,East,87,5.0,8.0,66,0.00,,---,0.00,VWS V14.01,2013-02-05 19:28:00,
2013-02-05 13:29:00,83.1,70.6,29.86,East,96,5.0,6.0,66,0.00,,---,0.00,VWS V14.01,2013-02-05 19:29:00,
2013-02-05 13:30:00,83.1,70.6,29.86,ENE,78,5.0,5.0,66,0.00,,---,0.00,VWS V14.01,2013-02-05 19:30:00,
2013-02-05 13:31:00,83.1,70.6,29.86,ENE,75,1.0,6.0,66,0.00,,---,0.00,VWS V14.01,2013-02-05 19:31:00,
2013-02-05 13:32:00,83.1,70.6,29.86,ESE,105,4.0,7.0,66,0.00,,---,0.00,VWS V14.01,2013-02-05 19:32:00,
2013-02-05 13:33:00,83.1,70.6,29.85,East,96,7.0,7.0,66,0.00,,---,0.00,VWS V14.01,2013-02-05 19:33:00,
2013-02-05 13:34:00,83.0,70.5,29.85,East,97,9.0,9.0,66,0.00,,---,0.00,VWS V14.01,2013-02-05 19:34:00,
2013-02-05 13:35:00,82.9,69.9,29.85,NE,56,3.0,9.0,65,0.00,,---,0.00,VWS V14.01,2013-02-05 19:35:00,
2013-02-05 13:36:00,82.9,70.4,29.85,NNE,22,1.0,4.0,66,0.00,,---,0.00,VWS V14.01,2013-02-05 19:36:00,
2013-02-05 13:37:00,82.9,70.4,29.85,NNE,19,2.0,4.0,66,0.00,,---,0.00,VWS V14.01,2013-02-05 19:37:00,
2013-02-05 13:38:00,82.8,70.3,29.85,SE,136,5.0,5.0,66,0.00,,---,0.00,VWS V14.01,2013-02-05 19:38:00,
2013-02-05 13:39:00,82.8,70.3,29.85,ENE,57,1.0,3.0,66,0.00,,---,0.00,VWS V14.01,2013-02-05 19:39:00,
2013-02-05 13:40:00,82.8,70.3,29.85,ENE,77,5.0,9.0,66,0.00,,---,0.00,VWS V14.01,2013-02-05 19:40:00,
2013-02-05 13:41:00,82.7,70.2,29.85,NNE,33,2.0,11.0,66,0.00,,---,0.00,VWS V14.01,2013-02-05 19:41:00,
2013-02-05 13:42:00,82.7,70.2,29.85,ENE,75,5.0,6.0,66,0.00,,---,0.00,VWS V14.01,2013-02-05 19:42:00,
2013-02-05 13:43:00,82.7,70.2,29.85,East,91,6.0,6.0,66,0.00,,---,0.00,VWS V14.01,2013-02-05 19:43:00,
2013-02-05 13:44:00,82.7,70.2,29.85,East,95,7.0,7.0,66,0.00,,---,0.00,VWS V14.01,2013-02-05 19:44:00,
2013-02-05 13:45:00,82.6,69.7,29.85,ENE,73,4.0,9.0,65,0.00,,---,0.00,VWS V14.01,2013-02-05 19:45:00,
2013-02-05 13:46:00,82.5,70.0,29.85,NNE,32,4.0,6.0,66,0.00,,---,0.00,VWS V14.01,2013-02-05 19:46:00,
2013-02-05 13:47:00,82.4,69.9,29.85,East,101,7.0,7.0,66,0.00,,---,0.00,VWS V14.01,2013-02-05 19:47:00,
2013-02-05 13:48:00,82.4,70.3,29.85,ESE,103,8.0,8.0,67,0.00,,---,0.00,VWS V14.01,2013-02-05 19:48:00,
2013-02-05 13:49:00,82.2,69.7,29.85,East,99,6.0,9.0,66,0.00,,---,0.00,VWS V14.01,2013-02-05 19:49:00,
2013-02-05 13:50:00,82.0,70.0,29.85,East,86,4.0,9.0,67,0.00,,---,0.00,VWS V14.01,2013-02-05 19:50:00,
2013-02-05 13:51:00,82.0,70.0,29.85,East,83,5.0,7.0,67,0.00,,---,0.00,VWS V14.01,2013-02-05 19:51:00,
2013-02-05 13:52:00,81.9,69.9,29.85,East,98,9.0,11.0,67,0.00,,---,0.00,VWS V14.01,2013-02-05 19:52:00,
2013-02-05 13:53:00,81.9,69.9,29.85,ESE,105,12.0,12.0,67,0.00,,---,0.00,VWS V14.01,2013-02-05 19:53:00,
2013-02-05 13:54:00,81.7,69.7,29.85,ESE,109,10.0,10.0,67,0.00,,---,0.00,VWS V14.01,2013-02-05 19:54:00,
2013-02-05 13:55:00,81.5,69.5,29.84,East,88,7.0,12.0,67,0.00,,---,0.00,VWS V14.01,2013-02-05 19:55:00,
2013-02-05 13:56:00,81.4,69.4,29.84,East,96,6.0,10.0,67,0.00,,---,0.00,VWS V14.01,2013-02-05 19:56:00,
2013-02-05 13:57:00,81.2,69.2,29.84,ESE,106,7.0,9.0,67,0.00,,---,0.00,VWS V14.01,2013-02-05 19:57:00,
2013-02-05 13:58:00,81.1,69.6,29.84,ESE,115,6.0,7.0,68,0.00,,---,0.00,VWS V14.01,2013-02-05 19:58:00,
2013-02-05 13:59:00,80.9,69.4,29.84,ENE,78,10.0,11.0,68,0.00,,---,0.00,VWS V14.01,2013-02-05 19:59:00,
2013-02-05 14:00:00,80.7,69.2,29.84,East,79,5.0,11.0,68,0.00,,---,0.00,VWS V14.01,2013-02-05 20:00:00,
2013-02-05 14:01:00,80.6,69.1,29.84,ESE,122,11.0,11.0,68,0.00,,---,0.00,VWS V14.01,2013-02-05 20:01:00,
2013-02-05 14:02:00,80.6,69.5,29.84,ESE,109,11.0,11.0,69,0.00,,---,0.00,VWS V14.01,2013-02-05 20:02:00,
2013-02-05 14:03:00,80.6,69.5,29.84,ESE,104,9.0,12.0,69,0.00,,---,0.00,VWS V14.01,2013-02-05 20:03:00,
2013-02-05 14:04:00,80.7,70.0,29.84,East,99,6.0,9.0,70,0.00,,---,0.00,VWS V14.01,2013-02-05 20:04:00,
2013-02-05 14:05:00,80.8,69.7,29.84,SE,125,11.0,13.0,69,0.00,,---,0.00,VWS V14.01,2013-02-05 20:05:00,
2013-02-05 14:06:00,80.9,69.8,29.84,East,96,6.0,11.0,69,0.00,,---,0.00,VWS V14.01,2013-02-05 20:06:00,
2013-02-05 14:07:00,81.0,70.3,29.84,ESE,104,7.0,10.0,70,0.00,,---,0.00,VWS V14.01,2013-02-05 20:07:00,
2013-02-05 14:08:00,81.0,70.3,29.84,East,98,9.0,9.0,70,0.00,,---,0.00,VWS V14.01,2013-02-05 20:08:00,
2013-02-05 14:09:00,81.0,69.9,29.84,ESE,105,12.0,12.0,69,0.00,,---,0.00,VWS V14.01,2013-02-05 20:09:00,
2013-02-05 14:10:00,81.0,69.9,29.84,ESE,120,7.0,17.0,69,0.00,,---,0.00,VWS V14.01,2013-02-05 20:10:00,
2013-02-05 14:11:00,80.9,69.8,29.84,East,101,13.0,17.0,69,0.00,,---,0.00,VWS V14.01,2013-02-05 20:11:00,
2013-02-05 14:12:00,80.6,69.5,29.84,SE,128,5.0,13.0,69,0.00,,---,0.00,VWS V14.01,2013-02-05 20:12:00,
2013-02-05 14:13:00,80.6,69.5,29.84,ESE,111,9.0,9.0,69,0.00,,---,0.00,VWS V14.01,2013-02-05 20:13:00,
2013-02-05 14:14:00,80.4,69.7,29.84,SE,142,11.0,14.0,70,0.00,,---,0.00,VWS V14.01,2013-02-05 20:14:00,
2013-02-05 14:15:00,80.5,69.8,29.84,ESE,121,9.0,14.0,70,0.00,,---,0.00,VWS V14.01,2013-02-05 20:15:00,
2013-02-05 14:16:00,80.5,69.8,29.84,East,100,11.0,11.0,70,0.00,,---,0.00,VWS V14.01,2013-02-05 20:16:00,
2013-02-05 14:17:00,80.4,69.3,29.84,East,79,8.0,11.0,69,0.00,,---,0.00,VWS V14.01,2013-02-05 20:17:00,
2013-02-05 14:18:00,80.4,69.3,29.84,ESE,102,7.0,10.0,69,0.00,,---,0.00,VWS V14.01,2013-02-05 20:18:00,
2013-02-05 14:19:00,80.1,69.0,29.84,ESE,115,6.0,10.0,69,0.00,,---,0.00,VWS V14.01,2013-02-05 20:19:00,
2013-02-05 14:20:00,80.0,69.3,29.84,ESE,102,4.0,9.0,70,0.00,,---,0.00,VWS V14.01,2013-02-05 20:20:00,
2013-02-05 14:21:00,79.9,69.2,29.84,East,97,9.0,10.0,70,0.00,,---,0.00,VWS V14.01,2013-02-05 20:21:00,
2013-02-05 14:22:00,79.8,69.2,29.84,East,101,10.0,10.0,70,0.00,,---,0.00,VWS V14.01,2013-02-05 20:22:00,
2013-02-05 14:23:00,79.8,69.2,29.84,ESE,109,7.0,10.0,70,0.00,,---,0.00,VWS V14.01,2013-02-05 20:23:00,
2013-02-05 14:24:00,79.7,69.1,29.84,East,91,6.0,11.0,70,0.00,,---,0.00,VWS V14.01,2013-02-05 20:24:00,
2013-02-05 14:25:00,79.6,69.0,29.84,East,84,5.0,11.0,70,0.00,,---,0.00,VWS V14.01,2013-02-05 20:25:00,
2013-02-05 14:26:00,79.6,69.4,29.84,East,99,4.0,10.0,71,0.00,,---,0.00,VWS V14.01,2013-02-05 20:26:00,
2013-02-05 14:27:00,79.6,69.4,29.84,ESE,106,7.0,9.0,71,0.00,,---,0.00,VWS V14.01,2013-02-05 20:27:00,
2013-02-05 14:28:00,79.6,69.4,29.84,ESE,102,6.0,7.0,71,0.00,,---,0.00,VWS V14.01,2013-02-05 20:28:00,
2013-02-05 14:29:00,79.7,69.1,29.84,East,99,10.0,11.0,70,0.00,,---,0.00,VWS V14.01,2013-02-05 20:29:00,
2013-02-05 14:30:00,79.6,69.0,29.84,ESE,114,6.0,12.0,70,0.00,,---,0.00,VWS V14.01,2013-02-05 20:30:00,
2013-02-05 14:31:00,79.4,68.8,29.84,ESE,102,6.0,13.0,70,0.00,,---,0.00,VWS V14.01,2013-02-05 20:31:00,
2013-02-05 14:32:00,79.3,68.7,29.84,ESE,103,9.0,9.0,70,0.00,,---,0.00,VWS V14.01,2013-02-05 20:32:00,
2013-02-05 14:33:00,79.2,68.6,29.84,ESE,123,7.0,10.0,70,0.00,,---,0.00,VWS V14.01,2013-02-05 20:33:00,
2013-02-05 14:34:00,79.0,68.8,29.84,ESE,109,10.0,11.0,71,0.00,,---,0.00,VWS V14.01,2013-02-05 20:34:00,
2013-02-05 14:35:00,78.8,68.6,29.84,East,80,13.0,13.0,71,0.00,,---,0.00,VWS V14.01,2013-02-05 20:35:00,
2013-02-05 14:36:00,78.7,68.9,29.84,East,90,7.0,13.0,72,0.00,,---,0.00,VWS V14.01,2013-02-05 20:36:00,
2013-02-05 14:37:00,78.6,68.8,29.84,ESE,103,9.0,11.0,72,0.00,,---,0.00,VWS V14.01,2013-02-05 20:37:00,
2013-02-05 14:38:00,78.6,68.8,29.84,East,97,5.0,9.0,72,0.00,,---,0.00,VWS V14.01,2013-02-05 20:38:00,
2013-02-05 14:39:00,78.4,68.6,29.84,ESE,111,8.0,11.0,72,0.00,,---,0.00,VWS V14.01,2013-02-05 20:39:00,
2013-02-05 14:40:00,78.4,68.6,29.84,ESE,105,8.0,11.0,72,0.00,,---,0.00,VWS V14.01,2013-02-05 20:40:00,
2013-02-05 14:41:00,78.4,69.0,29.84,East,99,7.0,11.0,73,0.00,,---,0.00,VWS V14.01,2013-02-05 20:41:00,
2013-02-05 14:42:00,78.4,68.6,29.84,East,100,11.0,11.0,72,0.00,,---,0.00,VWS V14.01,2013-02-05 20:42:00,
2013-02-05 14:43:00,78.4,68.6,29.84,ESE,113,9.0,11.0,72,0.00,,---,0.00,VWS V14.01,2013-02-05 20:43:00,
2013-02-05 14:44:00,78.3,68.9,29.84,East,98,7.0,11.0,73,0.00,,---,0.00,VWS V14.01,2013-02-05 20:44:00,
2013-02-05 14:45:00,78.3,68.9,29.83,East,101,11.0,11.0,73,0.00,,---,0.00,VWS V14.01,2013-02-05 20:45:00,
2013-02-05 14:46:00,78.4,69.0,29.83,ESE,105,10.0,11.0,73,0.00,,---,0.00,VWS V14.01,2013-02-05 20:46:00,
2013-02-05 14:47:00,78.4,69.0,29.84,East,101,9.0,10.0,73,0.00,,---,0.00,VWS V14.01,2013-02-05 20:47:00,
2013-02-05 14:48:00,78.4,69.0,29.83,ESE,103,8.0,9.0,73,0.00,,---,0.00,VWS V14.01,2013-02-05 20:48:00,
2013-02-05 14:49:00,78.4,68.6,29.83,East,88,10.0,11.0,72,0.00,,---,0.00,VWS V14.01,2013-02-05 20:49:00,
2013-02-05 14:50:00,78.4,69.0,29.84,ESE,103,10.0,10.0,73,0.00,,---,0.00,VWS V14.01,2013-02-05 20:50:00,
2013-02-05 14:51:00,78.4,68.6,29.83,ESE,107,11.0,12.0,72,0.00,,---,0.00,VWS V14.01,2013-02-05 20:51:00,
2013-02-05 14:52:00,78.3,68.9,29.83,East,99,9.0,12.0,73,0.00,,---,0.00,VWS V14.01,2013-02-05 20:52:00,
2013-02-05 14:53:00,78.3,68.9,29.83,East,98,7.0,9.0,73,0.00,,---,0.00,VWS V14.01,2013-02-05 20:53:00,
2013-02-05 14:54:00,78.3,68.9,29.83,East,97,5.0,10.0,73,0.00,,---,0.00,VWS V14.01,2013-02-05 20:54:00,
2013-02-05 14:55:00,78.3,68.9,29.83,ESE,102,9.0,10.0,73,0.00,,---,0.00,VWS V14.01,2013-02-05 20:55:00,
2013-02-05 14:56:00,78.3,68.9,29.83,ESE,103,10.0,10.0,73,0.00,,---,0.00,VWS V14.01,2013-02-05 20:56:00,
2013-02-05 14:57:00,78.4,69.0,29.83,ESE,110,6.0,10.0,73,0.00,,---,0.00,VWS V14.01,2013-02-05 20:57:00,
2013-02-05 14:58:00,78.4,69.4,29.84,ESE,118,6.0,6.0,74,0.00,,---,0.00,VWS V14.01,2013-02-05 20:58:00,
2013-02-05 14:59:00,78.5,69.1,29.84,ESE,105,7.0,10.0,73,0.00,,---,0.00,VWS V14.01,2013-02-05 20:59:00,
2013-02-05 15:00:00,78.5,68.7,29.83,East,92,7.0,10.0,72,0.00,,---,0.00,VWS V14.01,2013-02-05 21:00:00,
2013-02-05 15:01:00,78.5,69.1,29.83,East,98,6.0,10.0,73,0.00,,---,0.00,VWS V14.01,2013-02-05 21:01:00,
2013-02-05 15:02:00,78.5,69.1,29.84,ESE,106,6.0,10.0,73,0.00,,---,0.00,VWS V14.01,2013-02-05 21:02:00,
2013-02-05 15:03:00,78.5,69.1,29.84,ESE,109,10.0,10.0,73,0.00,,---,0.00,VWS V14.01,2013-02-05 21:03:00,
2013-02-05 15:04:00,78.4,68.6,29.84,ESE,105,7.0,9.0,72,0.00,,---,0.00,VWS V14.01,2013-02-05 21:04:00,
2013-02-05 15:05:00,78.4,69.0,29.83,East,101,6.0,12.0,73,0.00,,---,0.00,VWS V14.01,2013-02-05 21:05:00,
2013-02-05 15:06:00,78.3,68.5,29.83,ESE,105,6.0,10.0,72,0.00,,---,0.00,VWS V14.01,2013-02-05 21:06:00,
2013-02-05 15:07:00,78.3,68.5,29.83,East,98,8.0,9.0,72,0.00,,---,0.00,VWS V14.01,2013-02-05 21:07:00,
2013-02-05 15:08:00,78.3,68.5,29.83,East,100,11.0,11.0,72,0.00,,---,0.00,VWS V14.01,2013-02-05 21:08:00,
2013-02-05 15:09:00,78.3,68.5,29.83,SE,124,7.0,10.0,72,0.00,,---,0.00,VWS V14.01,2013-02-05 21:09:00,
2013-02-05 15:10:00,78.2,68.8,29.83,ESE,106,6.0,10.0,73,0.00,,---,0.00,VWS V14.01,2013-02-05 21:10:00,
2013-02-05 15:11:00,78.2,68.8,29.83,East,92,7.0,7.0,73,0.00,,---,0.00,VWS V14.01,2013-02-05 21:11:00,
2013-02-05 15:12:00,78.2,68.8,29.83,ESE,106,6.0,7.0,73,0.00,,---,0.00,VWS V14.01,2013-02-05 21:12:00,
2013-02-05 15:13:00,78.2,68.8,29.83,East,98,6.0,7.0,73,0.00,,---,0.00,VWS V14.01,2013-02-05 21:13:00,
2013-02-05 15:14:00,78.2,68.8,29.83,ESE,115,6.0,7.0,73,0.00,,---,0.00,VWS V14.01,2013-02-05 21:14:00,
2013-02-05 15:15:00,78.2,68.8,29.83,East,91,5.0,9.0,73,0.00,,---,0.00,VWS V14.01,2013-02-05 21:15:00,
2013-02-05 15:16:00,78.2,68.8,29.83,ESE,102,9.0,9.0,73,0.00,,---,0.00,VWS V14.01,2013-02-05 21:16:00,
2013-02-05 15:17:00,78.2,68.4,29.83,East,88,6.0,9.0,72,0.00,,---,0.00,VWS V14.01,2013-02-05 21:17:00,
2013-02-05 15:18:00,78.2,68.4,29.84,ESE,107,6.0,6.0,72,0.00,,---,0.00,VWS V14.01,2013-02-05 21:18:00,
2013-02-05 15:19:00,78.1,68.8,29.84,ESE,106,10.0,10.0,73,0.00,,---,0.00,VWS V14.01,2013-02-05 21:19:00,
2013-02-05 15:20:00,78.0,68.7,29.83,ESE,110,4.0,10.0,73,0.00,,---,0.00,VWS V14.01,2013-02-05 21:20:00,
2013-02-05 15:21:00,78.0,68.7,29.83,East,97,7.0,11.0,73,0.00,,---,0.00,VWS V14.01,2013-02-05 21:21:00,
2013-02-05 15:22:00,77.9,68.6,29.83,ESE,118,7.0,8.0,73,0.00,,---,0.00,VWS V14.01,2013-02-05 21:22:00,
2013-02-05 15:23:00,77.9,68.6,29.83,ESE,119,6.0,7.0,73,0.00,,---,0.00,VWS V14.01,2013-02-05 21:23:00,
2013-02-05 15:24:00,78.0,69.1,29.83,ESE,107,9.0,9.0,74,0.00,,---,0.00,VWS V14.01,2013-02-05 21:24:00,
2013-02-05 15:25:00,78.1,69.1,29.83,ESE,109,9.0,10.0,74,0.00,,---,0.00,VWS V14.01,2013-02-05 21:25:00,
2013-02-05 15:26:00,78.2,68.8,29.83,East,92,7.0,9.0,73,0.00,,---,0.00,VWS V14.01,2013-02-05 21:26:00,
2013-02-05 15:27:00,78.2,68.8,29.83,East,80,6.0,10.0,73,0.00,,---,0.00,VWS V14.01,2013-02-05 21:27:00,
2013-02-05 15:28:00,78.2,68.8,29.83,East,87,9.0,9.0,73,0.00,,---,0.00,VWS V14.01,2013-02-05 21:28:00,
2013-02-05 15:29:00,78.2,68.4,29.83,ESE,103,4.0,9.0,72,0.00,,---,0.00,VWS V14.01,2013-02-05 21:29:00,
2013-02-05 15:30:00,78.2,68.4,29.83,ESE,108,7.0,8.0,72,0.00,,---,0.00,VWS V14.01,2013-02-05 21:30:00,
2013-02-05 15:31:00,78.3,68.5,29.83,SE,128,7.0,10.0,72,0.00,,---,0.00,VWS V14.01,2013-02-05 21:31:00,
2013-02-05 15:32:00,78.3,68.9,29.83,East,88,5.0,11.0,73,0.00,,---,0.00,VWS V14.01,2013-02-05 21:32:00,
2013-02-05 15:33:00,78.3,68.9,29.83,East,96,5.0,5.0,73,0.00,,---,0.00,VWS V14.01,2013-02-05 21:33:00,
2013-02-05 15:34:00,78.5,68.7,29.83,ESE,102,7.0,9.0,72,0.00,,---,0.00,VWS V14.01,2013-02-05 21:34:00,
2013-02-05 15:35:00,78.5,68.7,29.83,ESE,119,10.0,10.0,72,0.00,,---,0.00,VWS V14.01,2013-02-05 21:35:00,
2013-02-05 15:36:00,78.6,68.8,29.83,East,99,7.0,10.0,72,0.00,,---,0.00,VWS V14.01,2013-02-05 21:36:00,
2013-02-05 15:37:00,78.6,68.8,29.83,East,98,5.0,7.0,72,0.00,,---,0.00,VWS V14.01,2013-02-05 21:37:00,
2013-02-05 15:38:00,78.6,68.8,29.83,East,92,7.0,7.0,72,0.00,,---,0.00,VWS V14.01,2013-02-05 21:38:00,
2013-02-05 15:39:00,78.5,68.7,29.83,ESE,106,6.0,11.0,72,0.00,,---,0.00,VWS V14.01,2013-02-05 21:39:00,
2013-02-05 15:40:00,78.5,68.7,29.83,ESE,103,6.0,9.0,72,0.00,,---,0.00,VWS V14.01,2013-02-05 21:40:00,
2013-02-05 15:41:00,78.4,68.6,29.83,ESE,109,7.0,7.0,72,0.00,,---,0.00,VWS V14.01,2013-02-05 21:41:00,
2013-02-05 15:42:00,78.4,68.6,29.83,ESE,119,4.0,7.0,72,0.00,,---,0.00,VWS V14.01,2013-02-05 21:42:00,
2013-02-05 15:43:00,78.4,68.6,29.83,ESE,103,5.0,5.0,72,0.00,,---,0.00,VWS V14.01,2013-02-05 21:43:00,
2013-02-05 15:44:00,78.3,68.5,29.83,ESE,105,5.0,7.0,72,0.00,,---,0.00,VWS V14.01,2013-02-05 21:44:00,
2013-02-05 15:45:00,78.3,68.5,29.83,East,94,6.0,9.0,72,0.00,,---,0.00,VWS V14.01,2013-02-05 21:45:00,
2013-02-05 15:46:00,78.3,68.5,29.83,East,80,7.0,9.0,72,0.00,,---,0.00,VWS V14.01,2013-02-05 21:46:00,
2013-02-05 15:47:00,78.4,68.6,29.83,East,98,8.0,8.0,72,0.00,,---,0.00,VWS V14.01,2013-02-05 21:47:00,
2013-02-05 15:48:00,78.4,68.6,29.83,East,99,9.0,9.0,72,0.00,,---,0.00,VWS V14.01,2013-02-05 21:48:00,
2013-02-05 15:49:00,78.5,68.7,29.83,ESE,119,6.0,9.0,72,0.00,,---,0.00,VWS V14.01,2013-02-05 21:49:00,
2013-02-05 15:50:00,78.5,68.7,29.83,ESE,103,7.0,10.0,72,0.00,,---,0.00,VWS V14.01,2013-02-05 21:50:00,
2013-02-05 15:51:00,78.5,68.3,29.83,East,101,8.0,9.0,71,0.00,,---,0.00,VWS V14.01,2013-02-05 21:51:00,
2013-02-05 15:52:00,78.5,68.3,29.83,East,96,7.0,9.0,71,0.00,,---,0.00,VWS V14.01,2013-02-05 21:52:00,
2013-02-05 15:53:00,78.6,68.4,29.83,East,94,6.0,7.0,71,0.00,,---,0.00,VWS V14.01,2013-02-05 21:53:00,
2013-02-05 15:54:00,78.7,68.5,29.82,ESE,117,10.0,10.0,71,0.00,,---,0.00,VWS V14.01,2013-02-05 21:54:00,
2013-02-05 15:55:00,78.6,68.0,29.82,East,96,11.0,11.0,70,0.00,,---,0.00,VWS V14.01,2013-02-05 21:55:00,
2013-02-05 15:56:00,78.6,68.0,29.82,East,96,11.0,11.0,70,0.00,,---,0.00,VWS V14.01,2013-02-05 21:56:00,
2013-02-05 15:57:00,78.6,68.0,29.82,ESE,105,10.0,11.0,70,0.00,,---,0.00,VWS V14.01,2013-02-05 21:57:00,
2013-02-05 15:58:00,78.6,68.0,29.82,ESE,102,11.0,11.0,70,0.00,,---,0.00,VWS V14.01,2013-02-05 21:58:00,
2013-02-05 15:59:00,78.5,68.3,29.82,ESE,104,9.0,12.0,71,0.00,,---,0.00,VWS V14.01,2013-02-05 21:59:00,
2013-02-05 16:00:00,78.5,67.9,29.82,ESE,111,10.0,11.0,70,0.00,,---,0.00,VWS V14.01,2013-02-05 22:00:00,
2013-02-05 16:01:00,78.5,67.9,29.82,SE,130,10.0,11.0,70,0.00,,---,0.00,VWS V14.01,2013-02-05 22:01:00,
2013-02-05 16:02:00,78.4,67.8,29.82,ESE,106,5.0,10.0,70,0.00,,---,0.00,VWS V14.01,2013-02-05 22:02:00,
2013-02-05 16:03:00,78.4,67.8,29.82,ESE,115,7.0,7.0,70,0.00,,---,0.00,VWS V14.01,2013-02-05 22:03:00,
2013-02-05 16:04:00,78.4,67.8,29.82,ESE,118,3.0,7.0,70,0.00,,---,0.00,VWS V14.01,2013-02-05 22:04:00,
2013-02-05 16:05:00,78.4,67.8,29.82,ESE,111,4.0,7.0,70,0.00,,---,0.00,VWS V14.01,2013-02-05 22:05:00,
2013-02-05 16:06:00,78.5,67.9,29.82,ESE,111,6.0,6.0,70,0.00,,---,0.00,VWS V14.01,2013-02-05 22:06:00,
2013-02-05 16:07:00,78.5,67.9,29.82,ESE,118,6.0,7.0,70,0.00,,---,0.00,VWS V14.01,2013-02-05 22:07:00,
2013-02-05 16:08:00,78.5,67.9,29.82,ESE,103,6.0,6.0,70,0.00,,---,0.00,VWS V14.01,2013-02-05 22:08:00,
2013-02-05 16:09:00,78.6,68.0,29.82,East,101,9.0,9.0,70,0.00,,---,0.00,VWS V14.01,2013-02-05 22:09:00,
2013-02-05 16:10:00,78.5,67.5,29.82,East,99,7.0,11.0,69,0.00,,---,0.00,VWS V14.01,2013-02-05 22:10:00,
2013-02-05 16:11:00,78.4,67.4,29.82,ESE,122,10.0,10.0,69,0.00,,---,0.00,VWS V14.01,2013-02-05 22:11:00,
2013-02-05 16:12:00,78.3,67.7,29.82,East,95,7.0,11.0,70,0.00,,---,0.00,VWS V14.01,2013-02-05 22:12:00,
2013-02-05 16:13:00,78.3,67.7,29.82,ESE,103,9.0,9.0,70,0.00,,---,0.00,VWS V14.01,2013-02-05 22:13:00,
2013-02-05 16:14:00,78.1,67.5,29.82,ESE,115,10.0,10.0,70,0.00,,---,0.00,VWS V14.01,2013-02-05 22:14:00,
2013-02-05 16:15:00,78.0,67.4,29.82,ESE,117,10.0,10.0,70,0.00,,---,0.00,VWS V14.01,2013-02-05 22:15:00,
2013-02-05 16:16:00,77.9,67.3,29.82,SE,124,10.0,10.0,70,0.00,,---,0.00,VWS V14.01,2013-02-05 22:16:00,
2013-02-05 16:17:00,77.8,67.2,29.82,SE,128,6.0,11.0,70,0.00,,---,0.00,VWS V14.01,2013-02-05 22:17:00,
2013-02-05 16:18:00,77.8,67.2,29.82,SE,128,7.0,7.0,70,0.00,,---,0.00,VWS V14.01,2013-02-05 22:18:00,
2013-02-05 16:19:00,77.5,67.4,29.82,ESE,104,8.0,11.0,71,0.00,,---,0.00,VWS V14.01,2013-02-05 22:19:00,
2013-02-05 16:20:00,77.4,67.3,29.83,ESE,115,5.0,9.0,71,0.00,,---,0.00,VWS V14.01,2013-02-05 22:20:00,
2013-02-05 16:21:00,77.4,67.3,29.82,ESE,102,9.0,9.0,71,0.00,,---,0.00,VWS V14.01,2013-02-05 22:21:00,
2013-02-05 16:22:00,77.3,67.2,29.82,East,90,7.0,9.0,71,0.00,,---,0.00,VWS V14.01,2013-02-05 22:22:00,
2013-02-05 16:23:00,77.3,67.2,29.82,East,90,7.0,9.0,71,0.00,,---,0.00,VWS V14.01,2013-02-05 22:23:00,
2013-02-05 16:24:00,77.1,67.0,29.82,ESE,106,10.0,10.0,71,0.00,,---,0.00,VWS V14.01,2013-02-05 22:24:00,
2013-02-05 16:25:00,77.0,66.9,29.82,ESE,106,6.0,10.0,71,0.00,,---,0.00,VWS V14.01,2013-02-05 22:25:00,
2013-02-05 16:26:00,76.9,67.2,29.82,ESE,107,5.0,7.0,72,0.00,,---,0.00,VWS V14.01,2013-02-05 22:26:00,
2013-02-05 16:27:00,76.9,67.2,29.82,East,92,7.0,9.0,72,0.00,,---,0.00,VWS V14.01,2013-02-05 22:27:00,
2013-02-05 16:28:00,76.9,67.2,29.82,East,92,7.0,9.0,72,0.00,,---,0.00,VWS V14.01,2013-02-05 22:28:00,
2013-02-05 16:29:00,76.7,66.6,29.82,ESE,111,10.0,12.0,71,0.00,,---,0.00,VWS V14.01,2013-02-05 22:29:00,
2013-02-05 16:30:00,76.7,67.0,29.82,East,99,9.0,10.0,72,0.00,,---,0.00,VWS V14.01,2013-02-05 22:30:00,
2013-02-05 16:31:00,76.7,67.0,29.82,ESE,111,9.0,11.0,72,0.00,,---,0.00,VWS V14.01,2013-02-05 22:31:00,
2013-02-05 16:32:00,76.6,66.9,29.82,East,98,7.0,12.0,72,0.00,,---,0.00,VWS V14.01,2013-02-05 22:32:00,
2013-02-05 16:33:00,76.6,66.9,29.82,ESE,105,10.0,10.0,72,0.00,,---,0.00,VWS V14.01,2013-02-05 22:33:00,
2013-02-05 16:34:00,76.5,67.2,29.82,East,97,10.0,12.0,73,0.00,,---,0.00,VWS V14.01,2013-02-05 22:34:00,
2013-02-05 16:35:00,76.4,67.5,29.82,East,99,9.0,12.0,74,0.00,,---,0.00,VWS V14.01,2013-02-05 22:35:00,
2013-02-05 16:36:00,76.4,67.5,29.82,ESE,103,9.0,11.0,74,0.00,,---,0.00,VWS V14.01,2013-02-05 22:36:00,
2013-02-05 16:37:00,76.3,67.4,29.82,ESE,105,7.0,10.0,74,0.00,,---,0.00,VWS V14.01,2013-02-05 22:37:00,
2013-02-05 16:38:00,76.3,67.4,29.82,ESE,105,7.0,10.0,74,0.00,,---,0.00,VWS V14.01,2013-02-05 22:38:00,
2013-02-05 16:39:00,76.2,67.7,29.82,East,101,8.0,10.0,75,0.00,,---,0.00,VWS V14.01,2013-02-05 22:39:00,
2013-02-05 16:40:00,76.1,67.6,29.82,ESE,111,6.0,9.0,75,0.00,,---,0.00,VWS V14.01,2013-02-05 22:40:00,
2013-02-05 16:41:00,76.0,67.5,29.82,ESE,102,10.0,10.0,75,0.00,,---,0.00,VWS V14.01,2013-02-05 22:41:00,
2013-02-05 16:42:00,76.0,67.5,29.82,East,101,6.0,10.0,75,0.00,,---,0.00,VWS V14.01,2013-02-05 22:42:00,
2013-02-05 16:43:00,76.0,67.5,29.82,ESE,103,9.0,9.0,75,0.00,,---,0.00,VWS V14.01,2013-02-05 22:43:00,
2013-02-05 16:44:00,75.8,67.7,29.82,ESE,108,7.0,12.0,76,0.00,,---,0.00,VWS V14.01,2013-02-05 22:44:00,
2013-02-05 16:45:00,75.8,67.7,29.82,ESE,103,11.0,13.0,76,0.00,,---,0.00,VWS V14.01,2013-02-05 22:45:00,
2013-02-05 16:46:00,75.7,67.6,29.82,ESE,103,7.0,11.0,76,0.00,,---,0.00,VWS V14.01,2013-02-05 22:46:00,
2013-02-05 16:47:00,75.6,67.5,29.82,ESE,105,6.0,10.0,76,0.00,,---,0.00,VWS V14.01,2013-02-05 22:47:00,
2013-02-05 16:48:00,75.6,67.5,29.82,East,91,6.0,6.0,76,0.00,,---,0.00,VWS V14.01,2013-02-05 22:48:00,
2013-02-05 16:49:00,75.5,67.8,29.82,ESE,117,7.0,10.0,77,0.00,,---,0.00,VWS V14.01,2013-02-05 22:49:00,
2013-02-05 16:50:00,75.4,67.7,29.82,ESE,105,10.0,12.0,77,0.00,,---,0.00,VWS V14.01,2013-02-05 22:50:00,
2013-02-05 16:51:00,75.3,67.2,29.82,ESE,103,12.0,12.0,76,0.00,,---,0.00,VWS V14.01,2013-02-05 22:51:00,
2013-02-05 16:52:00,75.2,67.5,29.82,ESE,120,9.0,12.0,77,0.00,,---,0.00,VWS V14.01,2013-02-05 22:52:00,
2013-02-05 16:53:00,75.2,67.5,29.82,ESE,111,7.0,9.0,77,0.00,,---,0.00,VWS V14.01,2013-02-05 22:53:00,
2013-02-05 16:54:00,75.1,67.4,29.82,ESE,103,7.0,10.0,77,0.00,,---,0.00,VWS V14.01,2013-02-05 22:54:00,
2013-02-05 16:55:00,75.0,67.3,29.82,ESE,109,12.0,12.0,77,0.00,,---,0.00,VWS V14.01,2013-02-05 22:55:00,
2013-02-05 16:56:00,74.9,67.2,29.82,East,97,10.0,12.0,77,0.00,,---,0.00,VWS V14.01,2013-02-05 22:56:00,
2013-02-05 16:57:00,74.9,67.6,29.82,ESE,107,9.0,11.0,78,0.00,,---,0.00,VWS V14.01,2013-02-05 22:57:00,
2013-02-05 16:58:00,74.8,67.5,29.83,ESE,105,10.0,10.0,78,0.00,,---,0.00,VWS V14.01,2013-02-05 22:58:00,
2013-02-05 16:59:00,74.8,67.5,29.83,East,100,7.0,10.0,78,0.00,,---,0.00,VWS V14.01,2013-02-05 22:59:00,
2013-02-05 17:00:00,74.7,67.4,29.83,ESE,122,7.0,10.0,78,0.00,,---,0.00,VWS V14.01,2013-02-05 23:00:00,
2013-02-05 17:01:00,74.7,67.8,29.83,East,99,7.0,10.0,79,0.00,,---,0.00,VWS V14.01,2013-02-05 23:01:00,
2013-02-05 17:02:00,74.7,67.8,29.83,ESE,115,9.0,11.0,79,0.00,,---,0.00,VWS V14.01,2013-02-05 23:02:00,
2013-02-05 17:03:00,74.7,67.8,29.83,ESE,115,9.0,11.0,79,0.00,,---,0.00,VWS V14.01,2013-02-05 23:03:00,
2013-02-05 17:04:00,74.5,67.6,29.83,ESE,121,6.0,10.0,79,0.00,,---,0.00,VWS V14.01,2013-02-05 23:04:00,
2013-02-05 17:05:00,74.4,67.5,29.83,East,97,9.0,10.0,79,0.00,,---,0.00,VWS V14.01,2013-02-05 23:05:00,
2013-02-05 17:06:00,74.3,67.4,29.83,East,99,9.0,12.0,79,0.00,,---,0.00,VWS V14.01,2013-02-05 23:06:00,
2013-02-05 17:07:00,74.1,67.5,29.83,East,101,7.0,10.0,80,0.00,,---,0.00,VWS V14.01,2013-02-05 23:07:00,
2013-02-05 17:08:00,74.1,67.5,29.83,East,101,7.0,10.0,80,0.00,,---,0.00,VWS V14.01,2013-02-05 23:08:00,
2013-02-05 17:09:00,73.9,67.3,29.83,East,99,6.0,10.0,80,0.00,,---,0.00,VWS V14.01,2013-02-05 23:09:00,
2013-02-05 17:10:00,73.8,67.6,29.83,ESE,105,6.0,10.0,81,0.00,,---,0.00,VWS V14.01,2013-02-05 23:10:00,
2013-02-05 17:11:00,73.7,67.5,29.83,East,98,8.0,10.0,81,0.00,,---,0.00,VWS V14.01,2013-02-05 23:11:00,
2013-02-05 17:12:00,73.6,67.4,29.83,ESE,111,8.0,10.0,81,0.00,,---,0.00,VWS V14.01,2013-02-05 23:12:00,
2013-02-05 17:13:00,73.6,67.4,29.83,ESE,111,8.0,10.0,81,0.00,,---,0.00,VWS V14.01,2013-02-05 23:13:00,
2013-02-05 17:14:00,73.4,67.2,29.83,ESE,109,10.0,10.0,81,0.00,,---,0.00,VWS V14.01,2013-02-05 23:14:00,
2013-02-05 17:15:00,73.3,67.5,29.83,East,101,9.0,10.0,82,0.00,,---,0.00,VWS V14.01,2013-02-05 23:15:00,
2013-02-05 17:16:00,73.3,67.5,29.83,ESE,105,10.0,10.0,82,0.00,,---,0.00,VWS V14.01,2013-02-05 23:16:00,
2013-02-05 17:17:00,73.2,67.4,29.83,ESE,115,11.0,12.0,82,0.00,,---,0.00,VWS V14.01,2013-02-05 23:17:00,
2013-02-05 17:18:00,73.2,67.4,29.83,ESE,115,11.0,12.0,82,0.00,,---,0.00,VWS V14.01,2013-02-05 23:18:00,
2013-02-05 17:19:00,72.9,67.1,29.83,East,97,11.0,12.0,82,0.00,,---,0.00,VWS V14.01,2013-02-05 23:19:00,
2013-02-05 17:20:00,72.7,67.2,29.83,ESE,105,9.0,12.0,83,0.00,,---,0.00,VWS V14.01,2013-02-05 23:20:00,
2013-02-05 17:21:00,72.6,67.2,29.83,SE,125,9.0,11.0,83,0.00,,---,0.00,VWS V14.01,2013-02-05 23:21:00,
2013-02-05 17:22:00,72.5,67.1,29.83,ESE,110,9.0,12.0,83,0.00,,---,0.00,VWS V14.01,2013-02-05 23:22:00,
2013-02-05 17:23:00,72.5,67.1,29.83,ESE,110,9.0,12.0,83,0.00,,---,0.00,VWS V14.01,2013-02-05 23:23:00,
2013-02-05 17:24:00,72.4,67.3,29.83,ESE,115,3.0,7.0,84,0.00,,---,0.00,VWS V14.01,2013-02-05 23:24:00,
2013-02-05 17:25:00,72.3,67.2,29.83,SE,130,7.0,12.0,84,0.00,,---,0.00,VWS V14.01,2013-02-05 23:25:00,
2013-02-05 17:26:00,72.3,67.2,29.83,ESE,121,7.0,9.0,84,0.00,,---,0.00,VWS V14.01,2013-02-05 23:26:00,
2013-02-05 17:27:00,72.3,67.2,29.83,SE,137,9.0,12.0,84,0.00,,---,0.00,VWS V14.01,2013-02-05 23:27:00,
2013-02-05 17:28:00,72.3,67.2,29.83,ESE,110,10.0,10.0,84,0.00,,---,0.00,VWS V14.01,2013-02-05 23:28:00,
2013-02-05 17:29:00,72.2,67.1,29.83,ESE,117,9.0,12.0,84,0.00,,---,0.00,VWS V14.01,2013-02-05 23:29:00,
2013-02-05 17:30:00,72.1,67.0,29.84,ESE,123,4.0,10.0,84,0.00,,---,0.00,VWS V14.01,2013-02-05 23:30:00,
2013-02-05 17:31:00,72.1,67.0,29.84,ESE,120,14.0,14.0,84,0.00,,---,0.00,VWS V14.01,2013-02-05 23:31:00,
2013-02-05 17:32:00,72.0,66.9,29.83,ESE,121,9.0,14.0,84,0.00,,---,0.00,VWS V14.01,2013-02-05 23:32:00,
2013-02-05 17:33:00,72.0,66.9,29.83,SE,132,10.0,10.0,84,0.00,,---,0.00,VWS V14.01,2013-02-05 23:33:00,
2013-02-05 17:34:00,71.8,66.7,29.83,ESE,121,6.0,14.0,84,0.00,,---,0.00,VWS V14.01,2013-02-05 23:34:00,
2013-02-05 17:35:00,71.7,66.6,29.83,SE,125,7.0,12.0,84,0.00,,---,0.00,VWS V14.01,2013-02-05 23:35:00,
2013-02-05 17:36:00,71.6,66.9,29.83,SE,126,9.0,13.0,85,0.00,,---,0.00,VWS V14.01,2013-02-05 23:36:00,
2013-02-05 17:37:00,71.6,66.9,29.83,ESE,109,7.0,13.0,85,0.00,,---,0.00,VWS V14.01,2013-02-05 23:37:00,
2013-02-05 17:38:00,71.5,66.8,29.83,SE,129,6.0,7.0,85,0.00,,---,0.00,VWS V14.01,2013-02-05 23:38:00,
2013-02-05 17:39:00,71.5,66.8,29.83,ESE,117,6.0,10.0,85,0.00,,---,0.00,VWS V14.01,2013-02-05 23:39:00,
2013-02-05 17:40:00,71.4,66.7,29.83,ESE,105,7.0,13.0,85,0.00,,---,0.00,VWS V14.01,2013-02-05 23:40:00,
2013-02-05 17:41:00,71.3,66.6,29.83,SE,133,3.0,12.0,85,0.00,,---,0.00,VWS V14.01,2013-02-05 23:41:00,
2013-02-05 17:42:00,71.3,66.6,29.83,ESE,118,11.0,11.0,85,0.00,,---,0.00,VWS V14.01,2013-02-05 23:42:00,
2013-02-05 17:43:00,71.3,66.6,29.83,ESE,118,11.0,11.0,85,0.00,,---,0.00,VWS V14.01,2013-02-05 23:43:00,
2013-02-05 17:44:00,71.2,66.8,29.83,ESE,118,10.0,10.0,86,0.00,,---,0.00,VWS V14.01,2013-02-05 23:44:00,
2013-02-05 17:45:00,71.2,66.8,29.83,ESE,123,7.0,12.0,86,0.00,,---,0.00,VWS V14.01,2013-02-05 23:45:00,
2013-02-05 17:46:00,71.1,66.7,29.83,ESE,119,7.0,12.0,86,0.00,,---,0.00,VWS V14.01,2013-02-05 23:46:00,
2013-02-05 17:47:00,71.1,66.7,29.83,ESE,109,10.0,11.0,86,0.00,,---,0.00,VWS V14.01,2013-02-05 23:47:00,
2013-02-05 17:48:00,71.1,66.7,29.83,ESE,111,7.0,10.0,86,0.00,,---,0.00,VWS V14.01,2013-02-05 23:48:00,
2013-02-05 17:49:00,71.0,66.6,29.83,East,99,11.0,11.0,86,0.00,,---,0.00,VWS V14.01,2013-02-05 23:49:00,
2013-02-05 17:50:00,71.0,66.6,29.83,ESE,110,6.0,11.0,86,0.00,,---,0.00,VWS V14.01,2013-02-05 23:50:00,
2013-02-05 17:51:00,70.9,66.5,29.83,ESE,123,6.0,10.0,86,0.00,,---,0.00,VWS V14.01,2013-02-05 23:51:00,
2013-02-05 17:52:00,70.9,66.5,29.83,SE,124,11.0,13.0,86,0.00,,---,0.00,VWS V14.01,2013-02-05 23:52:00,
2013-02-05 17:53:00,70.9,66.5,29.83,ESE,122,13.0,13.0,86,0.00,,---,0.00,VWS V14.01,2013-02-05 23:53:00,
2013-02-05 17:54:00,70.8,66.7,29.83,ESE,111,11.0,12.0,87,0.00,,---,0.00,VWS V14.01,2013-02-05 23:54:00,
2013-02-05 17:55:00,70.7,66.7,29.83,ESE,114,11.0,15.0,87,0.00,,---,0.00,VWS V14.01,2013-02-05 23:55:00,
2013-02-05 17:56:00,70.6,66.6,29.83,ESE,111,7.0,12.0,87,0.00,,---,0.00,VWS V14.01,2013-02-05 23:56:00,
2013-02-05 17:57:00,70.6,66.6,29.83,SE,145,10.0,10.0,87,0.00,,---,0.00,VWS V14.01,2013-02-05 23:57:00,
2013-02-05 17:58:00,70.6,66.6,29.83,SE,145,10.0,10.0,87,0.00,,---,0.00,VWS V14.01,2013-02-05 23:58:00,
2013-02-05 17:59:00,70.5,66.4,29.84,SE,132,9.0,9.0,87,0.00,,---,0.00,VWS V14.01,2013-02-05 23:59:00,
2013-02-05 18:00:00,70.4,66.3,29.84,SE,126,9.0,9.0,87,0.00,,---,0.00,VWS V14.01,2013-02-06 00:00:00,
2013-02-05 18:01:00,70.4,66.3,29.84,SE,144,5.0,10.0,87,0.00,,---,0.00,VWS V14.01,2013-02-06 00:01:00,
2013-02-05 18:02:00,70.3,66.6,29.84,ESE,105,4.0,9.0,88,0.00,,---,0.00,VWS V14.01,2013-02-06 00:02:00,
2013-02-05 18:03:00,70.3,66.6,29.84,ESE,105,4.0,9.0,88,0.00,,---,0.00,VWS V14.01,2013-02-06 00:03:00,
2013-02-05 18:04:00,70.3,66.6,29.84,SE,138,2.0,9.0,88,0.00,,---,0.00,VWS V14.01,2013-02-06 00:04:00,
2013-02-05 18:05:00,70.3,66.6,29.84,SE,143,4.0,5.0,88,0.00,,---,0.00,VWS V14.01,2013-02-06 00:05:00,
2013-02-05 18:06:00,70.2,66.5,29.84,ESE,116,5.0,6.0,88,0.00,,---,0.00,VWS V14.01,2013-02-06 00:06:00,
2013-02-05 18:07:00,70.2,66.5,29.84,ESE,117,14.0,14.0,88,0.00,,---,0.00,VWS V14.01,2013-02-06 00:07:00,
2013-02-05 18:08:00,70.2,66.5,29.84,ESE,117,9.0,14.0,88,0.00,,---,0.00,VWS V14.01,2013-02-06 00:08:00,
2013-02-05 18:09:00,70.1,66.4,29.84,SE,141,7.0,10.0,88,0.00,,---,0.00,VWS V14.01,2013-02-06 00:09:00,
2013-02-05 18:10:00,70.1,66.4,29.84,ESE,118,6.0,10.0,88,0.00,,---,0.00,VWS V14.01,2013-02-06 00:10:00,
2013-02-05 18:11:00,70.1,66.4,29.84,ESE,113,5.0,13.0,88,0.00,,---,0.00,VWS V14.01,2013-02-06 00:11:00,
2013-02-05 18:12:00,70.1,66.4,29.84,SE,131,7.0,7.0,88,0.00,,---,0.00,VWS V14.01,2013-02-06 00:12:00,
2013-02-05 18:13:00,70.0,66.3,29.84,ESE,122,12.0,12.0,88,0.00,,---,0.00,VWS V14.01,2013-02-06 00:13:00,
2013-02-05 18:14:00,70.0,66.3,29.84,ESE,113,4.0,12.0,88,0.00,,---,0.00,VWS V14.01,2013-02-06 00:14:00,
2013-02-05 18:15:00,70.0,66.3,29.84,ESE,121,4.0,6.0,88,0.00,,---,0.00,VWS V14.01,2013-02-06 00:15:00,
2013-02-05 18:16:00,69.9,66.2,29.84,SE,132,6.0,10.0,88,0.00,,---,0.00,VWS V14.01,2013-02-06 00:16:00,
2013-02-05 18:17:00,69.9,66.2,29.84,ESE,106,9.0,11.0,88,0.00,,---,0.00,VWS V14.01,2013-02-06 00:17:00,
2013-02-05 18:18:00,69.9,66.5,29.84,SE,132,7.0,9.0,89,0.00,,---,0.00,VWS V14.01,2013-02-06 00:18:00,
2013-02-05 18:19:00,69.9,66.5,29.84,ESE,111,6.0,7.0,89,0.00,,---,0.00,VWS V14.01,2013-02-06 00:19:00,
2013-02-05 18:20:00,69.8,66.4,29.84,ESE,121,5.0,9.0,89,0.00,,---,0.00,VWS V14.01,2013-02-06 00:20:00,
2013-02-05 18:21:00,69.8,66.4,29.84,ESE,107,5.0,10.0,89,0.00,,---,0.00,VWS V14.01,2013-02-06 00:21:00,
2013-02-05 18:22:00,69.8,66.4,29.84,SE,134,5.0,7.0,89,0.00,,---,0.00,VWS V14.01,2013-02-06 00:22:00,
2013-02-05 18:23:00,69.7,66.3,29.84,ESE,109,2.0,7.0,89,0.00,,---,0.00,VWS V14.01,2013-02-06 00:23:00,
2013-02-05 18:24:00,69.7,66.3,29.84,SE,128,3.0,6.0,89,0.00,,---,0.00,VWS V14.01,2013-02-06 00:24:00,
2013-02-05 18:25:00,69.7,66.3,29.84,ESE,107,3.0,9.0,89,0.00,,---,0.00,VWS V14.01,2013-02-06 00:25:00,
2013-02-05 18:26:00,69.7,66.3,29.84,ESE,123,6.0,10.0,89,0.00,,---,0.00,VWS V14.01,2013-02-06 00:26:00,
2013-02-05 18:27:00,69.7,66.3,29.84,ESE,111,3.0,9.0,89,0.00,,---,0.00,VWS V14.01,2013-02-06 00:27:00,
2013-02-05 18:28:00,69.6,66.2,29.84,SE,129,4.0,6.0,89,0.00,,---,0.00,VWS V14.01,2013-02-06 00:28:00,
2013-02-05 18:29:00,69.6,66.2,29.84,ESE,117,1.0,7.0,89,0.00,,---,0.00,VWS V14.01,2013-02-06 00:29:00,
2013-02-05 18:30:00,69.6,66.2,29.84,ESE,123,5.0,10.0,89,0.00,,---,0.00,VWS V14.01,2013-02-06 00:30:00,
2013-02-05 18:31:00,69.5,66.1,29.84,ESE,121,5.0,9.0,89,0.00,,---,0.00,VWS V14.01,2013-02-06 00:31:00,
2013-02-05 18:32:00,69.5,66.1,29.84,ESE,119,4.0,7.0,89,0.00,,---,0.00,VWS V14.01,2013-02-06 00:32:00,
2013-02-05 18:33:00,69.5,66.1,29.84,ESE,112,6.0,8.0,89,0.00,,---,0.00,VWS V14.01,2013-02-06 00:33:00,
2013-02-05 18:34:00,69.5,66.1,29.84,ESE,108,4.0,7.0,89,0.00,,---,0.00,VWS V14.01,2013-02-06 00:34:00,
2013-02-05 18:35:00,69.5,66.1,29.84,ESE,118,3.0,6.0,89,0.00,,---,0.00,VWS V14.01,2013-02-06 00:35:00,
2013-02-05 18:36:00,69.4,66.0,29.84,ESE,115,9.0,10.0,89,0.00,,---,0.00,VWS V14.01,2013-02-06 00:36:00,
2013-02-05 18:37:00,69.4,66.0,29.84,ESE,111,4.0,9.0,89,0.00,,---,0.00,VWS V14.01,2013-02-06 00:37:00,
2013-02-05 18:38:00,69.4,66.0,29.84,ESE,119,7.0,7.0,89,0.00,,---,0.00,VWS V14.01,2013-02-06 00:38:00,
2013-02-05 18:39:00,69.4,66.0,29.85,ESE,116,3.0,7.0,89,0.00,,---,0.00,VWS V14.01,2013-02-06 00:39:00,
2013-02-05 18:40:00,69.3,65.9,29.85,ESE,117,6.0,7.0,89,0.00,,---,0.00,VWS V14.01,2013-02-06 00:40:00,
2013-02-05 18:41:00,69.3,65.9,29.85,SE,135,7.0,7.0,89,0.00,,---,0.00,VWS V14.01,2013-02-06 00:41:00,
2013-02-05 18:42:00,69.3,65.9,29.85,SE,141,7.0,9.0,89,0.00,,---,0.00,VWS V14.01,2013-02-06 00:42:00,
2013-02-05 18:43:00,69.3,66.2,29.85,ESE,102,6.0,7.0,90,0.00,,---,0.00,VWS V14.01,2013-02-06 00:43:00,
2013-02-05 18:44:00,69.3,66.2,29.85,ESE,113,7.0,9.0,90,0.00,,---,0.00,VWS V14.01,2013-02-06 00:44:00,
2013-02-05 18:45:00,69.2,66.2,29.85,ESE,119,4.0,7.0,90,0.00,,---,0.00,VWS V14.01,2013-02-06 00:45:00,
2013-02-05 18:46:00,69.2,66.2,29.85,ESE,107,3.0,8.0,90,0.00,,---,0.00,VWS V14.01,2013-02-06 00:46:00,
2013-02-05 18:47:00,69.2,66.2,29.85,ESE,110,4.0,5.0,90,0.00,,---,0.00,VWS V14.01,2013-02-06 00:47:00,
2013-02-05 18:48:00,69.2,66.2,29.85,ESE,113,4.0,8.0,90,0.00,,---,0.00,VWS V14.01,2013-02-06 00:48:00,
2013-02-05 18:49:00,69.2,66.2,29.85,ESE,107,4.0,6.0,90,0.00,,---,0.00,VWS V14.01,2013-02-06 00:49:00,
2013-02-05 18:50:00,69.2,66.2,29.85,ESE,117,7.0,8.0,90,0.00,,---,0.00,VWS V14.01,2013-02-06 00:50:00,
2013-02-05 18:51:00,69.2,66.2,29.85,ESE,115,6.0,7.0,90,0.00,,---,0.00,VWS V14.01,2013-02-06 00:51:00,
2013-02-05 18:52:00,69.2,66.2,29.85,ESE,117,5.0,6.0,90,0.00,,---,0.00,VWS V14.01,2013-02-06 00:52:00,
2013-02-05 18:53:00,69.2,66.2,29.85,East,101,4.0,9.0,90,0.00,,---,0.00,VWS V14.01,2013-02-06 00:53:00,
2013-02-05 18:54:00,69.2,66.2,29.85,ESE,113,2.0,6.0,90,0.00,,---,0.00,VWS V14.01,2013-02-06 00:54:00,
2013-02-05 18:55:00,69.2,66.2,29.85,ESE,111,3.0,8.0,90,0.00,,---,0.00,VWS V14.01,2013-02-06 00:55:00,
2013-02-05 18:56:00,69.2,66.2,29.85,ESE,114,4.0,5.0,90,0.00,,---,0.00,VWS V14.01,2013-02-06 00:56:00,
2013-02-05 18:57:00,69.2,66.2,29.85,ESE,112,6.0,7.0,90,0.00,,---,0.00,VWS V14.01,2013-02-06 00:57:00,
2013-02-05 18:58:00,69.2,66.2,29.85,ESE,107,2.0,6.0,90,0.00,,---,0.00,VWS V14.01,2013-02-06 00:58:00,
2013-02-05 18:59:00,69.2,66.5,29.86,ESE,109,5.0,7.0,91,0.00,,---,0.00,VWS V14.01,2013-02-06 00:59:00,
2013-02-05 19:00:00,69.2,66.5,29.86,ESE,116,1.0,7.0,91,0.00,,---,0.00,VWS V14.01,2013-02-06 01:00:00,
2013-02-05 19:01:00,69.2,66.5,29.86,ESE,107,2.0,4.0,91,0.00,,---,0.00,VWS V14.01,2013-02-06 01:01:00,
2013-02-05 19:02:00,69.1,66.4,29.86,ESE,108,4.0,7.0,91,0.00,,---,0.00,VWS V14.01,2013-02-06 01:02:00,
2013-02-05 19:03:00,69.2,66.5,29.86,ESE,115,3.0,6.0,91,0.00,,---,0.00,VWS V14.01,2013-02-06 01:03:00,
2013-02-05 19:04:00,69.2,66.5,29.86,East,98,6.0,8.0,91,0.00,,---,0.00,VWS V14.01,2013-02-06 01:04:00,
2013-02-05 19:05:00,69.2,66.5,29.86,ESE,113,7.0,8.0,91,0.00,,---,0.00,VWS V14.01,2013-02-06 01:05:00,
2013-02-05 19:06:00,69.2,66.5,29.86,ESE,102,7.0,7.0,91,0.00,,---,0.00,VWS V14.01,2013-02-06 01:06:00,
2013-02-05 19:07:00,69.2,66.5,29.86,ESE,120,4.0,7.0,91,0.00,,---,0.00,VWS V14.01,2013-02-06 01:07:00,
2013-02-05 19:08:00,69.2,66.5,29.86,East,99,4.0,5.0,91,0.00,,---,0.00,VWS V14.01,2013-02-06 01:08:00,
2013-02-05 19:09:00,69.1,66.4,29.86,ESE,110,8.0,8.0,91,0.00,,---,0.00,VWS V14.01,2013-02-06 01:09:00,
2013-02-05 19:10:00,69.2,66.5,29.86,ESE,111,5.0,11.0,91,0.00,,---,0.00,VWS V14.01,2013-02-06 01:10:00,
2013-02-05 19:11:00,69.2,66.5,29.86,ESE,105,5.0,9.0,91,0.00,,---,0.00,VWS V14.01,2013-02-06 01:11:00,
2013-02-05 19:12:00,69.2,66.5,29.86,ESE,123,5.0,6.0,91,0.00,,---,0.00,VWS V14.01,2013-02-06 01:12:00,
2013-02-05 19:13:00,69.2,66.5,29.86,ESE,106,9.0,10.0,91,0.00,,---,0.00,VWS V14.01,2013-02-06 01:13:00,
2013-02-05 19:14:00,69.2,66.5,29.86,ESE,109,4.0,12.0,91,0.00,,---,0.00,VWS V14.01,2013-02-06 01:14:00,
2013-02-05 19:15:00,69.2,66.5,29.87,ESE,111,7.0,10.0,91,0.00,,---,0.00,VWS V14.01,2013-02-06 01:15:00,
2013-02-05 19:16:00,69.2,66.5,29.86,ESE,121,5.0,7.0,91,0.00,,---,0.00,VWS V14.01,2013-02-06 01:16:00,
2013-02-05 19:17:00,69.2,66.5,29.86,ESE,102,9.0,9.0,91,0.00,,---,0.00,VWS V14.01,2013-02-06 01:17:00,
2013-02-05 19:18:00,69.2,66.5,29.86,ESE,122,3.0,6.0,91,0.00,,---,0.00,VWS V14.01,2013-02-06 01:18:00,
2013-02-05 19:19:00,69.2,66.5,29.86,ESE,118,4.0,6.0,91,0.00,,---,0.00,VWS V14.01,2013-02-06 01:19:00,
2013-02-05 19:20:00,69.2,66.5,29.86,SE,137,4.0,10.0,91,0.00,,---,0.00,VWS V14.01,2013-02-06 01:20:00,
2013-02-05 19:21:00,69.2,66.5,29.86,ESE,121,6.0,9.0,91,0.00,,---,0.00,VWS V14.01,2013-02-06 01:21:00,
2013-02-05 19:22:00,69.2,66.5,29.86,SE,128,9.0,9.0,91,0.00,,---,0.00,VWS V14.01,2013-02-06 01:22:00,
2013-02-05 19:23:00,69.2,66.5,29.86,SE,124,3.0,6.0,91,0.00,,---,0.00,VWS V14.01,2013-02-06 01:23:00,
2013-02-05 19:24:00,69.2,66.5,29.86,SE,145,10.0,10.0,91,0.00,,---,0.00,VWS V14.01,2013-02-06 01:24:00,
2013-02-05 19:25:00,69.2,66.5,29.86,SE,124,5.0,10.0,91,0.00,,---,0.00,VWS V14.01,2013-02-06 01:25:00,
2013-02-05 19:26:00,69.2,66.8,29.86,ESE,111,10.0,10.0,92,0.00,,---,0.00,VWS V14.01,2013-02-06 01:26:00,
2013-02-05 19:27:00,69.3,66.9,29.86,ESE,108,4.0,10.0,92,0.00,,---,0.00,VWS V14.01,2013-02-06 01:27:00,
2013-02-05 19:28:00,69.3,66.9,29.86,ESE,115,3.0,6.0,92,0.00,,---,0.00,VWS V14.01,2013-02-06 01:28:00,
2013-02-05 19:29:00,69.3,66.9,29.86,ESE,121,6.0,6.0,92,0.00,,---,0.00,VWS V14.01,2013-02-06 01:29:00,
2013-02-05 19:30:00,69.3,66.9,29.86,ESE,117,9.0,9.0,92,0.00,,---,0.00,VWS V14.01,2013-02-06 01:30:00,
2013-02-05 19:31:00,69.3,66.9,29.86,ESE,118,7.0,10.0,92,0.00,,---,0.00,VWS V14.01,2013-02-06 01:31:00,
2013-02-05 19:32:00,69.3,66.9,29.86,ESE,113,4.0,10.0,92,0.00,,---,0.00,VWS V14.01,2013-02-06 01:32:00,
2013-02-05 19:33:00,69.3,66.9,29.86,ESE,107,7.0,7.0,92,0.00,,---,0.00,VWS V14.01,2013-02-06 01:33:00,
2013-02-05 19:34:00,69.3,66.9,29.87,ESE,110,6.0,7.0,92,0.00,,---,0.00,VWS V14.01,2013-02-06 01:34:00,
2013-02-05 19:35:00,69.3,66.9,29.87,ESE,111,5.0,8.0,92,0.00,,---,0.00,VWS V14.01,2013-02-06 01:35:00,
2013-02-05 19:36:00,69.3,66.9,29.87,ESE,112,6.0,6.0,92,0.00,,---,0.00,VWS V14.01,2013-02-06 01:36:00,
2013-02-05 19:37:00,69.4,67.0,29.87,ESE,120,7.0,8.0,92,0.00,,---,0.00,VWS V14.01,2013-02-06 01:37:00,
2013-02-05 19:38:00,69.3,66.9,29.87,SE,128,4.0,10.0,92,0.00,,---,0.00,VWS V14.01,2013-02-06 01:38:00,
2013-02-05 19:39:00,69.3,66.9,29.87,ESE,121,7.0,9.0,92,0.00,,---,0.00,VWS V14.01,2013-02-06 01:39:00,
2013-02-05 19:40:00,69.3,66.9,29.87,ESE,119,4.0,8.0,92,0.00,,---,0.00,VWS V14.01,2013-02-06 01:40:00,
2013-02-05 19:41:00,69.3,66.9,29.87,ESE,117,6.0,7.0,92,0.00,,---,0.00,VWS V14.01,2013-02-06 01:41:00,
2013-02-05 19:42:00,69.4,67.0,29.87,ESE,110,6.0,8.0,92,0.00,,---,0.00,VWS V14.01,2013-02-06 01:42:00,
2013-02-05 19:43:00,69.3,66.9,29.87,ESE,115,5.0,9.0,92,0.00,,---,0.00,VWS V14.01,2013-02-06 01:43:00,
2013-02-05 19:44:00,69.4,67.0,29.87,SE,129,4.0,8.0,92,0.00,,---,0.00,VWS V14.01,2013-02-06 01:44:00,
2013-02-05 19:45:00,69.4,67.0,29.87,SE,126,5.0,8.0,92,0.00,,---,0.00,VWS V14.01,2013-02-06 01:45:00,
2013-02-05 19:46:00,69.4,67.0,29.87,ESE,106,5.0,7.0,92,0.00,,---,0.00,VWS V14.01,2013-02-06 01:46:00,
2013-02-05 19:47:00,69.4,67.0,29.87,ESE,123,4.0,5.0,92,0.00,,---,0.00,VWS V14.01,2013-02-06 01:47:00,
2013-02-05 19:48:00,69.4,67.0,29.87,SE,127,8.0,10.0,92,0.00,,---,0.00,VWS V14.01,2013-02-06 01:48:00,
2013-02-05 19:49:00,69.4,67.0,29.87,ESE,115,2.0,8.0,92,0.00,,---,0.00,VWS V14.01,2013-02-06 01:49:00,
2013-02-05 19:50:00,69.4,67.0,29.88,ESE,113,4.0,8.0,92,0.00,,---,0.00,VWS V14.01,2013-02-06 01:50:00,
2013-02-05 19:52:00,69.4,67.0,29.88,ESE,116,6.0,10.0,92,0.00,,---,0.00,VWS V14.01,2013-02-06 01:52:00,
2013-02-05 19:53:00,69.4,67.0,29.88,ESE,117,6.0,11.0,92,0.00,,---,0.00,VWS V14.01,2013-02-06 01:53:00,
2013-02-05 19:54:00,69.4,67.0,29.87,ESE,109,6.0,6.0,92,0.00,,---,0.00,VWS V14.01,2013-02-06 01:54:00,
2013-02-05 19:55:00,69.4,67.0,29.87,ESE,121,5.0,7.0,92,0.00,,---,0.00,VWS V14.01,2013-02-06 01:55:00,
2013-02-05 19:56:00,69.4,67.0,29.87,East,86,7.0,12.0,92,0.00,,---,0.00,VWS V14.01,2013-02-06 01:56:00,
2013-02-05 19:57:00,69.4,67.0,29.87,ESE,103,5.0,10.0,92,0.00,,---,0.00,VWS V14.01,2013-02-06 01:57:00,
2013-02-05 19:58:00,69.4,67.0,29.87,East,101,7.0,9.0,92,0.00,,---,0.00,VWS V14.01,2013-02-06 01:58:00,
2013-02-05 19:59:00,69.4,67.0,29.87,ESE,113,4.0,10.0,92,0.00,,---,0.00,VWS V14.01,2013-02-06 01:59:00,
2013-02-05 20:00:00,69.4,67.0,29.87,ESE,106,5.0,11.0,92,0.00,,---,0.00,VWS V14.01,2013-02-06 02:00:00,
2013-02-05 20:01:00,69.4,67.0,29.87,ESE,102,6.0,7.0,92,0.00,,---,0.00,VWS V14.01,2013-02-06 02:01:00,
2013-02-05 20:02:00,69.4,67.0,29.87,ESE,109,6.0,11.0,92,0.00,,---,0.00,VWS V14.01,2013-02-06 02:02:00,
2013-02-05 20:03:00,69.4,67.0,29.87,ESE,106,7.0,9.0,92,0.00,,---,0.00,VWS V14.01,2013-02-06 02:03:00,
2013-02-05 20:04:00,69.4,67.0,29.88,ESE,109,7.0,7.0,92,0.00,,---,0.00,VWS V14.01,2013-02-06 02:04:00,
2013-02-05 20:05:00,69.4,67.0,29.88,ESE,109,5.0,8.0,92,0.00,,---,0.00,VWS V14.01,2013-02-06 02:05:00,
2013-02-05 20:06:00,69.4,67.0,29.88,ESE,102,7.0,9.0,92,0.00,,---,0.00,VWS V14.01,2013-02-06 02:06:00,
2013-02-05 20:07:00,69.4,67.0,29.88,ESE,121,5.0,11.0,92,0.00,,---,0.00,VWS V14.01,2013-02-06 02:07:00,
2013-02-05 20:08:00,69.4,67.0,29.88,ESE,118,5.0,6.0,92,0.00,,---,0.00,VWS V14.01,2013-02-06 02:08:00,
2013-02-05 20:09:00,69.4,67.0,29.88,SE,126,8.0,9.0,92,0.00,,---,0.00,VWS V14.01,2013-02-06 02:09:00,
2013-02-05 20:10:00,69.4,67.0,29.88,ESE,121,6.0,11.0,92,0.00,,---,0.00,VWS V14.01,2013-02-06 02:10:00,
2013-02-05 20:11:00,69.4,67.0,29.88,ESE,107,3.0,10.0,92,0.00,,---,0.00,VWS V14.01,2013-02-06 02:11:00,
2013-02-05 20:12:00,69.4,67.0,29.88,ESE,114,4.0,4.0,92,0.00,,---,0.00,VWS V14.01,2013-02-06 02:12:00,
2013-02-05 20:13:00,69.4,67.0,29.88,East,101,11.0,11.0,92,0.00,,---,0.00,VWS V14.01,2013-02-06 02:13:00,
2013-02-05 20:14:00,69.4,67.0,29.88,ESE,105,9.0,12.0,92,0.00,,---,0.00,VWS V14.01,2013-02-06 02:14:00,
2013-02-05 20:15:00,69.4,67.0,29.88,ESE,117,3.0,9.0,92,0.00,,---,0.00,VWS V14.01,2013-02-06 02:15:00,
2013-02-05 20:16:00,69.5,67.1,29.88,ESE,113,3.0,5.0,92,0.00,,---,0.00,VWS V14.01,2013-02-06 02:16:00,
2013-02-05 20:17:00,69.5,67.1,29.88,East,101,9.0,9.0,92,0.00,,---,0.00,VWS V14.01,2013-02-06 02:17:00,
2013-02-05 20:18:00,69.5,67.1,29.88,East,98,7.0,10.0,92,0.00,,---,0.00,VWS V14.01,2013-02-06 02:18:00,
2013-02-05 20:19:00,69.5,67.4,29.88,ESE,102,5.0,7.0,93,0.00,,---,0.00,VWS V14.01,2013-02-06 02:19:00,
2013-02-05 20:20:00,69.5,67.4,29.88,ESE,117,4.0,8.0,93,0.00,,---,0.00,VWS V14.01,2013-02-06 02:20:00,
2013-02-05 20:21:00,69.4,67.3,29.88,SE,132,6.0,8.0,93,0.00,,---,0.00,VWS V14.01,2013-02-06 02:21:00,
2013-02-05 20:22:00,69.5,67.4,29.88,ESE,109,6.0,7.0,93,0.00,,---,0.00,VWS V14.01,2013-02-06 02:22:00,
2013-02-05 20:23:00,69.5,67.4,29.88,ESE,105,10.0,11.0,93,0.00,,---,0.00,VWS V14.01,2013-02-06 02:23:00,
2013-02-05 20:24:00,69.5,67.4,29.88,ESE,108,4.0,10.0,93,0.00,,---,0.00,VWS V14.01,2013-02-06 02:24:00,
2013-02-05 20:25:00,69.5,67.4,29.88,ESE,119,9.0,10.0,93,0.00,,---,0.00,VWS V14.01,2013-02-06 02:25:00,
2013-02-05 20:26:00,69.5,67.4,29.88,ESE,107,4.0,9.0,93,0.00,,---,0.00,VWS V14.01,2013-02-06 02:26:00,
2013-02-05 20:27:00,69.5,67.4,29.88,ESE,111,4.0,7.0,93,0.00,,---,0.00,VWS V14.01,2013-02-06 02:27:00,
2013-02-05 20:28:00,69.5,67.4,29.88,ESE,115,5.0,9.0,93,0.00,,---,0.00,VWS V14.01,2013-02-06 02:28:00,
2013-02-05 20:29:00,69.5,67.4,29.88,SE,124,5.0,7.0,93,0.00,,---,0.00,VWS V14.01,2013-02-06 02:29:00,
2013-02-05 20:30:00,69.5,67.4,29.88,ESE,121,7.0,11.0,93,0.00,,---,0.00,VWS V14.01,2013-02-06 02:30:00,
2013-02-05 20:31:00,69.5,67.4,29.88,ESE,118,8.0,11.0,93,0.00,,---,0.00,VWS V14.01,2013-02-06 02:31:00,
2013-02-05 20:32:00,69.5,67.4,29.88,SE,125,10.0,10.0,93,0.00,,---,0.00,VWS V14.01,2013-02-06 02:32:00,
2013-02-05 20:33:00,69.5,67.4,29.88,ESE,119,4.0,7.0,93,0.00,,---,0.00,VWS V14.01,2013-02-06 02:33:00,
2013-02-05 20:34:00,69.5,67.4,29.88,ESE,122,5.0,10.0,93,0.00,,---,0.00,VWS V14.01,2013-02-06 02:34:00,
2013-02-05 20:35:00,69.5,67.4,29.88,ESE,123,5.0,7.0,93,0.00,,---,0.00,VWS V14.01,2013-02-06 02:35:00,
2013-02-05 20:36:00,69.5,67.4,29.88,SE,131,4.0,9.0,93,0.00,,---,0.00,VWS V14.01,2013-02-06 02:36:00,
2013-02-05 20:37:00,69.5,67.4,29.88,ESE,118,3.0,5.0,93,0.00,,---,0.00,VWS V14.01,2013-02-06 02:37:00,
2013-02-05 20:38:00,69.5,67.4,29.88,ESE,117,7.0,10.0,93,0.00,,---,0.00,VWS V14.01,2013-02-06 02:38:00,
2013-02-05 20:39:00,69.5,67.4,29.89,SE,124,6.0,9.0,93,0.00,,---,0.00,VWS V14.01,2013-02-06 02:39:00,
2013-02-05 20:40:00,69.5,67.4,29.89,SE,133,7.0,7.0,93,0.00,,---,0.00,VWS V14.01,2013-02-06 02:40:00,
2013-02-05 20:41:00,69.5,67.4,29.89,SE,136,4.0,9.0,93,0.00,,---,0.00,VWS V14.01,2013-02-06 02:41:00,
2013-02-05 20:42:00,69.5,67.4,29.89,SE,135,12.0,12.0,93,0.00,,---,0.00,VWS V14.01,2013-02-06 02:42:00,
2013-02-05 20:43:00,69.5,67.4,29.88,ESE,109,5.0,10.0,93,0.00,,---,0.00,VWS V14.01,2013-02-06 02:43:00,
2013-02-05 20:44:00,69.5,67.4,29.89,ESE,120,5.0,11.0,93,0.00,,---,0.00,VWS V14.01,2013-02-06 02:44:00,
2013-02-05 20:45:00,69.5,67.4,29.89,SE,131,12.0,12.0,93,0.00,,---,0.00,VWS V14.01,2013-02-06 02:45:00,
2013-02-05 20:46:00,69.5,67.4,29.89,ESE,115,9.0,12.0,93,0.00,,---,0.00,VWS V14.01,2013-02-06 02:46:00,
2013-02-05 20:47:00,69.6,67.5,29.89,SE,126,5.0,9.0,93,0.00,,---,0.00,VWS V14.01,2013-02-06 02:47:00,
2013-02-05 20:48:00,69.6,67.5,29.89,SE,133,5.0,9.0,93,0.00,,---,0.00,VWS V14.01,2013-02-06 02:48:00,
2013-02-05 20:49:00,69.6,67.5,29.89,ESE,108,4.0,10.0,93,0.00,,---,0.00,VWS V14.01,2013-02-06 02:49:00,
2013-02-05 20:50:00,69.6,67.5,29.89,SE,128,10.0,10.0,93,0.00,,---,0.00,VWS V14.01,2013-02-06 02:50:00,
2013-02-05 20:51:00,69.6,67.5,29.89,SE,136,5.0,10.0,93,0.00,,---,0.00,VWS V14.01,2013-02-06 02:51:00,
2013-02-05 20:52:00,69.6,67.5,29.89,SSE,155,7.0,9.0,93,0.00,,---,0.00,VWS V14.01,2013-02-06 02:52:00,
2013-02-05 20:53:00,69.6,67.5,29.89,SE,134,4.0,9.0,93,0.00,,---,0.00,VWS V14.01,2013-02-06 02:53:00,
2013-02-05 20:54:00,69.6,67.5,29.89,ESE,123,4.0,9.0,93,0.00,,---,0.00,VWS V14.01,2013-02-06 02:54:00,
2013-02-05 20:55:00,69.6,67.5,29.89,ESE,121,6.0,9.0,93,0.00,,---,0.00,VWS V14.01,2013-02-06 02:55:00,
2013-02-05 20:56:00,69.6,67.5,29.89,SE,126,3.0,7.0,93,0.00,,---,0.00,VWS V14.01,2013-02-06 02:56:00,
2013-02-05 20:57:00,69.5,67.4,29.89,SE,124,5.0,6.0,93,0.00,,---,0.00,VWS V14.01,2013-02-06 02:57:00,
2013-02-05 20:58:00,69.5,67.4,29.89,SE,139,7.0,7.0,93,0.00,,---,0.00,VWS V14.01,2013-02-06 02:58:00,
2013-02-05 20:59:00,69.5,67.4,29.89,SE,132,7.0,10.0,93,0.00,,---,0.00,VWS V14.01,2013-02-06 02:59:00,
2013-02-05 21:00:00,69.5,67.4,29.89,SSE,153,5.0,6.0,93,0.00,,---,0.00,VWS V14.01,2013-02-06 03:00:00,
2013-02-05 21:01:00,69.5,67.4,29.89,ESE,110,6.0,7.0,93,0.00,,---,0.00,VWS V14.01,2013-02-06 03:01:00,
2013-02-05 21:02:00,69.5,67.4,29.89,ESE,116,4.0,7.0,93,0.00,,---,0.00,VWS V14.01,2013-02-06 03:02:00,
2013-02-05 21:03:00,69.5,67.4,29.89,ESE,121,6.0,10.0,93,0.00,,---,0.00,VWS V14.01,2013-02-06 03:03:00,
2013-02-05 21:04:00,69.5,67.4,29.89,SE,126,5.0,6.0,93,0.00,,---,0.00,VWS V14.01,2013-02-06 03:04:00,
2013-02-05 21:05:00,69.5,67.1,29.89,SE,139,10.0,10.0,92,0.00,,---,0.00,VWS V14.01,2013-02-06 03:05:00,
2013-02-05 21:06:00,69.5,67.4,29.89,SE,140,8.0,12.0,93,0.00,,---,0.00,VWS V14.01,2013-02-06 03:06:00,
2013-02-05 21:07:00,69.5,67.4,29.88,ESE,112,4.0,9.0,93,0.00,,---,0.00,VWS V14.01,2013-02-06 03:07:00,
2013-02-05 21:08:00,69.5,67.4,29.88,ESE,123,10.0,10.0,93,0.00,,---,0.00,VWS V14.01,2013-02-06 03:08:00,
2013-02-05 21:09:00,69.5,67.4,29.88,SE,133,7.0,11.0,93,0.00,,---,0.00,VWS V14.01,2013-02-06 03:09:00,
2013-02-05 21:10:00,69.5,67.4,29.88,ESE,107,7.0,8.0,93,0.00,,---,0.00,VWS V14.01,2013-02-06 03:10:00,
2013-02-05 21:11:00,69.5,67.4,29.88,SE,125,5.0,11.0,93,0.00,,---,0.00,VWS V14.01,2013-02-06 03:11:00,
2013-02-05 21:12:00,69.5,67.4,29.88,SE,128,6.0,15.0,93,0.00,,---,0.00,VWS V14.01,2013-02-06 03:12:00,
2013-02-05 21:13:00,69.5,67.4,29.88,SE,131,6.0,11.0,93,0.00,,---,0.00,VWS V14.01,2013-02-06 03:13:00,
2013-02-05 21:14:00,69.5,67.4,29.88,ESE,120,3.0,10.0,93,0.00,,---,0.00,VWS V14.01,2013-02-06 03:14:00,
2013-02-05 21:15:00,69.5,67.4,29.88,SE,136,6.0,9.0,93,0.00,,---,0.00,VWS V14.01,2013-02-06 03:15:00,
2013-02-05 21:16:00,69.5,67.4,29.88,ESE,115,5.0,9.0,93,0.00,,---,0.00,VWS V14.01,2013-02-06 03:16:00,
2013-02-05 21:17:00,69.5,67.4,29.88,ESE,109,6.0,10.0,93,0.00,,---,0.00,VWS V14.01,2013-02-06 03:17:00,
2013-02-05 21:18:00,69.5,67.4,29.88,ESE,119,4.0,11.0,93,0.00,,---,0.00,VWS V14.01,2013-02-06 03:18:00,
2013-02-05 21:19:00,69.5,67.4,29.88,ESE,119,6.0,13.0,93,0.00,,---,0.00,VWS V14.01,2013-02-06 03:19:00,
2013-02-05 21:20:00,69.5,67.4,29.87,ESE,121,3.0,13.0,93,0.00,,---,0.00,VWS V14.01,2013-02-06 03:20:00,
2013-02-05 21:21:00,69.5,67.4,29.87,ESE,121,9.0,12.0,93,0.00,,---,0.00,VWS V14.01,2013-02-06 03:21:00,
2013-02-05 21:22:00,69.5,67.4,29.87,SE,132,7.0,9.0,93,0.00,,---,0.00,VWS V14.01,2013-02-06 03:22:00,
2013-02-05 21:23:00,69.5,67.4,29.87,ESE,109,7.0,10.0,93,0.00,,---,0.00,VWS V14.01,2013-02-06 03:23:00,
2013-02-05 21:24:00,69.5,67.4,29.87,SE,136,4.0,11.0,93,0.00,,---,0.00,VWS V14.01,2013-02-06 03:24:00,
2013-02-05 21:25:00,69.5,67.4,29.87,ESE,117,9.0,14.0,93,0.00,,---,0.00,VWS V14.01,2013-02-06 03:25:00,
2013-02-05 21:26:00,69.4,67.3,29.87,SE,129,9.0,12.0,93,0.00,,---,0.00,VWS V14.01,2013-02-06 03:26:00,
2013-02-05 21:27:00,69.4,67.3,29.87,ESE,123,6.0,10.0,93,0.00,,---,0.00,VWS V14.01,2013-02-06 03:27:00,
2013-02-05 21:28:00,69.4,67.3,29.87,SE,146,10.0,12.0,93,0.00,,---,0.00,VWS V14.01,2013-02-06 03:28:00,
2013-02-05 21:29:00,69.4,67.3,29.87,SSE,149,6.0,11.0,93,0.00,,---,0.00,VWS V14.01,2013-02-06 03:29:00,
2013-02-05 21:30:00,69.4,67.3,29.87,SE,128,10.0,11.0,93,0.00,,---,0.00,VWS V14.01,2013-02-06 03:30:00,
2013-02-05 21:31:00,69.4,67.3,29.87,ESE,117,4.0,11.0,93,0.00,,---,0.00,VWS V14.01,2013-02-06 03:31:00,
2013-02-05 21:32:00,69.4,67.3,29.87,ESE,111,5.0,11.0,93,0.00,,---,0.00,VWS V14.01,2013-02-06 03:32:00,
2013-02-05 21:33:00,69.4,67.3,29.87,ESE,121,12.0,12.0,93,0.00,,---,0.00,VWS V14.01,2013-02-06 03:33:00,
2013-02-05 21:34:00,69.3,67.2,29.87,SE,126,7.0,12.0,93,0.00,,---,0.00,VWS V14.01,2013-02-06 03:34:00,
2013-02-05 21:35:00,69.3,67.2,29.87,SE,140,5.0,11.0,93,0.00,,---,0.00,VWS V14.01,2013-02-06 03:35:00,
2013-02-05 21:36:00,69.3,67.2,29.87,ESE,113,12.0,12.0,93,0.00,,---,0.00,VWS V14.01,2013-02-06 03:36:00,
2013-02-05 21:37:00,69.4,67.3,29.87,ESE,110,9.0,13.0,93,0.00,,---,0.00,VWS V14.01,2013-02-06 03:37:00,
2013-02-05 21:38:00,69.3,67.2,29.87,ESE,105,6.0,13.0,93,0.00,,---,0.00,VWS V14.01,2013-02-06 03:38:00,
2013-02-05 21:39:00,69.3,67.2,29.87,ESE,116,10.0,10.0,93,0.00,,---,0.00,VWS V14.01,2013-02-06 03:39:00,
2013-02-05 21:40:00,69.3,67.2,29.87,SE,127,5.0,12.0,93,0.00,,---,0.00,VWS V14.01,2013-02-06 03:40:00,
2013-02-05 21:41:00,69.3,67.2,29.86,ESE,115,7.0,14.0,93,0.00,,---,0.00,VWS V14.01,2013-02-06 03:41:00,
2013-02-05 21:42:00,69.3,67.2,29.87,East,96,9.0,9.0,93,0.00,,---,0.00,VWS V14.01,2013-02-06 03:42:00,
2013-02-05 21:43:00,69.3,67.2,29.87,ESE,119,11.0,13.0,93,0.00,,---,0.00,VWS V14.01,2013-02-06 03:43:00,
2013-02-05 21:44:00,69.3,67.2,29.87,SE,132,12.0,12.0,93,0.00,,---,0.00,VWS V14.01,2013-02-06 03:44:00,
2013-02-05 21:45:00,69.3,67.2,29.87,ESE,115,6.0,13.0,93,0.00,,---,0.00,VWS V14.01,2013-02-06 03:45:00,
2013-02-05 21:46:00,69.3,67.2,29.87,SE,130,9.0,12.0,93,0.00,,---,0.00,VWS V14.01,2013-02-06 03:46:00,
2013-02-05 21:47:00,69.3,67.2,29.87,SE,128,9.0,11.0,93,0.00,,---,0.00,VWS V14.01,2013-02-06 03:47:00,
2013-02-05 21:48:00,69.3,67.2,29.87,ESE,123,6.0,11.0,93,0.00,,---,0.00,VWS V14.01,2013-02-06 03:48:00,
2013-02-05 21:49:00,69.3,67.2,29.87,ESE,119,12.0,12.0,93,0.00,,---,0.00,VWS V14.01,2013-02-06 03:49:00,
2013-02-05 21:50:00,69.3,67.2,29.87,ESE,115,7.0,12.0,93,0.00,,---,0.00,VWS V14.01,2013-02-06 03:50:00,
2013-02-05 21:51:00,69.3,67.2,29.87,SSE,148,9.0,10.0,93,0.00,,---,0.00,VWS V14.01,2013-02-06 03:51:00,
2013-02-05 21:52:00,69.3,67.2,29.87,SSE,147,13.0,13.0,93,0.00,,---,0.00,VWS V14.01,2013-02-06 03:52:00,
2013-02-05 21:53:00,69.3,67.2,29.87,East,97,5.0,13.0,93,0.00,,---,0.00,VWS V14.01,2013-02-06 03:53:00,
2013-02-05 21:54:00,69.3,67.2,29.87,ESE,118,6.0,12.0,93,0.00,,---,0.00,VWS V14.01,2013-02-06 03:54:00,
2013-02-05 21:55:00,69.3,67.2,29.87,ESE,102,9.0,9.0,93,0.00,,---,0.00,VWS V14.01,2013-02-06 03:55:00,
2013-02-05 21:56:00,69.3,67.2,29.87,ESE,103,6.0,12.0,93,0.00,,---,0.00,VWS V14.01,2013-02-06 03:56:00,
2013-02-05 21:57:00,69.3,67.2,29.87,East,101,6.0,8.0,93,0.00,,---,0.00,VWS V14.01,2013-02-06 03:57:00,
2013-02-05 21:58:00,69.3,67.2,29.87,ESE,114,6.0,10.0,93,0.00,,---,0.00,VWS V14.01,2013-02-06 03:58:00,
2013-02-05 21:59:00,69.2,67.1,29.87,ESE,113,5.0,7.0,93,0.00,,---,0.00,VWS V14.01,2013-02-06 03:59:00,
2013-02-05 22:00:00,69.2,67.1,29.87,ESE,123,3.0,7.0,93,0.00,,---,0.00,VWS V14.01,2013-02-06 04:00:00,
2013-02-05 22:01:00,69.2,67.1,29.87,ESE,114,9.0,9.0,93,0.00,,---,0.00,VWS V14.01,2013-02-06 04:01:00,
2013-02-05 22:02:00,69.2,67.1,29.87,SE,132,6.0,10.0,93,0.00,,---,0.00,VWS V14.01,2013-02-06 04:02:00,
2013-02-05 22:03:00,69.1,67.0,29.87,SE,129,5.0,10.0,93,0.00,,---,0.00,VWS V14.01,2013-02-06 04:03:00,
2013-02-05 22:04:00,69.2,67.1,29.88,SE,128,6.0,11.0,93,0.00,,---,0.00,VWS V14.01,2013-02-06 04:04:00,
2013-02-05 22:05:00,69.1,67.0,29.88,SE,144,4.0,9.0,93,0.00,,---,0.00,VWS V14.01,2013-02-06 04:05:00,
2013-02-05 22:06:00,69.1,67.0,29.88,SE,138,5.0,7.0,93,0.00,,---,0.00,VWS V14.01,2013-02-06 04:06:00,
2013-02-05 22:07:00,69.1,67.0,29.88,SE,126,5.0,6.0,93,0.00,,---,0.00,VWS V14.01,2013-02-06 04:07:00,
2013-02-05 22:08:00,69.1,67.0,29.88,SE,141,4.0,9.0,93,0.00,,---,0.00,VWS V14.01,2013-02-06 04:08:00,
2013-02-05 22:09:00,69.1,67.0,29.88,SE,137,7.0,10.0,93,0.00,,---,0.00,VWS V14.01,2013-02-06 04:09:00,
2013-02-05 22:10:00,69.1,67.0,29.88,SE,126,2.0,10.0,93,0.00,,---,0.00,VWS V14.01,2013-02-06 04:10:00,
2013-02-05 22:11:00,69.1,67.0,29.89,SE,142,5.0,7.0,93,0.00,,---,0.00,VWS V14.01,2013-02-06 04:11:00,
2013-02-05 22:12:00,69.1,67.0,29.89,SE,130,4.0,5.0,93,0.00,,---,0.00,VWS V14.01,2013-02-06 04:12:00,
2013-02-05 22:13:00,69.0,66.9,29.89,SE,134,6.0,6.0,93,0.00,,---,0.00,VWS V14.01,2013-02-06 04:13:00,
2013-02-05 22:14:00,69.0,66.9,29.89,SE,145,6.0,6.0,93,0.00,,---,0.00,VWS V14.01,2013-02-06 04:14:00,
2013-02-05 22:15:00,69.0,66.9,29.89,SE,132,8.0,10.0,93,0.00,,---,0.00,VWS V14.01,2013-02-06 04:15:00,
2013-02-05 22:16:00,69.0,66.9,29.89,ESE,122,4.0,8.0,93,0.00,,---,0.00,VWS V14.01,2013-02-06 04:16:00,
2013-02-05 22:17:00,69.0,66.9,29.89,SE,140,6.0,13.0,93,0.00,,---,0.00,VWS V14.01,2013-02-06 04:17:00,
2013-02-05 22:18:00,69.0,66.9,29.89,SE,133,7.0,13.0,93,0.00,,---,0.00,VWS V14.01,2013-02-06 04:18:00,
2013-02-05 22:19:00,69.0,66.9,29.89,SE,139,9.0,9.0,93,0.00,,---,0.00,VWS V14.01,2013-02-06 04:19:00,
2013-02-05 22:20:00,69.0,66.9,29.89,SE,126,3.0,9.0,93,0.00,,---,0.00,VWS V14.01,2013-02-06 04:20:00,
2013-02-05 22:21:00,69.0,66.9,29.88,ESE,119,3.0,6.0,93,0.00,,---,0.00,VWS V14.01,2013-02-06 04:21:00,
2013-02-05 22:22:00,69.0,66.9,29.88,SE,141,7.0,7.0,93,0.00,,---,0.00,VWS V14.01,2013-02-06 04:22:00,
2013-02-05 22:23:00,69.0,66.9,29.88,ESE,123,7.0,7.0,93,0.00,,---,0.00,VWS V14.01,2013-02-06 04:23:00,
2013-02-05 22:24:00,69.0,66.9,29.88,ESE,105,4.0,11.0,93,0.00,,---,0.00,VWS V14.01,2013-02-06 04:24:00,
2013-02-05 22:25:00,69.0,66.9,29.88,SE,138,5.0,10.0,93,0.00,,---,0.00,VWS V14.01,2013-02-06 04:25:00,
2013-02-05 22:26:00,69.0,66.9,29.88,ESE,107,5.0,10.0,93,0.00,,---,0.00,VWS V14.01,2013-02-06 04:26:00,
2013-02-05 22:27:00,69.0,66.9,29.88,SE,134,9.0,9.0,93,0.00,,---,0.00,VWS V14.01,2013-02-06 04:27:00,
2013-02-05 22:28:00,69.0,66.9,29.88,ESE,113,6.0,9.0,93,0.00,,---,0.00,VWS V14.01,2013-02-06 04:28:00,
2013-02-05 22:29:00,69.0,66.9,29.88,SE,133,4.0,9.0,93,0.00,,---,0.00,VWS V14.01,2013-02-06 04:29:00,
2013-02-05 22:30:00,69.0,66.9,29.88,SE,126,10.0,10.0,93,0.00,,---,0.00,VWS V14.01,2013-02-06 04:30:00,
2013-02-05 22:31:00,69.0,66.9,29.88,ESE,121,5.0,10.0,93,0.00,,---,0.00,VWS V14.01,2013-02-06 04:31:00,
2013-02-05 22:32:00,69.0,66.9,29.88,ESE,114,3.0,5.0,93,0.00,,---,0.00,VWS V14.01,2013-02-06 04:32:00,
2013-02-05 22:33:00,69.0,66.9,29.88,ESE,121,6.0,12.0,93,0.00,,---,0.00,VWS V14.01,2013-02-06 04:33:00,
2013-02-05 22:34:00,69.0,66.9,29.89,SSE,155,3.0,9.0,93,0.00,,---,0.00,VWS V14.01,2013-02-06 04:34:00,
2013-02-05 22:35:00,69.0,66.9,29.88,ESE,114,6.0,7.0,93,0.00,,---,0.00,VWS V14.01,2013-02-06 04:35:00,
2013-02-05 22:36:00,69.0,66.9,29.89,SE,130,9.0,9.0,93,0.00,,---,0.00,VWS V14.01,2013-02-06 04:36:00,
2013-02-05 22:37:00,69.0,66.9,29.89,SE,141,5.0,9.0,93,0.00,,---,0.00,VWS V14.01,2013-02-06 04:37:00,
2013-02-05 22:38:00,69.0,66.9,29.89,ESE,120,12.0,12.0,93,0.00,,---,0.00,VWS V14.01,2013-02-06 04:38:00,
2013-02-05 22:39:00,69.0,66.9,29.89,SE,124,11.0,14.0,93,0.00,,---,0.00,VWS V14.01,2013-02-06 04:39:00,
2013-02-05 22:40:00,69.1,67.0,29.89,SE,127,5.0,11.0,93,0.00,,---,0.00,VWS V14.01,2013-02-06 04:40:00,
2013-02-05 22:41:00,69.0,66.9,29.89,East,99,11.0,11.0,93,0.00,,---,0.00,VWS V14.01,2013-02-06 04:41:00,
2013-02-05 22:42:00,69.1,67.0,29.89,ESE,118,11.0,11.0,93,0.00,,---,0.00,VWS V14.01,2013-02-06 04:42:00,
2013-02-05 22:43:00,69.1,67.0,29.89,ESE,108,10.0,10.0,93,0.00,,---,0.00,VWS V14.01,2013-02-06 04:43:00,
2013-02-05 22:44:00,69.1,67.0,29.89,ESE,118,7.0,11.0,93,0.00,,---,0.00,VWS V14.01,2013-02-06 04:44:00,
2013-02-05 22:45:00,69.1,67.0,29.89,ESE,119,5.0,10.0,93,0.00,,---,0.00,VWS V14.01,2013-02-06 04:45:00,
2013-02-05 22:46:00,69.1,67.0,29.89,ESE,123,7.0,10.0,93,0.00,,---,0.00,VWS V14.01,2013-02-06 04:46:00,
2013-02-05 22:47:00,69.1,67.0,29.89,ESE,122,7.0,7.0,93,0.00,,---,0.00,VWS V14.01,2013-02-06 04:47:00,
2013-02-05 22:48:00,69.1,67.0,29.89,East,96,7.0,12.0,93,0.00,,---,0.00,VWS V14.01,2013-02-06 04:48:00,
2013-02-05 22:49:00,69.1,67.0,29.89,SE,133,5.0,10.0,93,0.00,,---,0.00,VWS V14.01,2013-02-06 04:49:00,
2013-02-05 22:50:00,69.1,67.0,29.89,ESE,103,6.0,7.0,93,0.00,,---,0.00,VWS V14.01,2013-02-06 04:50:00,
2013-02-05 22:51:00,69.1,67.0,29.89,East,101,6.0,12.0,93,0.00,,---,0.00,VWS V14.01,2013-02-06 04:51:00,
2013-02-05 22:52:00,69.1,67.0,29.89,ESE,111,9.0,9.0,93,0.00,,---,0.00,VWS V14.01,2013-02-06 04:52:00,
2013-02-05 22:53:00,69.1,67.0,29.89,ESE,120,6.0,12.0,93,0.00,,---,0.00,VWS V14.01,2013-02-06 04:53:00,
2013-02-05 22:54:00,69.1,67.0,29.89,ESE,123,4.0,12.0,93,0.00,,---,0.00,VWS V14.01,2013-02-06 04:54:00,
2013-02-05 22:55:00,69.1,67.0,29.89,SSE,158,8.0,8.0,93,0.00,,---,0.00,VWS V14.01,2013-02-06 04:55:00,
2013-02-05 22:56:00,69.1,67.0,29.88,SE,136,5.0,13.0,93,0.00,,---,0.00,VWS V14.01,2013-02-06 04:56:00,
2013-02-05 22:57:00,69.1,67.0,29.88,ESE,122,6.0,7.0,93,0.00,,---,0.00,VWS V14.01,2013-02-06 04:57:00,
2013-02-05 22:58:00,69.1,67.0,29.89,ESE,122,6.0,10.0,93,0.00,,---,0.00,VWS V14.01,2013-02-06 04:58:00,
2013-02-05 22:59:00,69.1,67.0,29.89,ESE,117,11.0,14.0,93,0.00,,---,0.00,VWS V14.01,2013-02-06 04:59:00,
2013-02-05 23:00:00,69.1,67.0,29.89,ESE,117,11.0,14.0,93,0.00,,---,0.00,VWS V14.01,2013-02-06 05:00:00,
2013-02-05 23:01:00,69.2,67.1,29.89,ESE,111,5.0,11.0,93,0.00,,---,0.00,VWS V14.01,2013-02-06 05:01:00,
2013-02-05 23:02:00,69.2,67.1,29.89,SE,138,9.0,12.0,93,0.00,,---,0.00,VWS V14.01,2013-02-06 05:02:00,
2013-02-05 23:03:00,69.2,67.1,29.89,East,87,7.0,11.0,93,0.00,,---,0.00,VWS V14.01,2013-02-06 05:03:00,
2013-02-05 23:04:00,69.2,67.1,29.89,ESE,110,4.0,11.0,93,0.00,,---,0.00,VWS V14.01,2013-02-06 05:04:00,
2013-02-05 23:05:00,69.2,67.1,29.89,SE,137,7.0,7.0,93,0.00,,---,0.00,VWS V14.01,2013-02-06 05:05:00,
2013-02-05 23:06:00,69.2,67.1,29.89,ESE,115,8.0,10.0,93,0.00,,---,0.00,VWS V14.01,2013-02-06 05:06:00,
2013-02-05 23:07:00,69.2,67.1,29.89,ESE,109,6.0,9.0,93,0.00,,---,0.00,VWS V14.01,2013-02-06 05:07:00,
2013-02-05 23:08:00,69.2,67.1,29.88,East,91,6.0,7.0,93,0.00,,---,0.00,VWS V14.01,2013-02-06 05:08:00,
2013-02-05 23:09:00,69.2,67.1,29.88,SE,140,6.0,10.0,93,0.00,,---,0.00,VWS V14.01,2013-02-06 05:09:00,
2013-02-05 23:10:00,69.2,67.1,29.88,SE,132,5.0,6.0,93,0.00,,---,0.00,VWS V14.01,2013-02-06 05:10:00,
2013-02-05 23:11:00,69.2,67.1,29.88,SE,132,6.0,6.0,93,0.00,,---,0.00,VWS V14.01,2013-02-06 05:11:00,
2013-02-05 23:12:00,69.2,67.1,29.88,SE,146,4.0,6.0,93,0.00,,---,0.00,VWS V14.01,2013-02-06 05:12:00,
2013-02-05 23:13:00,69.2,67.1,29.88,SE,126,7.0,7.0,93,0.00,,---,0.00,VWS V14.01,2013-02-06 05:13:00,
2013-02-05 23:14:00,69.1,67.0,29.88,SE,128,4.0,7.0,93,0.00,,---,0.00,VWS V14.01,2013-02-06 05:14:00,
2013-02-05 23:15:00,69.1,67.0,29.88,ESE,109,4.0,5.0,93,0.00,,---,0.00,VWS V14.01,2013-02-06 05:15:00,
2013-02-05 23:16:00,69.1,67.0,29.88,ESE,120,6.0,10.0,93,0.00,,---,0.00,VWS V14.01,2013-02-06 05:16:00,
2013-02-05 23:17:00,69.2,67.1,29.88,SE,126,6.0,6.0,93,0.00,,---,0.00,VWS V14.01,2013-02-06 05:17:00,
2013-02-05 23:18:00,69.1,67.0,29.88,ESE,118,7.0,10.0,93,0.00,,---,0.00,VWS V14.01,2013-02-06 05:18:00,
2013-02-05 23:19:00,69.2,67.1,29.88,SSE,147,6.0,11.0,93,0.00,,---,0.00,VWS V14.01,2013-02-06 05:19:00,
2013-02-05 23:20:00,69.2,67.1,29.88,ESE,115,6.0,6.0,93,0.00,,---,0.00,VWS V14.01,2013-02-06 05:20:00,
2013-02-05 23:21:00,69.1,67.0,29.88,ESE,119,5.0,7.0,93,0.00,,---,0.00,VWS V14.01,2013-02-06 05:21:00,
2013-02-05 23:22:00,69.1,67.0,29.88,SE,136,8.0,10.0,93,0.00,,---,0.00,VWS V14.01,2013-02-06 05:22:00,
2013-02-05 23:23:00,69.1,67.0,29.88,ESE,123,10.0,10.0,93,0.00,,---,0.00,VWS V14.01,2013-02-06 05:23:00,
2013-02-05 23:24:00,69.1,67.0,29.88,ESE,111,12.0,13.0,93,0.00,,---,0.00,VWS V14.01,2013-02-06 05:24:00,
2013-02-05 23:25:00,69.1,67.0,29.88,SE,127,6.0,12.0,93,0.00,,---,0.00,VWS V14.01,2013-02-06 05:25:00,
2013-02-05 23:28:00,69.1,67.0,29.88,SE,125,7.0,11.0,93,0.00,,---,0.00,VWS V14.01,2013-02-06 05:28:00,
2013-02-05 23:29:00,69.1,67.0,29.88,SE,133,5.0,9.0,93,0.00,,---,0.00,VWS V14.01,2013-02-06 05:29:00,
2013-02-05 23:30:00,69.1,67.0,29.88,SE,127,6.0,6.0,93,0.00,,---,0.00,VWS V14.01,2013-02-06 05:30:00,
2013-02-05 23:31:00,69.1,67.0,29.88,SE,128,10.0,12.0,93,0.00,,---,0.00,VWS V14.01,2013-02-06 05:31:00,
2013-02-05 23:32:00,69.2,67.4,29.89,SE,131,2.0,10.0,94,0.00,,---,0.00,VWS V14.01,2013-02-06 05:32:00,
2013-02-05 23:33:00,69.2,67.1,29.89,SE,129,4.0,5.0,93,0.00,,---,0.00,VWS V14.01,2013-02-06 05:33:00,
2013-02-05 23:35:00,69.1,67.3,29.89,SE,132,4.0,7.0,94,0.00,,---,0.00,VWS V14.01,2013-02-06 05:35:00,
2013-02-05 23:36:00,69.1,67.3,29.89,SE,134,2.0,8.0,94,0.00,,---,0.00,VWS V14.01,2013-02-06 05:36:00,
2013-02-05 23:38:00,69.2,67.4,29.90,SSE,148,6.0,11.0,94,0.00,,---,0.00,VWS V14.01,2013-02-06 05:38:00,
2013-02-05 23:39:00,69.2,67.4,29.90,SE,140,7.0,11.0,94,0.00,,---,0.00,VWS V14.01,2013-02-06 05:39:00,
2013-02-05 23:40:00,69.2,67.4,29.90,ESE,121,10.0,10.0,94,0.00,,---,0.00,VWS V14.01,2013-02-06 05:40:00,
2013-02-05 23:41:00,69.2,67.4,29.90,ESE,121,7.0,13.0,94,0.00,,---,0.00,VWS V14.01,2013-02-06 05:41:00,
2013-02-05 23:42:00,69.3,67.5,29.90,ESE,105,5.0,11.0,94,0.00,,---,0.00,VWS V14.01,2013-02-06 05:42:00,
2013-02-05 23:43:00,69.3,67.5,29.90,SE,129,5.0,7.0,94,0.00,,---,0.00,VWS V14.01,2013-02-06 05:43:00,
2013-02-05 23:44:00,69.3,67.5,29.90,ESE,115,6.0,6.0,94,0.00,,---,0.00,VWS V14.01,2013-02-06 05:44:00,
2013-02-05 23:45:00,69.3,67.5,29.90,SSE,149,6.0,6.0,94,0.00,,---,0.00,VWS V14.01,2013-02-06 05:45:00,
2013-02-05 23:46:00,69.3,67.5,29.89,ESE,123,4.0,11.0,94,0.00,,---,0.00,VWS V14.01,2013-02-06 05:46:00,
2013-02-05 23:47:00,69.4,67.6,29.89,ESE,111,9.0,11.0,94,0.00,,---,0.00,VWS V14.01,2013-02-06 05:47:00,
2013-02-05 23:48:00,69.4,67.6,29.89,SE,131,3.0,9.0,94,0.00,,---,0.00,VWS V14.01,2013-02-06 05:48:00,
2013-02-05 23:49:00,69.4,67.6,29.89,SE,128,9.0,11.0,94,0.00,,---,0.00,VWS V14.01,2013-02-06 05:49:00,
2013-02-05 23:50:00,69.4,67.6,29.89,South,179,10.0,11.0,94,0.00,,---,0.00,VWS V14.01,2013-02-06 05:50:00,
2013-02-05 23:51:00,69.4,67.6,29.89,ESE,113,6.0,11.0,94,0.00,,---,0.00,VWS V14.01,2013-02-06 05:51:00,
2013-02-05 23:52:00,69.5,67.7,29.89,ESE,122,5.0,10.0,94,0.00,,---,0.00,VWS V14.01,2013-02-06 05:52:00,
2013-02-05 23:53:00,69.5,67.7,29.89,ESE,117,5.0,9.0,94,0.00,,---,0.00,VWS V14.01,2013-02-06 05:53:00,
2013-02-05 23:54:00,69.5,67.7,29.89,SE,136,3.0,6.0,94,0.00,,---,0.00,VWS V14.01,2013-02-06 05:54:00,
2013-02-05 23:55:00,69.5,67.7,29.89,SE,124,6.0,6.0,94,0.00,,---,0.00,VWS V14.01,2013-02-06 05:55:00,
2013-02-05 23:56:00,69.5,67.7,29.89,SSE,150,6.0,10.0,94,0.00,,---,0.00,VWS V14.01,2013-02-06 05:56:00,
2013-02-05 23:57:00,69.5,67.7,29.90,SE,141,7.0,7.0,94,0.00,,---,0.00,VWS V14.01,2013-02-06 05:57:00,
2013-02-05 23:58:00,69.5,67.7,29.90,SE,136,12.0,12.0,94,0.00,,---,0.00,VWS V14.01,2013-02-06 05:58:00,
2013-02-05 23:59:00,69.5,67.7,29.90,SE,137,5.0,12.0,94,0.00,,---,0.00,VWS V14.01,2013-02-06 05:59:00,